GFSWCAN_850_spd_000.txt.gz
Wind_Speed
29 27 27 27 25 24 23 24 20 19 17 17 17 17 15 13 12 15 16 11 15 12 29 30 28 20 16 11 3 9 10 2 3 2 2 3 1 1 1 12 14 6 2 4 2 3 1 18 9 6 8 19 22 26
27 26 24 24 23 22 21 18 17 17 17 18 16 15 13 12 12 13 16 10 13 18 17 19 29 30 28 23 17 9 6 6 3 1 2 3 2 2 2 4 6 7 5 3 2 1 7 16 5 20 21 30 29 34
27 26 27 26 23 20 17 17 18 16 15 15 12 13 13 10 9 11 13 13 11 16 30 28 29 8 12 17 21 11 7 5 3 9 3 3 2 1 1 2 3 2 5 5 3 6 8 17 16 20 25 31 29 25
26 24 23 22 21 17 13 16 16 14 15 13 12 11 10 10 10 12 14 12 6 7 5 10 10 13 8 15 16 26 23 15 18 13 4 3 1 2 2 1 2 2 2 8 6 4 4 14 15 21 27 30 28 25
27 25 22 20 17 14 13 16 12 13 14 10 9 8 7 7 8 10 13 13 10 8 5 15 28 5 3 10 11 14 19 23 16 3 2 2 1 1 2 2 2 5 3 1 5 17 9 16 11 20 26 29 25 22
27 22 19 14 12 9 8 8 10 11 8 7 5 5 6 7 8 8 4 4 14 11 6 4 10 5 2 3 17 12 13 13 9 3 4 3 3 1 2 2 9 19 9 5 6 25 29 27 27 23 30 26 23 22
20 16 13 12 7 5 6 9 8 9 5 4 5 6 6 6 8 7 3 5 12 2 4 5 5 4 2 7 7 11 12 8 5 3 2 6 7 4 3 4 14 16 24 22 27 26 23 19 17 22 22 20 18 18
16 14 9 6 3 5 7 6 5 4 3 5 4 7 7 8 10 7 4 7 8 6 5 3 5 7 1 2 2 6 6 7 5 2 4 2 3 5 4 6 11 11 24 27 28 29 26 17 17 16 14 13 13 15
15 12 7 4 4 6 4 3 3 3 3 4 5 8 6 1 1 1 5 1 3 7 3 2 2 3 7 1 1 4 3 1 1 3 3 3 3 5 3 7 12 15 15 20 21 21 17 17 16 15 13 13 13 13
12 10 6 5 8 8 6 6 4 2 4 4 3 3 2 2 1 4 3 2 4 5 5 3 4 4 4 5 3 1 1 2 3 2 4 3 3 7 11 12 11 15 20 9 15 20 16 18 17 16 15 13 12 12
11 11 10 10 11 8 9 8 7 5 4 6 5 3 4 3 2 2 2 2 2 2 5 7 6 3 2 0 2 2 3 0 3 2 3 3 3 4 9 11 12 13 14 16 15 14 14 12 14 15 14 13 12 11
7 10 9 7 6 8 7 6 6 6 7 7 5 5 4 2 1 1 2 3 3 3 3 3 4 5 5 3 1 3 2 2 3 2 4 3 1 5 7 10 12 13 15 16 16 15 14 13 13 13 14 14 14 12
13 12 11 9 6 6 4 10 12 9 6 3 5 4 4 2 5 3 4 3 3 3 4 9 4 3 5 4 2 4 5 2 3 4 3 2 2 5 8 11 16 19 20 19 17 16 14 14 13 13 14 12 12 11
13 12 10 8 8 6 8 10 11 13 5 4 5 5 3 3 2 1 2 3 7 8 16 6 4 3 5 4 3 3 3 2 4 3 3 0 4 7 13 14 14 14 13 13 13 13 12 13 14 13 13 10 11 10
11 10 10 11 10 7 8 13 15 11 5 5 3 3 3 7 5 11 11 10 12 12 7 4 3 5 3 3 3 3 4 5 4 3 3 6 4 4 6 8 7 8 9 8 7 7 8 10 12 11 10 8 9 6
10 10 14 13 13 14 15 11 8 7 4 5 6 5 12 2 7 14 16 19 20 10 3 3 2 4 5 2 5 5 3 3 2 3 6 5 5 4 4 4 6 7 8 8 7 8 9 9 9 10 11 9 7 4
10 14 14 16 18 14 13 8 6 6 7 6 4 8 12 5 6 11 13 24 18 7 3 3 5 3 2 4 3 3 2 2 6 7 6 4 4 3 3 3 5 7 7 9 9 9 7 9 11 8 7 9 8 6
11 14 17 20 18 8 12 11 5 6 3 3 6 18 15 9 14 16 20 24 15 9 5 3 2 6 3 3 3 3 5 5 7 7 5 6 6 5 4 5 6 7 8 7 9 9 7 9 12 6 5 7 8 8
12 14 16 18 17 10 6 7 6 5 3 7 12 19 10 12 13 13 20 20 12 10 4 4 5 3 2 3 3 5 7 8 8 7 3 3 5 7 6 6 6 7 7 8 7 7 9 9 9 8 7 8 8 9
11 13 15 16 14 6 4 4 5 4 7 9 12 17 6 10 13 15 16 20 13 6 8 4 1 2 3 5 6 6 5 6 9 9 4 4 9 8 8 8 8 5 5 5 8 8 6 5 5 5 7 6 9 9
11 15 15 13 6 8 4 5 3 5 6 6 13 13 6 10 10 15 15 17 10 5 4 4 4 3 3 5 7 7 7 5 6 6 6 9 8 9 8 5 2 0 3 6 8 7 5 6 7 7 6 9 10 10
13 14 12 8 4 5 3 5 6 7 4 8 8 10 5 5 7 10 15 7 4 5 4 4 6 7 7 6 5 4 3 4 5 5 6 6 8 10 9 11 9 10 11 11 11 11 10 10 10 10 10 9 10 10
10 10 6 5 3 4 3 8 4 6 3 9 8 3 3 6 8 12 4 5 3 6 7 7 7 7 8 9 9 9 7 6 4 2 5 3 3 3 6 5 6 8 9 12 14 15 16 17 17 17 16 16 16 16
7 5 4 6 6 4 5 4 6 5 5 4 3 4 4 5 10 4 2 5 10 12 12 14 17 14 9 5 7 9 7 4 4 5 2 2 5 4 2 6 9 11 12 15 19 21 21 19 18 17 16 15 14 14
4 3 3 3 2 3 3 4 2 2 2 1 1 2 3 8 4 4 3 2 3 5 3 4 6 7 7 10 8 8 7 5 8 10 6 3 3 6 9 9 9 10 14 21 25 24 17 13 13 14 15 15 13 12
3 3 1 2 1 1 2 3 2 1 1 1 2 1 1 1 1 1 3 7 8 9 9 11 11 13 15 14 13 13 13 12 12 12 9 7 6 8 8 8 10 13 19 23 22 18 10 13 15 13 11 9 10 12
3 3 3 3 3 4 4 4 4 2 2 1 1 0 1 3 2 3 6 8 10 11 10 10 12 12 10 11 11 11 12 14 13 12 12 9 8 6 7 10 12 16 19 20 17 12 12 15 16 13 11 10 11 13
4 3 4 4 3 4 3 3 2 2 2 1 3 3 2 2 1 7 4 4 3 3 4 9 10 10 10 12 15 18 21 20 14 10 8 7 7 8 9 12 15 18 19 18 11 11 13 15 17 18 18 16 14 12
4 4 3 4 4 4 4 3 3 3 1 2 3 2 3 6 11 7 9 10 10 7 9 9 10 11 14 17 20 24 22 18 13 10 10 11 13 12 13 16 17 18 18 14 13 15 15 16 16 15 14 12 10 9
3 8 4 2 1 2 3 4 4 10 12 11 20 26 29 30 23 16 15 16 14 13 12 12 14 18 22 26 27 21 15 13 14 14 14 14 14 15 19 21 17 15 13 13 14 16 16 17 17 18 17 17 16 15
7 5 4 3 3 3 3 5 3 5 7 17 20 25 22 19 26 26 22 21 17 11 10 15 19 24 27 27 23 16 13 14 14 16 17 18 19 18 16 15 15 15 15 17 18 19 19 20 19 19 18 18 17 16
7 6 6 4 4 5 6 1 4 5 12 12 6 7 6 6 7 9 19 20 13 9 14 19 23 23 19 15 15 14 13 17 20 21 18 14 12 11 13 16 17 17 16 17 18 18 19 19 17 16 16 16 16 15
7 8 6 5 5 4 4 3 2 4 8 6 5 7 8 5 2 2 7 11 8 10 15 18 21 19 20 19 17 17 18 18 15 12 13 16 18 18 17 15 16 18 19 20 20 19 18 15 14 14 14 15 15 15

GFSWCAN_850_spd_003.txt.gz
Wind_Speed
28 29 29 26 25 23 23 22 20 19 16 15 15 15 13 14 13 14 16 13 17 9 28 28 24 20 15 10 4 11 9 2 3 3 3 2 3 2 4 8 10 8 8 5 5 6 8 23 10 5 7 12 20 27
29 29 28 26 25 24 23 20 17 16 16 15 13 14 14 13 11 11 15 14 14 19 20 21 23 23 27 25 11 5 6 9 4 3 2 3 2 1 1 7 5 6 6 7 5 5 16 15 6 9 19 22 21 34
31 29 27 26 23 20 18 16 13 16 15 12 13 10 13 12 10 9 13 10 13 14 28 26 26 11 18 30 31 13 10 6 3 4 2 2 4 2 2 2 6 3 13 7 5 4 7 9 10 13 12 15 13 21
30 28 28 25 21 19 15 13 13 14 12 13 13 9 9 7 7 11 12 10 10 7 6 7 8 17 8 9 19 30 12 7 5 6 2 3 3 0 1 3 1 3 3 12 6 9 5 7 7 10 14 16 25 25
29 27 24 21 15 13 10 9 10 9 11 12 6 5 6 6 8 7 10 14 13 7 5 15 31 3 2 14 19 25 25 23 8 2 2 2 3 2 1 2 3 7 2 6 7 8 4 6 8 16 24 21 19 28
24 23 22 17 12 8 5 6 9 9 11 3 3 3 4 7 5 6 4 3 11 12 5 4 9 5 5 3 12 15 16 13 6 4 5 4 1 3 2 3 6 10 5 12 2 18 22 12 14 15 27 26 26 29
21 20 17 15 10 7 7 8 9 8 4 2 3 4 6 8 6 4 3 8 9 6 4 5 5 5 4 4 8 9 13 7 7 3 3 2 6 4 3 3 14 10 10 16 22 33 23 16 14 18 24 21 20 22
22 17 12 11 12 12 9 7 6 6 3 2 2 5 9 9 9 3 3 4 11 5 4 3 5 6 0 4 5 9 9 8 4 2 2 1 6 5 4 9 11 11 20 29 28 29 26 22 24 20 13 12 16 17
18 15 12 12 13 14 11 10 7 7 5 5 5 8 5 1 1 1 9 6 14 7 5 3 3 3 6 0 3 5 6 3 5 1 3 3 2 4 3 8 16 17 12 13 20 21 18 16 9 12 10 12 15 13
17 17 14 16 15 14 11 10 8 6 7 6 5 3 2 3 5 4 0 2 4 5 5 3 4 4 4 3 2 3 2 3 2 3 6 2 4 9 14 15 16 15 10 9 16 17 13 9 10 10 9 10 10 10
16 15 12 12 12 9 10 10 9 9 7 6 6 3 4 4 2 2 2 3 3 3 5 6 6 4 3 1 2 1 2 2 3 3 2 3 3 5 4 8 11 12 13 12 10 12 13 10 8 8 9 9 9 8
16 16 14 12 12 10 13 15 13 13 12 9 7 7 5 3 2 2 2 2 3 3 2 3 5 5 5 3 2 1 2 1 4 2 3 3 2 6 8 7 10 11 13 14 14 12 13 14 11 9 8 8 8 7
16 15 14 11 9 9 12 15 20 19 10 5 4 4 3 3 3 3 5 2 3 4 4 9 3 3 3 3 3 2 4 4 2 4 3 3 6 7 10 10 16 17 15 13 12 13 15 15 17 17 15 14 13 11
15 16 15 12 12 15 17 20 19 13 5 4 4 3 3 3 3 2 4 5 6 8 13 10 5 5 5 2 2 4 3 2 4 3 2 3 9 9 8 11 12 12 13 13 14 17 18 19 19 17 16 16 15 10
13 14 14 16 19 21 19 15 13 10 6 5 4 4 3 7 7 10 10 7 6 12 8 1 2 4 3 3 5 5 3 5 4 3 1 11 8 6 8 10 10 14 15 15 15 14 14 14 15 17 15 15 13 12
11 13 20 22 21 19 16 9 10 8 4 6 7 4 12 3 10 12 15 18 17 11 5 3 3 3 4 3 4 6 3 4 2 3 5 5 5 6 9 10 12 14 14 12 12 10 10 12 13 10 12 13 13 9
14 18 23 24 22 14 17 11 6 5 5 5 5 8 10 4 6 9 12 16 15 5 3 3 5 3 3 3 3 4 3 4 8 7 5 7 7 6 6 7 8 7 8 9 10 7 8 12 16 10 8 9 11 11
17 19 22 25 23 12 13 11 5 5 6 4 5 17 13 10 13 14 21 22 13 6 4 3 2 5 4 4 3 4 7 6 7 7 9 9 9 7 5 6 6 7 8 8 8 6 7 9 9 10 7 10 10 10
18 19 22 23 21 10 7 7 6 4 4 7 12 17 10 13 20 21 21 18 12 11 4 4 5 4 4 4 5 6 8 9 7 7 8 9 9 7 6 6 5 6 6 6 7 7 6 4 5 5 7 7 7 9
15 14 19 16 14 6 4 5 6 4 6 7 11 15 7 10 16 20 22 19 17 7 9 5 4 4 4 6 7 7 8 8 9 7 8 9 10 8 7 4 2 3 4 3 4 5 6 5 5 6 7 7 9 11
13 17 15 12 6 9 5 6 4 5 7 6 14 12 6 11 11 16 16 16 11 6 5 5 5 6 7 7 7 6 7 7 8 7 7 8 8 10 8 6 9 10 10 11 12 13 13 12 11 10 10 10 9 9
14 15 11 8 5 5 4 10 6 8 4 7 8 10 5 6 9 10 13 8 5 5 5 6 7 7 7 7 7 7 6 5 5 5 7 10 11 7 5 8 8 10 12 14 15 15 16 16 16 15 15 15 14 13
12 9 6 6 4 7 3 9 6 8 5 11 7 4 4 6 9 10 4 7 6 9 9 10 10 12 13 11 9 7 7 7 6 4 3 0 5 5 3 5 8 9 10 14 16 17 17 16 14 14 13 12 13 12
6 6 5 5 6 3 5 4 4 5 5 3 3 3 3 6 9 5 2 4 7 14 16 12 12 7 7 12 16 17 15 16 17 15 10 5 4 3 2 4 5 7 10 15 18 19 16 13 13 13 13 13 11 10
3 5 4 5 4 3 4 4 3 3 2 3 3 2 4 6 4 4 3 6 7 5 6 8 9 16 19 17 19 18 17 16 16 12 10 6 4 4 6 4 3 6 12 16 17 18 14 12 13 14 13 11 10 10
3 3 2 2 1 1 2 3 3 3 2 2 2 2 3 2 2 4 4 10 10 11 12 12 15 19 20 19 19 18 18 17 15 11 12 11 8 8 5 5 6 8 15 18 19 18 13 12 13 14 13 13 13 13
3 3 3 4 3 3 4 3 3 2 1 1 0 1 2 3 6 7 11 14 10 13 18 18 18 18 17 16 17 19 19 17 14 13 12 9 6 4 6 9 12 16 19 19 20 17 13 12 13 14 15 15 15 14
2 2 3 5 3 2 3 3 2 1 0 2 2 1 2 4 4 9 11 18 19 18 18 18 18 18 18 19 19 20 20 17 12 10 8 8 11 11 11 13 16 20 22 20 17 14 13 12 12 12 13 12 12 13
3 5 4 4 3 4 3 2 2 2 0 1 2 3 4 7 11 14 17 19 18 16 16 15 17 19 22 22 23 22 19 18 15 14 13 12 13 13 17 17 18 13 11 11 12 13 13 15 16 16 15 12 12 11
3 8 4 4 3 1 2 3 4 4 6 8 12 20 20 18 21 21 22 18 19 18 16 18 21 23 23 22 18 16 16 17 17 15 15 14 13 14 14 13 14 15 16 16 15 15 17 16 14 13 13 12 12 13
7 4 3 3 4 3 3 9 8 10 11 17 18 18 14 6 17 24 18 14 15 13 10 12 17 21 23 25 23 18 16 16 17 15 12 11 12 13 15 18 19 17 15 15 16 16 16 15 13 13 13 13 14 14
6 3 5 3 3 8 5 4 6 10 8 18 19 8 6 8 5 2 12 14 11 12 15 18 19 20 21 21 17 16 15 14 13 11 11 14 15 16 16 16 15 15 15 14 14 13 13 13 13 13 13 14 14 14
5 7 7 4 4 4 8 2 4 5 6 4 3 4 4 1 1 1 4 8 10 12 15 18 18 18 20 18 15 13 12 11 10 12 15 17 19 20 17 16 14 13 13 13 13 13 13 14 14 14 14 14 14 15

GFSWCAN_850_spd_006.txt.gz
Wind_Speed
31 31 30 29 27 26 24 22 21 17 16 15 14 14 14 13 12 15 20 19 20 10 26 28 26 25 15 15 7 8 8 6 5 5 10 10 10 11 15 18 24 18 16 11 6 11 15 8 1 2 14 18 10 13
32 31 31 29 27 26 22 19 17 14 13 14 13 13 13 12 14 13 12 10 16 20 18 24 26 24 24 29 25 10 8 7 3 4 3 5 4 2 12 13 6 14 15 9 10 7 5 6 2 1 8 3 5 12
32 30 29 28 23 20 18 17 13 12 13 13 9 11 12 11 13 11 14 10 10 13 27 27 22 13 24 32 20 17 9 6 4 5 5 3 6 4 6 4 15 3 5 7 9 5 8 9 9 5 5 10 19 19
25 24 25 26 21 15 13 9 8 9 11 9 10 10 8 8 7 7 10 10 10 8 7 5 3 6 7 15 28 32 21 4 6 11 4 3 4 6 2 3 5 5 5 9 5 5 12 15 12 7 7 11 18 21
23 23 22 23 17 13 10 8 8 10 10 13 5 4 5 5 7 7 8 11 12 8 9 21 25 3 6 20 17 22 23 22 14 5 4 3 5 4 2 3 3 9 6 2 5 13 13 14 13 4 13 16 17 22
23 21 18 18 16 14 12 10 11 9 10 5 4 5 4 7 4 5 3 3 7 11 8 4 10 2 2 10 18 18 18 13 12 7 2 7 9 5 3 2 7 10 7 3 4 8 20 21 10 8 16 17 22 24
21 17 16 16 18 16 13 11 10 10 6 4 4 5 6 8 7 5 3 7 4 6 4 5 4 1 2 10 9 11 14 9 11 6 4 3 8 2 3 3 11 8 9 13 19 26 19 20 13 14 10 17 21 20
21 17 18 17 18 16 15 13 10 10 7 7 7 7 8 10 7 3 4 7 6 5 5 3 4 4 7 8 8 10 10 7 6 3 2 4 2 4 4 9 10 13 16 23 24 25 22 19 25 9 9 11 16 15
19 18 18 17 17 17 15 14 13 12 12 9 8 7 3 0 2 4 11 3 7 6 5 3 4 2 4 3 6 9 9 5 0 1 2 3 4 4 6 14 16 16 12 15 16 19 17 19 16 11 10 12 11 10
19 20 18 18 18 15 16 17 16 15 11 10 6 3 0 1 5 6 1 3 4 4 5 3 5 4 7 0 7 8 7 3 1 4 8 3 4 16 16 17 18 19 19 11 14 20 19 12 12 12 15 11 8 8
19 18 18 18 15 16 18 19 21 18 11 7 6 4 6 7 2 2 1 2 2 3 4 5 6 6 3 3 1 2 2 6 3 3 2 3 2 4 12 15 19 24 20 17 14 15 12 5 8 8 9 5 5 6
19 18 17 17 17 17 19 21 22 16 11 8 9 9 6 3 3 3 3 5 4 3 1 6 9 6 6 4 4 3 2 3 5 3 4 3 4 7 10 9 12 12 10 11 10 8 6 8 7 5 3 3 5 5
16 16 16 18 20 22 23 21 18 16 11 4 3 3 5 3 3 5 8 4 2 7 7 11 6 4 5 4 3 2 3 4 5 3 3 3 16 15 12 9 13 12 10 8 8 6 8 9 7 7 6 7 5 4
13 16 21 24 26 24 20 16 15 12 5 4 6 5 5 4 4 3 5 6 10 12 15 11 7 5 5 3 3 4 4 0 4 4 4 6 16 14 12 8 11 10 9 9 9 9 11 12 11 9 8 7 7 8
17 18 25 28 27 23 20 15 14 11 5 4 4 3 3 8 9 8 8 8 9 13 12 7 5 7 5 3 4 5 4 5 5 2 4 16 13 13 14 13 10 9 8 7 8 8 9 9 9 10 10 10 9 9
20 20 28 30 27 19 19 12 13 9 5 4 4 3 12 7 15 19 18 15 16 13 6 3 3 4 5 4 7 7 4 5 3 2 10 11 10 8 10 9 9 9 8 9 8 8 11 12 10 9 10 11 11 9
20 15 26 30 26 15 17 11 6 5 5 5 6 15 13 12 14 17 18 18 16 8 5 4 6 6 4 5 5 4 2 3 3 8 7 7 6 6 7 8 9 8 7 8 7 7 7 9 11 8 10 12 11 10
18 23 25 27 26 15 11 9 4 5 5 8 7 16 14 12 16 18 17 18 12 9 10 4 6 7 4 3 3 2 2 8 7 8 9 8 7 7 7 8 8 9 10 10 10 8 9 10 11 12 11 11 8 10
22 24 23 24 22 10 6 6 5 5 6 9 13 14 12 12 14 15 15 13 9 8 3 4 5 5 4 5 6 8 8 6 6 8 8 9 10 10 7 6 8 9 10 11 12 12 11 11 10 10 10 10 10 10
16 14 19 15 13 5 4 5 6 4 7 8 12 15 9 15 14 15 16 17 15 13 9 5 5 8 9 9 8 9 9 9 5 6 8 10 10 10 12 11 10 11 12 12 14 14 12 11 12 11 11 11 10 10
13 16 13 11 6 9 5 6 4 5 6 5 14 10 8 11 16 17 17 14 17 14 10 10 9 7 6 4 5 4 6 7 7 6 7 13 14 13 13 12 11 12 13 13 13 13 14 13 13 13 13 12 12 12
14 12 9 9 7 5 4 8 5 7 5 7 8 9 7 10 13 16 14 13 8 9 7 8 9 9 10 9 8 10 12 11 9 8 8 8 7 6 9 9 9 11 12 13 13 14 14 15 15 15 14 14 14 14
10 9 5 7 4 6 3 8 5 7 5 8 8 6 6 8 12 12 5 7 6 11 14 14 12 13 15 17 19 18 17 17 15 11 8 4 2 3 3 6 7 8 9 11 12 13 14 14 14 13 13 14 13 11
8 5 4 4 6 4 5 5 4 4 4 4 2 3 3 5 9 4 3 4 8 11 11 11 14 18 17 20 20 20 19 16 14 13 11 7 4 2 3 5 5 6 8 10 13 15 16 15 15 13 14 13 12 11
4 5 4 5 4 5 4 3 4 3 3 3 3 2 3 4 3 5 5 10 16 17 16 16 17 18 18 18 18 19 20 19 17 15 12 11 9 8 8 6 6 7 10 13 15 17 17 16 14 13 14 13 13 14
3 3 3 6 4 4 5 6 6 5 3 1 2 2 2 2 4 5 6 13 16 15 16 17 16 17 19 19 19 20 20 18 15 12 12 12 10 9 9 9 10 10 13 15 17 18 18 16 15 15 15 15 15 16
4 6 2 4 3 3 3 2 3 3 3 4 3 3 2 3 5 5 10 12 12 13 13 14 15 16 16 17 18 18 17 16 14 11 9 9 10 11 11 12 12 13 15 14 15 14 14 14 14 15 16 16 16 17
3 3 5 6 3 2 4 4 2 3 3 3 3 4 3 6 5 7 9 9 9 10 13 15 16 16 17 17 17 18 17 15 13 11 9 6 9 11 15 13 12 15 12 15 15 13 13 13 14 15 17 17 18 16
3 5 5 5 2 1 3 5 7 6 7 6 2 3 6 9 9 9 12 12 10 12 16 18 16 16 17 17 17 16 15 17 17 17 15 14 14 14 14 14 14 14 14 14 17 18 18 19 15 16 14 15 14 14
6 6 4 3 4 4 4 6 8 9 11 14 20 27 25 21 18 18 20 22 21 13 11 10 14 18 19 20 19 17 13 15 15 14 15 14 14 14 15 16 16 16 16 16 16 16 17 17 13 12 13 14 14 15
7 7 7 4 5 6 5 10 14 17 19 22 17 15 7 5 9 10 11 10 9 10 12 15 16 17 19 19 17 15 13 12 12 13 13 12 13 15 16 16 16 15 15 15 15 14 16 15 14 14 14 14 14 15
7 8 10 7 7 6 6 5 5 14 8 5 2 2 3 4 4 4 9 10 11 13 14 14 16 17 16 13 11 10 10 10 12 14 16 15 14 15 13 13 13 14 14 13 13 13 14 15 15 15 15 15 15 15
5 9 9 9 8 8 6 2 3 5 5 5 1 2 1 3 5 5 7 8 9 11 12 12 13 13 13 12 11 11 12 12 16 20 21 17 16 14 12 13 13 14 14 14 14 14 14 15 15 16 16 16 16 16

GFSWCAN_850_spd_009.txt.gz
Wind_Speed
32 32 30 29 29 28 25 23 20 18 15 15 15 14 14 12 13 13 13 14 18 8 21 29 29 29 27 21 10 12 6 5 3 7 10 13 15 19 20 22 25 23 21 19 19 22 24 5 8 12 6 13 16 16
28 26 25 25 27 26 21 18 17 13 13 13 14 13 10 11 12 12 16 15 12 20 19 22 26 27 23 25 25 20 11 2 4 5 2 5 4 8 17 16 25 24 21 17 13 14 9 9 10 3 8 10 10 10
24 25 23 23 26 20 17 14 11 12 11 13 12 9 12 11 10 12 14 12 14 11 27 28 24 19 22 31 28 19 18 7 6 8 5 4 6 3 8 12 21 8 23 19 12 12 10 14 10 5 5 4 2 5
22 25 21 21 22 19 17 13 11 12 11 10 12 11 8 8 7 8 11 12 11 8 7 15 7 5 7 13 24 27 20 5 5 10 8 4 5 8 3 6 3 5 13 8 16 16 18 17 12 10 9 8 13 18
22 20 18 20 20 19 16 14 12 15 12 12 8 7 6 7 8 11 10 8 13 10 8 21 23 14 13 18 15 22 23 18 13 5 3 3 3 2 7 3 4 4 5 5 9 18 23 16 14 11 13 16 16 19
21 20 19 19 21 19 18 16 14 13 12 8 7 7 5 7 8 8 3 1 6 11 10 6 13 2 2 12 13 15 16 12 6 3 5 6 8 9 4 3 8 6 16 7 12 26 29 24 22 19 18 15 16 17
19 18 19 20 21 20 19 17 14 15 12 10 9 10 8 8 8 8 5 7 8 4 4 5 4 6 6 13 14 12 13 9 5 4 7 3 5 12 3 3 9 12 13 17 20 24 20 16 15 23 22 17 16 16
20 20 20 20 18 17 18 19 18 17 16 14 12 11 11 12 9 5 6 8 5 5 5 3 6 5 14 15 10 14 13 10 13 9 2 3 10 3 2 7 12 14 21 24 22 21 22 17 15 19 24 25 14 13
20 20 21 21 18 19 18 18 20 19 15 12 10 8 5 2 3 3 11 6 7 5 3 3 3 3 11 3 4 15 12 7 6 1 1 4 1 1 7 11 15 17 12 19 23 29 26 23 21 15 16 13 16 13
19 18 18 17 17 19 22 25 24 19 10 9 8 4 4 2 9 10 3 3 4 6 6 4 7 3 11 10 7 7 5 2 1 4 2 3 2 14 16 17 22 21 16 16 21 24 26 23 20 12 11 13 14 18
16 17 18 21 24 27 28 26 23 18 11 8 6 4 10 11 5 3 3 3 4 4 5 5 9 7 10 3 3 7 3 0 1 3 1 3 2 5 17 20 21 22 19 21 24 24 23 17 10 11 5 2 2 1
16 18 22 24 29 31 28 25 21 14 10 9 8 8 8 4 3 4 4 4 4 2 3 4 5 6 1 4 5 8 4 1 3 3 3 2 3 8 14 19 18 20 18 16 14 12 6 7 8 7 8 5 1 4
19 22 23 26 35 33 26 20 18 16 7 5 5 4 6 4 3 5 7 2 4 9 7 6 5 5 1 14 6 1 3 3 7 4 3 3 7 3 13 12 11 10 11 14 8 3 8 9 8 7 6 6 7 5
21 23 21 29 35 31 22 19 17 9 5 4 5 4 4 4 4 4 9 8 12 11 9 8 6 4 7 3 3 6 6 3 2 3 3 5 7 4 5 10 11 7 9 10 11 8 9 11 11 9 10 10 9 8
23 21 22 31 31 25 20 15 15 12 6 5 5 4 4 9 18 19 16 12 15 16 13 1 6 11 6 5 6 6 5 4 6 3 4 12 12 7 7 6 8 11 9 9 10 11 10 9 10 11 12 10 9 8
24 14 19 29 28 21 18 10 11 6 2 2 2 2 9 11 16 20 21 20 20 19 13 3 5 4 7 5 7 8 4 5 3 1 14 15 14 9 5 6 10 11 11 11 10 12 11 10 9 11 9 9 10 10
18 14 26 26 26 15 17 9 6 5 7 4 5 16 15 15 15 21 20 21 20 18 9 5 7 6 3 4 4 4 3 0 7 11 12 9 8 7 6 7 8 11 10 9 8 8 7 8 10 9 9 7 7 8
18 22 23 25 24 13 8 9 5 5 7 12 11 16 15 16 18 19 19 18 14 15 15 7 9 10 5 4 3 3 3 4 11 6 6 8 8 8 8 9 10 10 11 11 8 8 7 10 9 8 6 7 1 7
20 20 19 19 18 8 6 6 5 6 8 12 15 13 13 14 15 16 17 15 14 14 13 11 7 5 5 7 10 13 13 9 10 11 11 11 11 11 11 11 13 13 13 13 12 13 12 11 10 11 11 11 11 11
15 12 15 11 14 4 4 4 5 4 7 9 14 12 13 15 15 17 19 20 19 20 13 6 8 12 13 14 15 14 14 12 10 11 11 13 13 13 14 12 11 9 10 9 11 12 10 10 10 11 11 10 10 10
8 10 7 10 5 7 4 6 5 5 5 7 11 7 13 17 21 19 22 19 20 23 14 15 16 15 16 15 17 16 18 15 14 13 13 12 11 11 11 9 8 9 10 10 11 11 11 11 12 13 12 11 11 10
10 10 6 7 6 5 5 7 4 6 5 5 15 14 9 12 13 17 14 16 7 10 13 16 18 18 21 21 20 20 17 16 12 11 10 8 7 7 6 7 8 9 9 10 11 12 12 13 13 13 12 12 12 11
12 9 5 5 5 5 4 7 3 5 4 5 7 4 3 7 9 10 6 10 11 17 16 16 17 17 17 18 21 22 23 17 14 13 11 7 6 6 6 7 7 7 9 10 10 11 13 13 14 13 13 13 12 11
8 5 4 4 6 4 4 5 4 3 3 3 3 3 3 4 2 4 6 9 11 11 16 18 20 18 18 19 21 22 22 19 16 16 13 14 14 10 9 8 7 8 9 11 13 15 16 16 16 14 13 14 13 14
5 5 4 4 2 4 2 3 3 3 3 2 2 2 3 2 3 4 5 10 16 20 18 16 16 17 18 18 19 20 21 21 19 16 16 15 14 13 12 13 14 9 10 14 16 17 18 17 16 15 15 15 14 15
3 3 4 8 5 5 5 5 4 5 3 3 3 2 1 1 5 5 4 12 13 15 17 17 17 17 18 18 19 20 20 18 16 14 13 13 13 13 13 13 14 15 18 16 17 18 16 16 16 16 16 15 15 15
4 5 2 2 3 4 4 3 3 3 3 4 3 4 4 4 5 4 7 10 12 13 14 15 16 17 17 18 18 18 18 17 16 14 12 10 9 11 14 15 15 15 15 14 15 16 15 16 16 16 17 17 17 17
5 7 7 8 5 4 5 7 5 6 7 7 4 4 4 5 4 9 10 10 10 12 14 14 15 15 16 18 17 17 16 16 16 14 11 5 10 13 14 13 14 16 14 14 16 15 14 17 18 16 15 15 15 15
3 8 7 8 6 4 7 8 10 11 15 13 3 5 3 4 9 9 9 9 11 14 11 12 13 15 17 17 16 15 15 16 17 17 16 14 15 16 15 15 15 15 15 15 17 15 16 19 14 13 13 15 15 14
12 8 4 7 10 5 9 11 13 12 15 13 11 16 15 8 3 4 6 7 9 10 14 15 16 17 18 18 16 15 13 14 15 15 15 16 16 16 16 16 16 15 15 15 14 14 17 16 14 13 15 15 16 16
9 12 9 8 9 8 10 10 10 11 11 12 10 10 7 7 5 8 9 10 12 14 14 16 16 16 16 16 15 13 13 13 13 15 16 13 13 13 13 14 14 14 14 14 14 14 16 16 15 15 16 16 16 16
6 5 6 3 6 7 10 5 3 6 4 5 5 3 5 3 2 4 12 14 13 15 15 15 15 15 14 13 12 12 13 11 10 15 18 15 12 12 12 13 13 14 14 14 14 14 15 15 16 16 16 16 17 17
4 10 8 8 4 3 6 5 5 3 2 5 5 2 4 6 5 7 9 13 12 14 14 15 13 12 12 12 13 12 12 11 15 16 20 18 16 14 13 13 13 15 16 15 14 15 15 16 16 16 16 16 17 17

GFSWCAN_850_spd_012.txt.gz
Wind_Speed
26 26 27 26 26 27 25 22 19 17 14 12 13 14 15 15 12 13 15 11 19 11 23 28 30 29 24 23 10 9 10 7 8 8 6 6 7 10 14 13 15 10 10 12 11 9 8 22 12 19 3 3 4 7
25 24 25 23 24 24 22 20 17 15 15 14 13 15 12 10 11 12 15 11 14 21 21 29 24 29 31 27 23 17 9 13 7 3 2 3 8 8 13 10 15 13 15 11 11 9 6 10 9 8 6 5 7 9
24 23 21 23 24 24 21 19 17 16 16 14 13 13 14 13 11 12 14 15 13 11 27 26 24 24 28 30 27 24 21 10 7 3 5 3 6 4 3 7 12 16 17 12 13 11 2 10 9 6 9 12 9 16
22 21 22 22 24 23 21 20 18 17 16 15 14 11 10 10 10 11 13 12 12 9 6 18 12 21 13 14 25 25 26 17 12 9 3 3 4 4 4 6 8 6 13 12 13 13 13 13 15 6 13 19 20 23
21 21 22 22 23 22 21 20 18 18 18 15 13 12 11 10 10 11 15 14 12 11 6 21 28 24 21 17 13 18 19 20 15 9 2 3 3 2 2 3 3 5 5 5 5 19 14 13 13 16 23 23 23 23
22 22 21 22 21 21 21 21 20 20 18 16 15 14 13 11 12 12 5 2 3 13 6 6 19 19 6 19 15 15 16 16 12 5 1 4 7 3 3 1 5 7 10 3 5 31 28 27 30 20 25 25 25 24
21 20 20 21 19 20 21 21 21 22 20 19 18 16 14 13 13 11 7 8 14 8 5 6 6 9 11 12 14 14 14 16 9 3 5 4 4 4 1 2 7 11 9 18 25 27 24 30 23 21 27 25 24 23
19 19 20 20 21 22 24 26 25 24 21 16 14 13 13 14 12 8 6 10 6 5 4 4 5 6 13 17 11 14 12 6 5 4 5 4 2 4 2 4 8 11 16 19 21 22 21 17 17 25 32 27 25 23
18 18 19 21 24 28 30 28 25 21 16 12 10 10 10 5 5 5 9 15 6 6 3 3 3 5 16 4 6 10 10 5 10 4 0 2 3 2 3 4 12 12 8 19 24 21 19 22 23 24 23 24 25 23
18 19 22 24 26 32 32 29 25 21 13 12 9 4 4 3 12 16 6 2 4 5 6 4 11 3 6 7 5 5 10 4 3 2 2 3 4 10 13 13 17 18 12 19 24 18 22 23 21 20 18 14 15 18
21 23 26 27 27 33 33 28 23 21 10 9 5 4 15 10 6 4 4 4 2 3 6 8 12 5 7 6 2 7 2 1 2 1 2 3 2 6 12 19 22 22 23 26 22 18 18 19 20 18 17 18 19 15
24 26 28 26 29 35 32 24 23 15 9 7 8 8 10 5 2 2 4 3 4 3 5 4 9 12 3 2 5 3 2 1 3 0 3 2 3 7 8 17 19 18 17 15 13 10 9 10 11 11 14 10 11 3
25 27 28 24 32 36 32 24 18 12 5 5 5 5 8 2 4 5 6 3 2 4 4 10 3 2 5 4 1 1 3 4 6 3 3 1 8 4 12 22 20 17 18 16 14 8 11 12 9 7 7 7 9 5
25 27 23 26 35 34 26 19 17 10 6 4 6 5 4 4 3 4 11 11 16 5 16 9 7 5 5 3 2 5 4 2 4 4 3 1 1 1 8 12 12 9 9 14 14 15 16 22 16 13 10 11 9 10
24 23 18 28 33 28 19 10 16 13 5 5 4 3 4 11 17 16 22 17 10 19 19 10 4 16 7 4 4 3 2 5 6 4 2 2 4 8 10 7 13 13 14 17 17 16 16 15 17 16 14 17 12 11
25 19 14 28 26 18 14 9 11 5 3 3 2 7 17 17 20 25 26 21 36 20 6 11 8 5 8 5 7 7 4 4 2 2 2 2 7 13 12 11 10 13 12 15 13 13 14 16 15 13 11 9 9 8
22 9 25 25 22 7 18 9 4 3 6 7 12 18 18 19 17 21 24 29 25 26 11 5 7 9 4 5 4 3 3 3 9 11 8 9 9 10 11 11 18 15 12 10 9 16 10 12 9 12 12 12 9 9
19 21 21 21 19 7 7 8 7 6 8 12 12 16 19 19 24 26 22 21 23 22 21 11 9 8 6 5 2 1 5 6 6 10 9 9 10 10 8 10 15 17 20 19 11 14 16 19 18 19 17 16 14 12
19 17 15 15 12 7 5 7 7 7 9 16 18 19 17 21 23 24 24 21 25 23 22 11 7 7 7 9 13 18 17 14 12 12 14 14 10 11 12 12 13 14 16 15 18 15 14 14 15 17 14 14 13 11
12 11 15 10 14 5 4 3 4 5 7 10 14 13 17 21 22 24 26 29 25 25 16 8 9 19 20 21 20 20 19 18 19 15 14 14 15 15 14 12 11 11 13 12 14 13 13 12 13 12 11 11 13 12
11 12 8 12 6 8 6 7 6 6 7 9 15 14 15 18 23 27 28 23 26 12 17 19 22 24 25 26 24 22 20 18 18 16 15 12 13 12 12 12 11 10 10 12 12 13 13 14 14 13 12 11 10 10
9 11 8 8 6 5 4 7 5 6 6 10 14 13 12 16 17 19 19 23 12 13 16 17 18 21 25 27 27 27 23 11 10 13 10 6 7 9 10 10 9 10 13 11 12 12 13 14 14 13 13 13 12 12
11 10 7 5 4 4 2 4 4 4 2 4 6 4 6 7 7 7 6 9 8 11 13 13 13 21 21 21 25 26 26 23 21 17 17 16 9 11 11 9 10 8 7 10 12 13 14 15 15 14 12 11 11 10
8 5 4 5 6 4 4 1 1 1 4 3 2 1 2 3 4 6 7 12 17 22 23 23 20 21 21 22 23 24 25 22 17 16 16 15 13 15 17 11 13 14 14 12 13 13 14 14 14 14 13 13 12 10
4 4 3 4 1 3 0 4 6 4 4 3 1 1 3 4 3 3 4 15 21 20 21 19 19 20 20 19 19 20 20 19 18 16 14 13 12 12 14 18 14 15 17 15 15 15 15 14 14 15 14 15 15 12
0 1 2 7 5 4 6 4 4 5 3 4 7 7 7 4 5 4 4 12 13 17 17 18 19 19 18 18 20 20 19 18 18 16 16 15 11 11 13 15 16 17 17 14 14 15 15 15 16 16 15 16 17 15
3 4 4 4 7 3 6 6 5 6 5 5 8 5 2 5 5 3 7 15 13 13 15 18 14 16 17 19 18 17 18 17 18 16 15 9 12 12 13 15 15 16 14 13 14 15 15 16 18 16 15 13 13 13
9 9 17 13 11 19 6 6 8 7 9 11 6 6 3 4 1 2 4 10 13 12 9 8 11 14 17 18 17 17 15 15 16 15 12 10 13 14 14 13 14 14 13 12 14 12 14 18 13 13 12 13 13 13
5 22 11 5 10 9 11 10 14 12 15 13 6 4 3 2 2 3 5 6 7 11 14 16 16 16 16 16 15 15 14 15 17 18 16 15 16 17 16 14 14 13 13 12 14 10 15 13 12 10 13 14 14 14
10 7 7 3 7 6 15 10 11 12 15 15 12 9 6 4 2 2 6 11 14 14 15 15 15 16 16 16 15 14 14 13 13 15 16 15 15 14 13 14 13 13 13 12 12 12 14 13 12 13 13 14 14 15
6 7 5 6 5 10 5 7 8 9 10 12 9 8 7 3 2 5 12 13 14 15 15 15 14 14 14 15 14 13 12 12 11 14 16 11 11 11 12 13 13 14 13 13 13 13 14 14 14 14 14 15 15 16
3 7 10 2 8 6 6 4 4 1 5 5 5 4 2 1 2 1 9 15 14 15 14 15 15 13 12 12 12 11 11 8 10 14 17 13 10 10 11 12 12 14 14 14 13 13 14 14 14 14 15 15 16 16
6 8 6 6 3 5 9 5 2 2 4 5 2 2 2 8 7 6 7 12 12 11 13 13 13 11 11 11 12 11 9 7 14 13 21 18 16 15 12 12 14 14 14 14 12 12 13 13 14 15 15 15 16 17

GFSWCAN_850_spd_015.txt.gz
Wind_Speed
25 25 24 24 26 26 25 24 23 21 20 20 17 15 17 15 12 12 16 11 16 15 26 28 30 27 22 21 9 9 7 4 4 6 4 4 4 4 6 7 9 5 4 1 1 4 4 6 7 5 5 6 6 6
24 24 25 25 26 27 25 24 22 21 21 21 19 18 16 16 14 15 17 12 16 22 21 32 28 29 33 33 30 9 6 2 5 4 3 1 4 2 3 4 3 3 4 5 5 2 2 4 9 5 8 3 5 9
24 24 25 25 26 26 24 24 21 21 22 21 19 16 15 14 12 12 15 15 18 18 25 23 20 22 22 23 21 23 21 20 10 9 4 2 6 3 3 2 5 3 9 4 9 11 7 12 2 14 21 26 19 18
23 24 24 25 26 24 24 24 24 23 22 21 18 17 17 15 13 14 15 15 15 11 6 15 22 31 18 23 27 38 32 21 14 12 4 3 2 6 1 3 2 4 8 6 5 13 26 15 20 10 31 17 9 23
24 24 23 25 26 25 25 25 25 25 25 24 22 19 17 16 16 17 18 18 16 10 5 19 38 7 18 19 19 24 30 27 14 9 5 2 5 3 3 2 2 2 2 2 3 7 6 11 20 21 31 28 20 24
23 23 23 24 25 26 28 30 30 29 27 26 24 20 17 15 14 13 5 2 4 8 7 4 17 16 19 8 16 32 24 15 17 8 2 3 5 5 2 2 2 10 6 8 5 8 24 26 36 27 32 26 27 32
22 23 25 26 27 29 33 34 33 30 26 24 21 17 15 13 14 8 6 5 12 8 5 5 6 10 28 9 13 14 18 16 9 2 1 2 4 5 2 2 7 10 7 12 6 7 21 33 22 31 31 32 33 35
22 24 27 29 31 33 35 36 34 30 25 21 18 17 16 16 16 11 8 7 4 6 5 3 4 7 15 8 2 13 9 8 3 2 1 1 8 3 2 4 6 7 5 11 21 14 14 18 21 23 29 32 36 33
23 26 29 31 33 33 37 38 35 31 26 15 15 17 15 6 3 5 9 16 12 6 3 3 3 3 9 5 1 5 8 2 2 1 2 3 1 2 6 10 1 8 13 12 22 18 14 17 24 20 22 28 31 31
24 27 31 34 34 33 38 37 36 31 18 15 12 4 3 5 11 19 5 1 3 4 5 3 6 3 5 4 3 6 1 3 2 3 4 3 2 8 19 6 11 16 16 16 10 12 13 19 19 17 13 14 16 21
25 28 30 33 31 34 39 37 33 30 14 11 6 4 13 15 6 1 3 3 3 3 6 8 9 5 7 2 2 2 2 2 2 0 2 3 4 8 16 10 17 21 22 18 19 18 17 19 18 15 16 17 16 15
27 27 29 32 28 35 38 34 29 22 12 11 14 12 10 5 4 3 2 1 2 3 4 3 6 8 1 4 2 4 2 4 2 2 3 3 4 16 13 12 16 12 11 10 7 9 10 10 10 11 10 12 13 14
25 27 28 30 26 34 34 26 21 18 16 7 6 5 6 4 3 4 4 1 3 3 6 9 2 5 5 6 3 2 1 4 1 4 3 2 6 6 15 12 6 7 6 12 13 9 16 13 9 12 8 11 15 18
26 26 27 25 28 34 25 17 16 16 9 5 6 8 5 5 3 6 8 6 14 15 21 23 3 3 4 1 1 3 3 3 4 4 4 2 11 3 11 18 22 14 14 21 26 30 22 22 23 15 16 13 15 19
26 25 25 19 30 25 16 9 14 14 6 5 5 3 4 13 24 28 23 20 22 21 14 3 3 1 2 3 6 6 5 5 6 3 2 12 17 16 13 10 17 19 22 28 25 19 19 17 18 23 17 19 18 16
25 23 14 24 24 10 11 10 12 6 5 5 3 10 19 18 18 27 26 26 36 32 11 15 6 5 8 4 6 7 4 5 3 2 13 16 23 20 14 13 14 16 20 16 19 17 18 17 16 16 12 13 12 13
20 11 20 21 17 4 13 16 7 4 3 6 9 21 14 19 19 25 26 31 27 31 10 5 7 8 3 5 5 5 3 3 8 11 12 16 22 22 18 22 15 15 20 19 25 16 25 26 19 23 19 19 17 12
19 16 14 16 11 9 12 11 7 6 8 9 9 21 27 31 29 28 29 34 25 24 16 7 7 7 4 3 2 1 2 6 11 16 11 11 11 10 10 16 22 20 19 18 23 22 21 21 26 24 21 22 23 20
14 14 13 12 13 7 5 6 6 5 13 15 20 22 25 27 32 32 32 32 33 26 25 9 6 6 6 9 17 20 21 15 10 12 12 18 19 18 13 15 18 18 18 19 23 23 24 21 21 24 19 18 19 20
12 13 13 14 13 7 4 5 7 5 7 11 13 19 23 25 28 31 32 30 24 26 17 7 7 16 22 26 25 20 16 17 15 20 20 19 15 15 16 16 11 14 19 21 20 18 19 22 19 24 19 18 19 15
14 10 10 11 8 8 5 6 6 3 5 7 11 14 12 19 26 29 28 24 25 15 13 20 23 28 29 31 32 34 23 13 17 21 18 13 9 7 8 8 12 14 18 18 21 22 21 19 17 21 17 14 20 14
8 7 8 8 4 3 2 4 4 6 2 2 7 10 8 11 13 14 16 17 11 14 20 24 21 21 30 30 28 31 31 24 20 17 24 19 19 20 28 23 18 20 21 21 20 21 21 18 15 19 16 14 15 14
9 6 5 3 2 2 3 3 2 3 1 2 1 2 3 4 6 11 6 13 16 24 26 23 19 24 23 21 26 25 25 28 21 22 20 21 22 21 25 22 23 28 27 25 21 21 21 17 15 18 24 17 15 17
5 4 2 3 3 4 4 4 4 4 3 1 1 2 3 3 5 6 5 10 18 22 26 26 25 23 21 21 20 23 24 23 25 20 22 16 19 21 20 15 17 25 23 19 17 18 20 18 15 12 23 21 12 12
3 2 2 4 2 4 4 2 5 4 4 2 5 4 5 3 2 3 3 12 18 18 20 21 18 18 15 18 21 22 21 19 21 24 22 12 13 16 20 21 18 18 21 16 17 17 19 17 18 17 18 19 17 15
3 4 7 13 20 9 4 4 4 3 3 5 4 5 4 1 3 3 3 10 14 17 19 18 15 16 19 22 20 19 20 17 14 24 16 12 17 19 20 20 18 18 18 13 15 16 15 18 17 15 15 14 15 13
7 11 8 2 3 4 6 6 10 9 6 6 5 4 3 4 4 3 7 9 13 15 15 14 15 16 18 19 17 17 16 15 13 14 19 16 14 14 18 18 16 15 12 12 13 12 15 15 13 12 13 15 16 13
5 14 6 5 4 6 4 9 7 7 8 11 5 6 3 3 2 4 5 10 10 13 15 13 14 16 17 17 16 15 15 14 16 11 10 17 20 17 14 14 13 12 15 14 11 9 13 12 12 12 14 14 14 13
6 7 7 7 5 3 6 10 10 8 10 8 3 3 3 2 1 5 9 13 17 10 14 16 15 15 15 15 15 16 12 13 15 20 21 17 19 18 15 14 13 14 12 12 13 9 13 14 12 11 11 13 13 12
12 11 7 8 8 4 9 7 9 8 9 13 11 9 6 4 2 5 11 14 16 16 16 15 14 13 13 14 14 14 12 11 13 16 14 11 13 11 13 13 13 14 11 14 14 12 11 11 12 12 13 13 14 14
4 6 6 5 5 9 11 9 8 8 8 8 6 6 5 2 1 1 8 12 12 13 13 14 14 11 11 11 11 10 8 9 13 21 18 7 7 7 11 12 10 13 11 14 12 13 12 11 12 12 12 13 13 14
3 7 9 2 6 7 6 9 8 7 5 2 4 3 2 1 2 0 5 10 10 10 11 12 13 11 10 9 9 9 6 6 16 16 22 14 11 8 10 12 10 12 11 12 10 11 10 11 11 12 13 13 13 14
5 4 5 4 10 5 8 4 1 3 4 3 3 6 4 3 4 5 5 10 6 6 9 10 9 9 10 10 10 8 5 9 12 10 17 16 14 14 10 11 13 13 12 9 11 11 11 12 11 12 12 13 13 14

GFSWCAN_850_spd_018.txt.gz
Wind_Speed
22 24 25 26 26 27 26 26 25 23 23 22 22 21 19 17 15 15 16 11 14 14 25 26 28 25 18 14 8 9 8 1 2 3 4 3 4 5 4 5 8 4 2 3 3 6 6 23 12 9 5 7 6 8
22 24 25 24 25 26 26 27 26 26 25 23 22 19 16 16 14 13 17 10 13 17 26 37 41 39 36 37 23 11 7 5 5 3 2 4 4 4 6 4 8 6 4 4 4 1 11 18 7 7 16 18 14 16
22 23 24 25 26 27 27 27 27 27 26 26 24 22 20 17 15 13 18 16 16 17 28 20 21 16 16 19 22 16 9 15 10 14 3 4 5 4 4 4 5 5 1 3 1 3 11 25 25 16 28 24 19 18
22 23 24 26 27 28 29 31 32 32 31 29 26 24 21 19 17 16 20 16 16 9 5 14 19 34 21 19 26 31 36 15 14 15 4 4 4 6 3 1 2 3 0 3 1 3 10 27 25 25 22 19 25 26
20 22 25 27 29 31 33 34 35 36 34 31 26 23 21 18 16 19 21 16 12 11 5 17 34 0 13 13 12 29 34 37 21 4 3 4 4 6 3 3 2 2 3 2 3 6 4 9 17 28 36 33 30 25
19 22 26 29 31 33 35 35 37 37 34 30 26 22 19 15 14 14 6 4 5 4 6 4 11 12 15 16 9 16 23 27 16 5 5 7 4 5 3 2 1 13 1 6 5 9 4 22 25 28 28 29 27 30
19 22 26 30 32 35 37 37 40 40 34 29 25 21 16 14 15 12 7 8 11 11 4 4 4 7 18 10 2 9 13 14 14 12 4 4 4 6 3 1 7 18 19 18 20 4 14 25 16 31 35 35 33 27
23 25 27 31 33 36 36 39 43 42 35 27 19 15 17 16 19 21 12 11 16 16 6 3 4 6 11 7 7 8 7 14 4 2 3 3 7 3 2 11 16 11 12 21 15 14 14 24 28 30 30 31 31 32
24 26 29 32 34 36 35 40 42 41 34 20 17 16 12 8 6 7 10 9 8 8 3 3 2 3 6 4 2 4 3 3 4 2 2 2 3 3 7 9 8 15 12 18 21 18 19 23 24 22 20 25 27 26
27 28 29 31 34 35 35 40 40 38 30 19 11 5 4 4 16 14 3 1 3 5 5 3 4 3 5 3 3 6 7 3 2 2 1 3 2 13 16 12 15 14 21 21 24 18 19 20 18 17 18 18 20 24
28 29 29 30 32 31 33 38 36 35 29 18 12 4 14 18 5 1 3 3 3 3 6 7 9 5 6 2 1 1 1 2 2 2 2 4 6 10 24 20 26 26 26 27 26 23 18 19 18 16 14 16 12 12
28 28 28 29 31 26 33 32 30 30 25 19 15 14 9 5 4 3 3 3 3 4 4 4 6 6 3 5 1 4 2 1 4 2 3 4 5 25 23 18 14 11 16 16 13 16 20 20 15 16 15 13 11 12
28 28 27 28 25 27 29 23 23 27 26 11 6 6 5 6 5 5 4 3 3 4 6 9 1 1 4 3 3 2 2 5 3 4 2 1 13 20 16 14 14 12 13 14 16 16 15 9 12 13 15 17 18 19
27 26 25 23 22 25 21 19 23 26 12 7 7 8 4 5 4 5 11 7 19 10 12 14 1 2 1 2 2 4 4 4 4 4 3 2 5 7 13 21 28 28 32 26 26 31 26 25 23 21 21 20 18 19
24 21 17 18 20 15 15 18 21 20 7 6 7 6 4 13 21 27 26 28 30 25 5 4 3 6 4 5 5 5 5 5 6 5 4 17 21 17 19 24 30 26 23 25 24 23 24 21 23 22 19 19 19 19
21 16 18 19 15 8 14 16 13 9 6 8 6 6 17 12 18 28 31 30 37 30 9 13 4 5 9 4 6 7 4 5 3 4 16 25 25 26 25 23 22 30 32 34 33 32 35 36 33 32 23 20 20 23
15 13 15 16 8 11 15 14 9 6 6 7 7 21 21 19 17 26 31 29 26 31 10 5 6 6 2 4 5 5 5 5 13 14 17 10 18 22 22 23 18 26 34 33 32 31 30 29 29 28 31 27 26 26
14 12 13 14 9 11 16 13 6 7 6 13 10 22 25 27 28 31 35 39 26 25 18 6 6 8 5 5 4 4 12 23 20 16 14 12 14 17 19 20 28 26 26 26 27 27 26 27 29 27 25 22 21 23
13 12 14 15 13 10 7 8 8 4 12 14 23 27 28 28 32 33 35 34 35 30 21 9 7 6 6 8 11 15 19 14 7 15 16 21 19 17 20 21 23 22 22 23 24 23 24 25 23 23 21 19 21 21
10 10 13 14 13 7 6 5 8 6 5 10 14 18 26 25 26 31 35 33 26 24 17 7 7 11 18 25 21 13 17 21 23 23 19 15 9 9 10 13 18 20 21 22 24 22 20 23 23 22 24 18 18 19
8 7 12 13 9 9 4 5 4 3 3 4 6 12 13 22 29 31 31 25 28 24 12 19 26 31 30 30 31 26 30 28 32 28 20 23 21 19 26 28 28 28 26 26 24 22 20 23 21 18 20 18 17 17
6 7 5 8 5 4 1 3 3 4 1 3 4 4 5 9 10 17 22 22 23 21 27 28 25 22 28 28 26 28 24 26 28 25 20 19 25 26 29 26 26 27 27 26 24 23 23 21 16 15 21 19 17 18
4 4 4 4 2 2 2 3 2 2 3 4 7 5 4 4 7 12 7 16 20 27 24 20 21 23 18 20 22 26 26 25 29 24 21 21 21 21 21 21 19 19 20 22 18 16 16 16 16 12 12 16 18 15
3 2 2 1 2 4 4 3 3 3 2 9 2 2 2 0 2 4 3 8 19 21 20 19 22 17 19 19 22 22 23 22 17 20 17 19 19 20 20 20 20 19 16 13 15 14 12 15 17 15 13 14 16 14
1 3 4 5 4 5 4 5 5 3 2 4 4 2 2 2 3 2 2 9 18 20 21 21 18 17 17 14 13 18 18 18 17 20 18 16 16 14 16 17 18 17 15 15 16 16 17 14 15 16 16 14 17 20
4 6 5 6 5 4 5 4 3 4 3 3 3 6 3 3 3 3 4 13 14 17 17 17 13 15 15 10 11 14 16 17 12 16 16 14 18 20 19 18 17 16 17 15 15 17 16 13 16 16 15 14 14 16
3 3 4 4 3 4 5 5 6 5 5 5 2 2 3 3 3 4 9 9 12 15 14 10 8 12 11 9 10 12 15 19 13 16 11 9 10 12 15 16 16 14 13 13 13 13 12 11 13 13 12 13 13 14
1 4 3 2 3 1 3 4 4 5 4 8 4 5 2 2 3 2 6 14 14 9 9 7 8 10 10 9 8 11 13 14 14 12 7 9 8 7 10 10 10 9 8 14 9 8 8 7 7 8 10 12 12 12
3 4 4 3 2 3 1 2 2 2 5 2 3 2 5 6 6 2 7 6 9 8 9 6 7 6 8 8 10 12 13 16 20 24 15 11 12 11 8 9 8 8 12 13 5 9 10 8 9 10 10 12 12 10
5 10 5 8 4 2 2 4 6 7 7 9 9 10 8 7 4 1 3 2 3 6 8 10 6 7 7 7 8 9 12 15 20 22 12 8 8 6 7 9 8 6 9 13 10 10 11 10 10 9 10 11 11 12
2 18 6 5 2 9 11 11 9 9 9 9 9 12 8 7 5 4 2 4 4 7 7 7 5 6 4 5 5 8 8 11 16 18 17 9 6 3 9 11 6 5 7 10 11 12 9 8 8 9 10 10 11 12
8 4 2 3 4 15 17 17 14 14 14 10 8 6 6 4 3 5 1 5 8 7 4 3 6 5 5 7 11 7 7 9 11 13 15 14 13 13 12 13 7 7 9 9 10 8 7 8 8 9 10 11 12 11
3 3 5 9 6 9 12 11 11 8 8 6 5 8 7 3 2 4 3 5 7 4 3 3 6 7 8 10 9 6 7 7 9 10 11 14 12 14 11 10 13 9 8 7 6 8 8 9 9 9 9 10 11 12

GFSWCAN_850_spd_021.txt.gz
Wind_Speed
18 20 21 22 24 25 26 26 26 27 26 26 25 22 19 16 15 15 17 12 15 14 26 27 29 21 17 12 6 6 9 2 2 2 4 4 4 5 5 6 5 12 10 8 6 7 9 18 14 7 12 23 2 19
17 18 20 22 24 26 27 27 29 30 30 30 28 24 20 18 16 15 19 13 15 17 25 28 33 35 34 35 22 12 9 5 3 2 1 3 3 3 3 4 7 8 7 10 8 8 4 4 9 22 19 9 12 12
18 18 20 22 24 27 29 30 31 31 31 32 30 26 21 19 17 16 21 19 17 18 26 19 22 17 13 18 27 14 14 15 11 15 3 3 5 4 3 8 12 7 11 8 6 4 4 15 22 20 16 15 18 17
19 21 23 25 26 28 31 33 33 32 33 34 31 26 21 17 16 18 22 20 18 11 6 13 18 24 19 19 23 31 34 10 16 15 7 3 3 5 4 8 10 7 12 14 5 2 5 12 12 13 11 19 30 29
20 23 26 28 30 32 34 36 36 34 36 36 32 25 21 17 14 17 21 24 21 15 5 15 32 1 1 9 13 20 33 33 16 5 4 4 4 5 4 6 8 5 11 10 7 7 7 7 12 8 9 22 27 30
23 25 28 31 34 35 36 38 37 38 40 36 29 23 19 14 11 14 7 4 9 13 5 4 10 7 9 11 19 23 27 27 17 8 4 7 12 7 3 4 3 11 17 7 6 16 32 22 10 7 23 32 32 32
25 28 30 33 35 36 37 38 38 42 40 34 28 18 13 10 11 11 7 8 11 10 3 4 5 6 16 8 1 3 17 14 15 6 7 11 10 10 3 3 7 26 16 15 29 33 19 21 4 20 24 29 34 36
29 30 32 34 35 36 37 38 38 43 39 35 21 17 13 13 15 17 16 18 23 8 5 3 4 8 10 6 4 7 3 9 8 5 5 3 8 4 5 8 20 12 27 17 17 29 38 27 22 22 22 26 32 35
30 31 32 33 35 36 36 37 40 40 40 32 19 13 4 3 5 8 13 8 7 8 3 3 2 2 6 5 4 6 5 3 8 2 2 5 3 3 11 15 13 7 15 23 24 28 29 27 25 20 23 25 28 26
31 31 31 32 33 35 34 35 40 38 41 25 10 5 3 5 18 11 2 2 5 5 5 3 3 3 4 3 3 1 4 2 2 3 3 2 3 17 22 22 19 22 19 21 26 23 31 22 22 23 19 23 26 26
31 31 30 30 31 32 29 33 35 37 40 25 12 5 15 15 6 2 3 4 3 2 4 5 10 4 5 3 1 4 1 1 2 2 1 4 6 8 25 22 22 23 26 28 31 29 20 21 21 18 18 18 20 23
30 28 27 27 27 24 28 27 29 34 31 21 12 13 8 5 3 3 2 1 2 3 4 4 6 6 3 4 1 2 0 1 2 3 3 4 6 22 23 15 18 16 19 22 25 27 26 26 23 20 19 15 13 14
27 25 23 22 20 22 21 22 27 30 24 10 7 7 6 5 5 5 5 3 3 3 5 5 3 2 2 2 2 1 3 4 2 4 3 3 18 26 31 30 24 26 23 21 25 22 22 20 23 22 21 17 16 19
24 21 18 15 17 14 16 23 27 28 11 8 9 8 5 5 5 4 10 7 18 13 12 5 1 3 4 2 3 4 3 4 4 4 5 6 21 24 28 26 27 31 33 31 31 30 30 27 28 26 25 25 26 24
21 15 14 16 11 12 16 20 20 21 9 6 7 6 5 14 20 23 20 21 32 18 8 3 4 6 4 4 4 4 5 5 6 4 4 16 22 30 31 31 33 37 40 41 40 37 35 31 32 33 29 27 24 25
18 13 18 13 11 13 14 15 17 13 7 7 11 7 21 14 22 35 29 31 39 26 5 9 4 5 7 4 7 7 4 5 4 4 16 24 28 34 28 35 38 39 38 39 40 38 36 37 36 34 31 32 30 28
14 15 15 11 12 17 16 16 10 11 9 7 8 24 21 18 17 23 29 31 29 28 6 5 7 6 3 5 6 5 3 4 12 18 24 21 24 25 26 33 33 33 33 33 34 33 31 29 26 27 28 26 27 30
13 14 15 9 8 14 21 20 8 9 8 11 8 23 25 28 25 26 30 38 22 21 13 6 9 7 5 5 4 6 9 15 16 21 21 19 17 19 22 27 30 31 30 29 28 30 29 28 27 26 24 21 20 19
11 12 11 9 10 9 5 10 10 6 7 9 22 27 27 28 32 32 34 35 35 28 13 6 6 4 4 7 10 20 22 16 13 22 27 22 16 20 23 27 27 27 27 27 27 28 27 26 25 23 23 20 21 21
7 10 10 13 10 5 4 5 6 5 4 10 15 22 28 27 28 30 32 31 25 23 17 6 5 10 11 21 27 27 24 22 19 21 24 24 24 25 25 25 26 25 25 24 26 25 24 21 21 21 20 18 18 18
3 4 7 9 7 8 4 3 4 4 4 3 2 10 9 18 28 29 30 26 20 17 12 19 22 27 27 28 28 27 23 20 22 20 19 24 25 26 26 25 24 26 27 26 26 27 26 26 19 17 18 20 18 18
1 2 3 6 5 5 2 4 3 4 4 4 5 5 3 6 7 10 15 17 14 12 20 18 19 20 22 25 25 26 22 14 18 19 18 17 19 20 21 20 20 22 22 21 20 19 18 17 15 13 11 11 13 14
2 2 3 4 3 3 2 2 3 5 2 3 5 3 3 4 5 8 5 10 11 21 24 15 13 14 16 18 19 22 21 12 15 16 16 16 15 15 15 17 16 17 18 19 19 19 19 15 11 11 9 9 12 15
3 3 3 3 5 4 5 1 3 5 4 2 2 1 2 3 4 4 2 6 15 20 22 10 9 9 14 16 18 17 16 14 9 9 10 11 14 15 14 14 15 16 17 16 18 18 16 16 14 15 16 16 17 17
2 4 4 4 4 4 5 7 5 3 2 2 2 1 1 2 2 2 1 8 14 17 16 4 10 9 10 13 15 14 12 11 10 6 7 6 7 8 11 11 13 14 14 15 17 13 14 13 14 14 15 15 15 15
4 3 2 3 3 3 3 3 3 3 1 2 2 3 2 3 3 2 3 9 9 12 11 4 5 4 5 8 11 12 8 6 6 8 10 8 7 8 9 10 10 10 9 10 11 11 10 10 10 11 12 12 13 12
2 0 1 2 2 3 3 2 1 4 4 5 2 2 2 2 1 2 6 11 14 6 5 5 6 5 5 5 6 9 10 9 11 5 2 3 6 8 8 9 10 9 8 6 6 6 6 7 8 9 10 10 11 10
1 1 2 2 3 2 1 2 2 1 1 2 2 2 3 5 4 2 4 6 8 3 2 4 4 3 3 3 4 6 8 11 13 10 5 0 3 5 6 6 7 10 8 6 6 5 5 6 7 8 9 10 8 8
3 4 2 2 3 2 1 2 1 1 0 2 5 3 4 5 7 5 1 4 0 3 4 3 3 5 5 4 4 6 9 13 19 17 6 5 7 8 8 8 8 8 6 4 9 8 8 6 5 6 7 8 8 9
5 10 5 3 2 3 4 5 8 7 5 5 4 5 5 7 8 6 8 7 6 7 5 4 5 7 9 7 9 9 9 13 19 18 11 7 7 9 12 11 8 5 3 4 7 5 2 4 5 6 7 8 10 11
4 10 6 6 5 8 11 11 9 8 8 7 6 5 6 6 9 8 7 6 6 6 6 7 8 9 7 8 10 10 6 8 14 16 15 12 10 10 13 11 7 7 7 4 4 4 4 6 7 8 10 10 10 11
7 9 7 5 5 7 12 13 10 11 11 11 10 10 9 7 7 8 10 6 8 9 8 7 7 8 7 8 10 4 3 6 8 10 11 11 11 12 11 12 8 8 7 7 6 6 7 9 10 10 9 9 10 10
3 4 3 5 5 7 8 10 8 5 10 11 12 16 13 7 5 8 9 9 10 11 7 5 6 6 6 10 10 1 1 3 5 6 6 8 9 10 8 8 9 11 10 6 7 8 9 9 9 8 8 10 11 12

GFSWCAN_850_spd_024.txt.gz
Wind_Speed
21 21 22 22 24 25 27 28 28 29 30 30 28 27 26 20 18 18 21 15 15 13 26 27 24 20 18 11 4 4 7 2 1 3 3 3 4 4 4 6 5 7 8 6 8 6 15 1 1 2 5 18 23 21
24 23 23 24 26 28 30 32 33 33 33 31 28 28 28 21 18 17 23 20 13 19 24 33 37 38 34 34 19 10 8 3 4 2 3 2 3 2 4 5 6 8 8 4 9 7 8 6 7 7 7 15 17 17
24 26 25 27 29 31 33 35 36 35 35 32 30 30 29 23 18 17 23 20 18 16 27 19 16 13 12 22 32 15 14 15 11 14 2 3 6 2 3 4 4 6 8 8 8 11 10 6 6 3 6 12 14 5
24 26 29 30 32 34 36 38 38 38 37 34 34 32 27 21 18 17 21 22 19 8 5 12 13 20 17 15 23 34 34 11 15 12 7 4 3 7 3 5 7 9 9 9 10 26 12 9 7 5 7 3 6 13
26 27 30 32 34 37 38 39 39 39 37 39 36 31 25 19 17 16 21 24 24 16 5 15 31 1 5 6 20 23 31 32 12 4 5 4 4 5 4 6 11 10 14 8 8 14 8 5 9 12 15 9 8 14
29 31 32 34 35 36 38 39 40 39 38 39 37 32 21 14 10 13 6 4 7 18 4 4 7 6 8 9 13 22 27 24 17 7 5 7 14 8 4 5 10 14 15 17 7 26 23 16 14 17 21 15 14 15
32 32 32 34 35 35 37 39 40 38 41 37 37 26 13 10 10 10 6 6 6 11 3 4 5 4 11 8 2 5 17 12 12 7 6 10 11 10 3 11 18 26 21 21 23 22 11 16 11 21 27 22 16 15
32 33 33 34 35 36 36 38 38 39 37 37 31 20 14 6 8 12 16 21 11 10 3 3 4 7 6 5 1 3 9 11 11 6 7 3 5 5 5 13 28 34 32 25 24 24 13 25 23 23 26 25 20 19
32 32 32 32 34 35 34 35 34 35 38 35 21 10 6 5 2 5 3 2 12 7 1 2 2 3 7 4 3 2 4 3 5 2 3 4 2 4 14 23 21 25 13 20 25 22 21 29 34 30 32 23 19 22
31 31 31 30 30 33 31 29 32 37 39 24 10 5 4 8 11 3 3 1 5 4 3 3 3 3 5 4 1 3 1 2 2 3 5 2 3 23 24 27 31 32 15 34 32 17 21 29 36 38 28 16 16 22
30 29 28 27 27 27 25 27 32 38 31 19 11 4 10 9 3 1 1 1 1 2 4 5 7 4 4 2 2 3 2 2 2 2 4 4 5 11 27 30 32 32 33 31 31 26 32 32 30 30 24 25 27 28
28 26 25 24 23 21 20 26 32 33 25 14 11 8 8 5 3 2 2 2 2 2 3 4 5 7 5 4 3 3 2 1 4 8 4 6 8 30 37 35 30 30 26 25 28 31 32 32 27 22 20 21 22 21
24 22 20 19 20 17 21 27 30 32 22 10 9 5 5 7 6 5 7 3 5 2 4 5 3 3 3 2 3 2 5 5 4 4 5 4 22 34 39 45 40 34 40 36 35 32 29 31 31 30 27 31 32 27
23 18 16 17 15 18 21 23 25 26 10 7 8 7 6 6 6 4 7 7 15 17 14 3 3 4 5 4 3 5 4 3 5 5 8 10 27 28 31 36 46 43 38 37 38 36 33 33 36 34 31 33 31 31
19 13 15 13 16 18 17 17 17 20 11 9 10 7 5 11 16 16 17 15 22 15 7 1 4 5 3 4 4 4 5 6 5 5 8 17 26 31 32 35 33 41 42 40 35 34 31 31 32 35 30 29 30 29
15 12 14 13 16 17 13 16 16 12 7 8 10 7 20 12 22 29 30 29 33 23 4 7 4 4 6 4 5 7 4 6 5 6 14 20 20 22 25 31 33 33 30 29 29 30 30 31 32 33 28 29 28 27
12 14 12 11 15 16 14 11 11 11 10 7 7 22 17 16 14 20 26 30 27 29 4 5 6 7 4 5 7 6 6 6 13 17 20 19 20 24 28 29 30 30 31 30 30 31 29 26 25 26 29 29 29 29
12 10 10 10 6 14 22 18 8 7 6 10 6 19 22 30 29 27 34 39 21 15 9 5 7 8 6 7 5 7 9 14 21 22 22 21 20 22 24 27 26 26 26 26 27 28 28 28 29 28 26 24 24 25
10 10 11 10 9 9 4 7 7 5 6 8 20 23 27 27 32 33 32 32 30 22 8 7 6 3 2 4 8 18 18 13 15 21 20 18 18 20 23 25 26 25 26 25 24 25 24 23 23 21 20 19 20 21
7 9 10 12 9 3 2 3 3 5 2 4 10 17 24 27 30 31 32 30 22 18 14 5 3 5 6 14 15 17 18 14 12 19 21 21 22 23 25 24 25 25 25 24 23 20 19 18 17 15 13 13 13 17
5 5 6 8 6 6 3 2 3 3 4 2 0 3 2 8 17 26 27 24 16 8 7 10 16 16 19 22 25 19 16 15 16 15 15 17 17 18 17 17 15 14 16 19 19 18 17 15 11 9 10 14 16 16
4 5 4 4 4 3 3 3 3 4 2 1 2 5 2 3 5 7 12 16 8 8 6 9 13 14 16 17 17 20 15 12 11 11 11 11 14 15 16 17 18 19 19 18 17 16 13 9 6 4 9 14 14 16
3 2 2 4 2 3 2 1 0 2 2 3 3 3 3 3 4 5 4 8 7 13 6 7 7 10 11 11 11 11 12 13 13 10 10 10 11 12 13 15 17 19 20 19 18 15 13 10 8 10 13 14 15 16
2 2 3 3 5 2 3 1 1 3 2 2 2 2 3 4 3 4 2 5 11 12 7 4 2 6 9 10 12 11 10 11 12 11 6 7 8 9 9 10 12 14 17 15 15 15 15 15 14 13 13 13 13 13
1 3 3 3 4 4 4 4 3 1 1 1 2 1 1 2 2 2 1 4 8 13 12 8 10 8 6 8 9 9 9 10 12 11 5 6 6 4 4 5 5 7 9 10 11 10 11 12 12 12 12 11 11 10
4 3 1 2 2 2 2 2 3 2 1 2 1 1 1 3 2 1 3 6 9 13 13 11 10 10 7 7 9 10 9 9 12 12 6 5 5 4 4 4 6 7 5 5 5 7 7 8 9 10 10 9 9 9
2 1 1 2 2 2 2 1 1 1 2 1 0 1 2 1 2 3 3 6 10 11 11 11 9 8 10 9 7 7 8 12 12 8 3 3 5 6 7 9 10 9 8 4 3 3 3 4 6 7 9 9 6 8
1 3 2 1 1 1 1 1 1 2 2 2 2 2 3 4 4 3 4 8 10 10 9 8 10 9 9 7 6 7 9 12 15 8 4 2 4 5 7 9 9 6 6 7 7 6 6 7 6 6 7 7 6 7
3 4 4 2 2 3 3 5 4 3 3 5 4 3 4 5 6 6 7 8 10 11 8 9 11 10 10 8 7 7 9 12 16 14 8 8 9 11 13 12 8 4 1 3 4 6 5 4 5 6 7 7 8 10
4 8 4 3 4 4 4 5 5 6 6 6 4 3 5 7 8 10 10 11 11 11 8 7 9 10 11 9 9 9 6 8 12 15 12 9 9 12 14 13 12 8 3 3 4 3 3 6 6 7 9 9 9 9
3 8 4 5 5 5 10 12 10 10 8 7 8 8 7 5 8 12 14 13 9 9 8 8 7 8 10 9 10 10 6 4 7 10 9 9 10 10 12 11 9 8 6 5 3 4 6 8 9 8 7 7 8 8
6 9 6 3 3 4 6 10 8 8 8 12 12 11 9 6 4 8 11 14 12 9 8 6 6 8 10 8 10 8 5 3 4 6 7 7 8 10 8 8 11 12 8 5 4 5 7 8 8 7 7 7 9 9
4 4 5 3 2 3 6 7 6 4 5 5 7 15 16 7 4 5 5 7 11 9 7 5 6 7 7 8 10 6 5 4 3 5 6 8 9 11 10 6 8 9 10 7 8 8 7 7 7 8 10 10 9 8

GFSWCAN_850_spd_027.txt.gz
Wind_Speed
23 24 25 23 27 28 29 31 32 34 34 33 32 31 28 24 21 17 21 19 14 11 22 23 22 19 17 11 6 5 8 3 3 4 3 4 4 4 5 9 6 9 7 7 11 12 21 10 16 18 6 9 14 18
23 25 27 27 29 31 32 33 35 36 35 35 34 30 28 27 22 16 21 20 17 18 23 32 30 31 30 30 22 11 10 2 2 2 1 2 4 3 5 5 9 11 14 8 10 10 13 15 18 21 15 17 17 19
24 26 28 30 32 33 35 36 36 36 36 36 33 31 31 25 19 15 19 19 16 16 25 19 13 8 12 18 26 15 9 13 11 10 3 3 7 3 5 9 12 9 14 12 17 23 24 33 38 28 23 21 19 18
27 29 31 33 34 35 36 36 36 36 36 35 32 36 29 20 15 14 15 18 17 7 4 11 10 23 18 14 18 28 27 8 10 12 7 4 3 9 5 10 11 11 6 9 17 20 24 34 39 30 28 21 13 13
30 32 33 33 34 36 35 36 36 36 36 33 36 35 24 13 11 13 14 16 17 14 4 13 33 6 7 4 17 21 26 28 21 5 4 4 5 6 6 7 14 18 19 12 12 17 18 25 26 26 24 22 10 8
32 33 34 35 36 35 35 35 35 35 35 36 36 33 16 4 7 7 3 1 2 13 3 3 7 9 6 8 8 16 23 21 15 6 6 9 19 6 4 6 15 23 27 33 22 30 34 27 24 19 22 15 10 9
33 33 34 34 35 35 33 32 33 33 34 36 36 21 8 2 5 2 2 7 6 5 3 4 5 5 10 10 2 6 15 12 13 7 7 9 11 11 4 15 32 27 29 33 29 25 30 28 20 15 14 11 12 9
33 33 32 32 33 33 30 30 31 31 35 32 21 10 8 6 2 4 9 13 9 5 2 3 4 6 5 4 3 8 8 10 9 6 5 3 5 6 6 19 38 39 32 34 33 35 26 21 17 17 19 16 14 14
32 32 31 30 30 28 27 27 29 34 33 19 10 6 5 7 5 6 5 4 7 3 1 2 3 4 7 5 4 3 6 3 6 3 3 4 2 4 16 27 35 14 19 17 24 26 20 22 18 18 20 18 21 23
31 30 29 27 25 25 25 27 32 33 25 11 6 4 5 6 4 4 4 1 3 2 2 3 4 3 4 4 2 1 2 2 2 2 6 2 3 25 36 32 28 15 9 20 21 9 9 10 16 29 27 17 24 26
29 28 25 22 21 22 24 29 30 32 16 7 4 4 6 4 3 2 1 1 2 2 4 5 6 4 3 2 3 1 3 3 3 3 6 4 10 21 42 45 52 38 36 31 21 11 29 21 29 36 30 29 28 28
28 25 21 21 20 21 24 26 30 29 13 10 7 8 9 7 4 3 3 0 1 2 3 4 4 6 6 3 3 2 3 2 5 10 5 5 12 40 44 51 53 48 42 38 38 33 30 32 32 33 29 25 28 29
25 18 18 19 20 21 22 24 28 25 17 13 8 6 8 10 7 6 8 4 5 9 5 10 4 4 4 3 4 2 6 4 7 5 4 7 27 35 35 42 52 56 57 53 44 43 39 39 37 36 33 30 32 35
19 14 16 19 19 18 19 20 25 22 10 6 6 6 5 5 5 3 8 7 11 14 22 12 4 4 4 4 4 6 5 3 5 5 6 8 25 27 29 30 37 37 42 45 46 43 42 43 38 37 35 34 32 35
14 12 15 18 18 16 14 14 17 20 8 7 8 5 5 9 12 14 14 11 14 10 9 5 4 5 4 4 4 5 5 5 5 4 4 21 21 25 29 32 33 33 34 37 35 35 40 38 35 34 32 31 33 31
11 8 12 15 17 13 11 11 13 11 8 8 10 6 14 8 18 22 24 22 21 9 4 7 5 5 7 4 6 8 4 5 4 5 14 14 22 26 30 32 34 35 35 34 34 36 37 35 35 35 35 34 33 32
11 9 9 9 13 17 12 9 9 9 8 6 6 14 10 9 11 19 21 24 21 16 4 5 7 6 5 6 8 6 5 4 9 11 11 14 19 23 26 27 29 29 31 32 32 33 33 33 32 35 36 33 30 28
12 10 10 7 8 8 16 19 7 8 6 6 6 12 15 16 18 18 23 31 16 9 9 5 6 8 5 6 4 5 7 8 8 10 12 14 19 22 24 26 26 27 27 26 26 26 26 26 28 26 24 24 23 24
10 11 11 10 8 8 5 7 7 5 4 3 9 14 15 17 24 23 23 26 26 20 7 6 6 5 4 4 8 15 13 7 6 7 10 14 19 22 25 25 24 23 22 23 23 23 22 21 20 19 19 17 19 20
7 8 10 12 11 4 3 4 4 4 3 3 2 4 7 16 18 19 22 23 18 12 11 5 5 3 5 7 10 12 14 10 4 6 10 11 13 15 16 14 16 17 17 17 16 15 14 13 13 13 13 14 16 18
4 5 8 10 6 6 3 3 3 3 3 2 4 4 2 4 9 17 18 15 13 7 6 4 5 7 10 13 15 15 14 15 13 9 6 8 11 13 15 15 16 17 18 17 15 13 11 9 8 9 11 14 16 17
4 4 4 4 3 2 3 3 2 2 0 1 2 4 2 2 3 4 9 11 5 4 2 3 5 6 7 9 13 15 13 13 11 8 7 6 8 10 12 14 15 16 16 16 14 13 12 10 9 10 13 14 14 15
2 2 2 3 2 2 1 1 1 1 1 3 2 1 2 2 2 3 3 4 4 8 3 3 3 4 5 6 9 10 11 14 14 11 7 7 7 7 7 9 11 12 13 14 13 12 11 12 12 13 13 12 12 12
2 2 2 2 4 1 1 2 2 1 1 1 1 1 1 2 2 2 1 3 5 10 9 7 5 6 5 5 8 10 12 12 12 12 9 6 6 6 8 7 6 8 10 8 8 10 9 9 10 9 10 10 11 10
1 3 2 3 3 2 2 1 1 0 1 0 1 1 2 2 1 1 1 2 7 9 11 12 10 9 7 5 5 6 9 11 12 11 13 9 8 7 6 6 7 7 5 5 4 5 6 6 7 7 8 8 8 8
4 3 2 1 1 1 1 1 2 1 1 1 1 0 1 1 1 2 1 1 5 8 9 11 12 11 9 7 5 4 7 10 13 9 10 8 7 6 6 8 8 6 7 5 3 1 3 4 6 7 7 7 6 7
2 1 1 0 0 1 0 1 2 2 2 2 2 2 1 1 1 2 2 2 4 7 10 9 9 9 8 8 6 6 8 12 13 9 3 2 3 4 5 7 7 7 7 4 2 0 2 4 6 6 6 5 5 7
1 4 2 3 2 2 1 1 2 2 3 3 3 3 2 3 3 4 4 2 4 8 8 7 6 8 8 7 6 7 9 12 14 8 3 3 5 7 9 7 5 3 3 3 3 3 4 4 4 4 5 5 5 7
3 4 4 2 3 4 5 5 3 4 5 7 4 3 4 5 6 7 8 8 7 8 8 7 6 8 7 6 6 7 8 8 10 9 7 6 7 9 13 11 9 4 2 2 5 5 2 2 3 4 4 5 6 6
3 7 3 2 3 4 5 8 5 8 9 9 5 5 5 7 8 8 9 11 10 8 6 6 6 6 7 7 6 8 6 5 8 8 7 7 8 9 12 11 10 8 5 3 3 1 2 3 5 6 5 5 5 5
3 7 4 5 5 5 7 11 10 8 9 8 10 11 9 7 9 9 10 14 14 10 5 4 3 4 6 7 7 8 5 3 4 7 8 8 10 12 11 11 12 10 5 3 2 3 4 5 6 5 5 5 6 6
4 7 4 3 3 5 4 3 3 5 5 7 8 11 10 7 5 5 6 6 8 7 4 4 2 2 6 8 9 10 6 4 3 5 7 9 11 13 14 11 10 9 6 5 5 5 5 5 5 5 6 7 7 7
4 5 4 3 2 2 4 5 3 3 3 3 3 4 7 5 3 3 3 3 4 5 3 2 2 3 7 7 10 10 6 4 5 5 8 11 12 12 13 11 8 8 6 6 6 6 5 5 6 7 8 9 8 8

GFSWCAN_850_spd_030.txt.gz
Wind_Speed
24 25 26 26 27 29 30 31 32 32 32 31 30 29 26 24 23 16 20 18 21 9 19 19 17 18 16 14 8 6 8 6 4 3 4 5 7 6 10 13 11 10 12 13 15 18 23 12 12 13 12 15 14 16
25 27 28 30 31 32 32 33 32 33 32 31 31 30 26 29 20 14 19 20 18 21 14 20 24 24 25 25 21 7 8 7 3 3 3 3 4 3 8 10 10 15 13 12 12 13 13 13 16 18 16 22 21 22
28 29 30 31 32 34 33 33 33 33 32 31 30 28 30 27 17 11 16 17 18 15 21 17 7 8 11 18 21 17 11 15 12 12 5 3 6 8 8 10 15 18 18 14 19 23 25 24 23 29 23 27 26 26
29 30 31 32 33 33 33 32 32 31 31 30 28 31 31 20 13 10 11 12 14 5 4 6 5 9 16 14 18 24 24 8 12 8 7 3 5 9 8 13 14 13 13 18 20 23 26 30 33 34 29 28 33 32
30 31 32 33 34 33 31 30 29 29 29 28 31 34 18 9 7 6 5 7 8 9 4 12 26 4 5 5 15 19 23 24 18 4 4 4 6 9 14 15 19 21 24 18 18 22 20 23 27 32 32 28 29 26
31 32 33 33 32 30 29 28 26 26 26 31 34 17 5 3 4 3 3 3 6 2 4 3 6 6 5 4 8 16 19 19 14 6 5 7 17 7 4 10 22 33 37 38 26 34 32 27 24 27 29 27 28 26
32 33 32 31 29 27 26 25 23 25 30 31 17 7 8 5 3 3 2 5 7 1 2 4 5 1 6 10 8 9 15 11 11 5 6 6 7 9 4 15 35 41 41 41 37 32 30 29 28 24 28 26 25 24
31 31 30 27 25 24 22 22 25 28 27 19 8 9 12 6 6 7 6 5 0 1 1 3 4 4 2 5 3 7 4 7 6 5 5 3 3 5 5 18 39 47 44 45 42 37 35 31 24 24 23 24 20 20
29 29 27 24 22 21 21 24 26 25 20 7 5 4 5 5 4 4 5 6 2 2 3 2 3 3 8 5 3 3 5 2 3 3 3 2 2 3 17 32 24 21 5 27 32 31 28 30 30 27 20 20 21 24
28 26 23 21 21 22 25 26 25 24 11 6 5 3 3 4 2 3 5 4 3 3 2 2 3 3 4 3 3 2 2 1 2 3 4 1 3 27 45 46 44 23 13 12 20 23 23 24 24 23 16 19 23 24
26 21 19 19 22 23 25 25 26 17 7 3 2 3 2 3 3 3 3 4 4 3 3 4 4 4 3 3 3 2 1 1 3 6 7 7 9 27 52 50 47 41 38 37 10 11 7 4 3 12 12 24 17 14
22 17 18 21 21 22 24 27 24 11 8 7 6 7 5 6 5 4 5 3 2 3 5 4 5 5 5 3 3 2 3 3 6 11 6 7 14 38 42 48 54 57 55 50 49 41 35 44 38 40 41 36 29 26
17 14 17 19 20 22 25 24 21 12 12 11 7 5 7 9 6 6 6 4 6 10 7 18 8 6 3 4 3 5 7 5 4 5 4 10 29 35 36 38 43 49 50 47 50 51 53 52 48 48 47 43 37 38
13 12 16 18 20 20 23 24 26 15 11 7 6 6 5 5 3 3 9 9 13 17 21 14 9 6 5 4 4 5 4 5 6 5 7 11 29 32 33 32 34 36 36 41 45 41 43 42 42 43 41 38 38 37
10 9 13 19 19 15 16 18 19 18 7 6 7 6 6 9 8 11 12 12 13 14 12 9 4 11 7 4 5 5 5 5 5 5 8 22 25 25 29 29 30 31 30 33 31 32 34 36 36 37 34 32 30 30
10 6 10 11 16 17 11 12 11 9 7 7 9 6 12 12 17 19 18 18 18 11 4 6 6 5 8 4 7 7 5 5 5 8 16 18 21 22 23 26 28 28 29 29 31 31 31 30 27 27 30 30 29 30
12 10 10 7 9 11 13 6 7 8 7 6 8 14 12 12 16 20 22 22 16 16 4 5 6 5 4 5 5 3 4 4 13 12 13 14 15 18 21 25 26 26 27 26 25 25 24 24 23 25 27 25 26 26
11 12 12 9 8 5 15 10 5 6 6 6 8 13 15 16 18 19 19 22 13 13 14 5 6 10 4 5 5 7 12 11 7 8 8 10 12 15 18 20 21 22 23 23 22 21 21 20 21 20 19 17 18 18
7 8 11 13 7 5 3 5 5 3 3 3 4 9 13 15 17 17 19 17 16 13 6 6 5 5 7 9 11 13 14 13 10 7 6 9 13 16 16 16 18 19 19 19 19 17 16 18 17 16 14 15 18 17
6 4 8 11 10 3 3 3 3 2 1 3 2 5 6 11 14 15 18 19 18 15 9 5 8 9 10 11 12 11 12 12 10 6 5 9 11 11 14 16 17 16 16 16 14 15 12 12 13 14 15 15 14 14
5 4 6 5 4 4 3 1 2 2 1 2 3 4 3 4 8 12 14 14 16 16 11 10 9 8 6 7 10 10 10 11 11 9 10 9 9 9 12 14 15 16 16 15 14 13 13 12 11 11 11 12 11 11
4 3 3 3 2 2 2 2 2 0 2 3 3 4 3 5 6 6 6 9 9 8 6 5 5 6 6 6 9 10 10 10 9 8 8 8 8 10 11 13 14 14 14 14 13 12 11 11 10 10 10 10 11 12
2 2 2 2 0 1 1 1 1 1 2 2 2 2 1 2 4 1 2 4 5 6 4 4 3 3 3 4 6 9 12 12 11 11 10 9 7 7 9 9 10 11 11 11 10 9 9 10 10 10 10 10 10 10
2 2 1 1 2 1 1 1 0 1 1 1 2 2 2 3 1 1 2 3 3 3 5 5 5 6 5 3 7 9 11 12 12 11 11 10 9 9 9 8 8 7 7 7 7 7 7 8 8 9 9 10 10 10
1 2 2 2 1 1 1 1 2 2 2 1 2 1 1 1 2 0 2 2 2 4 4 6 6 6 8 8 7 7 8 11 13 12 10 10 9 8 7 7 7 7 7 7 6 6 6 6 7 8 8 9 8 8
2 0 0 1 1 2 2 2 2 2 3 2 1 0 1 2 2 1 1 2 2 2 5 6 8 10 7 6 7 7 8 10 11 10 9 7 7 8 8 9 8 7 10 7 6 6 6 8 9 10 9 7 9 9
1 2 2 2 2 2 3 3 3 4 3 2 2 2 2 3 2 2 3 2 1 2 4 3 4 6 6 4 3 4 5 8 8 6 4 5 6 7 8 9 9 9 7 7 5 5 6 8 8 8 7 7 8 8
2 3 3 4 4 4 3 3 2 3 3 2 2 3 2 2 2 2 2 4 4 4 4 4 2 1 2 2 2 3 5 6 7 7 6 5 6 8 9 8 8 6 4 4 4 6 7 6 7 8 8 8 9 9
3 4 4 6 5 5 4 4 4 3 4 5 5 4 3 3 2 2 2 5 6 4 3 4 3 1 1 1 1 3 4 5 6 6 6 5 5 8 9 9 8 7 4 4 8 6 4 4 5 7 8 8 7 7
3 6 4 4 3 3 3 6 6 4 5 7 6 5 5 4 3 4 4 3 7 7 5 4 4 2 3 4 5 5 5 3 3 5 6 6 6 7 8 8 8 7 6 5 4 5 7 6 8 8 8 6 6 6
2 4 4 6 5 6 5 6 7 8 6 6 7 9 7 5 6 6 7 9 7 3 3 2 1 1 2 5 6 6 6 4 3 2 3 4 6 8 8 7 7 7 6 5 5 5 6 6 6 6 6 6 7 7
4 5 4 4 6 4 5 4 4 4 4 4 4 3 3 2 2 1 2 4 1 2 4 2 1 1 2 4 5 6 4 1 3 2 3 5 7 9 9 8 5 5 5 5 5 5 5 5 4 5 6 7 8 7
5 6 6 6 3 3 3 3 3 3 4 3 2 1 2 3 3 1 2 2 2 1 1 1 2 2 2 4 5 6 5 1 4 4 5 7 9 10 7 7 5 5 5 5 5 5 5 5 5 6 7 7 8 8

GFSWCAN_850_spd_033.txt.gz
Wind_Speed
24 26 28 29 31 32 32 31 31 30 30 29 28 28 27 23 16 17 20 17 17 11 24 26 25 20 15 13 7 10 11 9 8 3 5 4 8 3 11 14 11 11 15 14 15 18 21 12 6 6 8 9 15 16
26 28 29 30 31 32 32 31 31 30 29 28 27 27 25 21 18 13 18 16 14 22 13 15 20 26 25 21 15 6 13 16 3 3 3 5 7 4 11 11 15 14 13 10 15 12 9 11 12 17 4 6 11 12
27 27 29 31 32 31 31 31 30 28 27 27 27 26 24 21 15 11 14 13 14 16 22 23 8 5 12 14 14 9 10 12 14 14 8 3 5 10 9 10 15 14 15 15 18 18 18 21 21 19 17 14 19 18
26 28 31 32 32 31 31 29 26 25 26 27 27 28 25 16 9 7 10 9 12 3 4 6 7 7 8 11 14 19 20 15 10 10 6 4 5 11 9 15 15 14 18 17 21 23 25 26 28 28 29 30 28 26
28 30 31 32 31 29 27 25 23 23 24 27 29 22 12 6 3 1 4 3 4 7 4 11 12 3 3 6 10 15 17 19 14 3 4 3 5 6 12 15 17 22 21 16 17 22 24 26 27 28 30 32 34 31
29 30 31 31 29 25 22 21 20 23 26 28 18 7 9 6 4 1 0 2 3 3 4 3 7 2 2 4 4 9 14 12 11 5 4 6 11 4 4 6 24 32 35 39 28 38 38 32 30 26 27 27 27 28
29 30 30 28 25 20 19 20 23 26 27 20 4 7 8 7 7 0 2 3 6 2 1 5 6 3 5 8 6 7 10 6 5 2 5 5 6 9 3 14 35 39 42 48 50 43 38 31 28 27 28 25 24 30
28 29 26 21 19 18 20 23 23 24 22 5 7 8 10 8 6 6 7 4 3 3 3 2 4 7 10 5 1 2 1 2 3 4 4 4 3 3 4 20 48 43 31 33 49 50 43 33 28 25 28 25 29 30
27 24 18 17 19 22 23 23 22 19 6 5 6 3 4 5 3 3 6 8 6 5 2 2 3 4 9 3 2 3 2 1 2 2 2 2 3 2 14 32 34 32 20 18 4 30 29 29 31 27 26 27 30 30
23 17 15 19 22 23 22 21 21 12 7 10 4 1 2 4 4 4 6 4 5 3 2 1 3 3 3 3 3 2 3 1 2 3 2 2 3 29 42 46 47 37 16 13 13 13 16 18 24 27 29 28 30 28
18 13 16 20 22 21 20 24 17 10 9 6 1 4 2 3 4 1 5 6 6 4 1 2 5 4 3 2 3 1 0 2 2 4 4 7 9 26 45 51 57 55 52 43 36 13 11 10 16 23 22 13 10 19
14 11 16 19 19 19 22 26 13 8 2 2 4 5 2 6 4 4 5 4 3 4 9 9 5 5 4 4 4 4 3 2 6 5 5 5 11 32 39 44 49 45 49 49 43 42 36 42 36 39 29 43 45 38
11 9 14 15 16 18 23 25 13 7 8 9 6 3 5 6 6 5 6 3 5 7 12 18 8 4 3 6 5 4 5 5 4 5 3 7 25 31 34 37 41 43 40 40 46 48 49 53 58 50 43 46 54 47
9 7 11 14 16 16 19 22 15 14 10 5 5 6 5 5 4 3 7 10 16 14 19 20 12 2 5 4 4 5 5 6 4 5 7 11 28 29 31 33 35 37 40 42 42 41 41 42 41 37 40 42 45 43
9 6 9 11 16 18 13 16 15 14 6 5 6 4 5 9 6 9 14 14 17 15 14 13 7 11 6 4 4 6 5 5 6 6 6 19 22 25 29 30 31 33 33 35 35 36 35 35 38 34 32 36 38 39
11 6 11 9 12 17 6 11 11 7 6 5 6 7 10 14 15 17 19 19 20 21 13 4 5 4 6 4 6 6 4 4 3 6 14 15 17 21 24 24 27 27 28 28 28 28 28 29 28 29 32 33 33 34
11 7 12 10 9 8 9 3 5 6 5 3 7 12 13 14 16 18 19 21 19 18 7 4 5 5 4 4 4 3 5 2 10 10 9 11 16 21 20 21 23 24 24 24 23 22 21 20 22 23 25 25 27 28
8 9 13 15 8 3 7 8 4 4 4 5 7 11 12 13 15 17 19 18 17 12 13 6 7 7 3 3 3 5 9 9 7 8 6 8 14 16 18 20 20 21 22 21 20 18 19 19 19 18 18 17 18 19
8 6 9 13 9 5 3 4 4 3 4 2 5 7 10 12 13 14 17 18 12 13 8 6 4 6 7 10 12 12 13 14 14 7 7 7 11 13 15 19 19 20 19 18 19 17 16 16 16 16 15 15 17 18
8 7 8 9 9 3 2 3 2 2 4 4 1 9 8 8 10 11 13 16 14 14 11 5 7 10 11 10 11 12 12 13 15 13 9 11 10 13 15 17 19 19 18 17 15 17 15 15 15 15 16 16 16 16
6 4 5 4 3 3 2 3 2 4 2 3 4 3 5 3 8 9 9 11 10 10 9 9 10 8 5 7 9 11 11 12 12 13 13 15 14 14 14 15 16 16 16 17 16 15 14 15 14 14 14 14 14 14
5 3 2 3 1 1 1 3 4 3 4 3 4 5 5 5 6 7 6 5 6 7 7 7 8 8 8 8 9 9 11 12 9 11 9 12 11 11 12 12 13 14 13 14 13 13 14 13 13 13 13 14 14 14
2 1 1 1 2 1 1 2 3 2 3 5 4 3 3 3 4 4 1 2 2 3 4 6 6 5 5 6 8 6 10 12 12 12 10 11 11 8 9 10 10 9 10 10 10 11 11 12 13 13 13 14 14 14
1 1 2 1 2 2 1 2 1 3 3 3 2 4 4 6 3 3 2 3 3 2 2 6 6 8 6 4 9 9 9 12 12 11 9 11 11 10 9 8 8 8 8 9 7 8 8 9 11 12 12 13 12 12
2 0 2 3 3 3 2 3 2 3 3 3 3 3 2 1 3 2 2 2 1 2 4 4 7 8 7 7 12 10 6 11 12 11 9 10 9 9 7 7 7 6 9 9 8 8 7 8 9 11 10 11 11 10
1 2 2 1 0 3 2 3 2 4 5 3 2 2 3 4 3 4 1 2 1 1 4 5 7 8 9 9 9 10 10 10 10 9 8 8 8 8 8 8 8 8 9 8 8 7 8 8 10 9 8 6 10 9
2 2 2 2 3 4 5 3 5 5 3 3 4 1 3 3 3 4 1 2 2 2 3 5 5 7 7 7 7 6 7 8 7 7 6 5 7 8 8 8 9 9 5 7 7 8 8 8 7 8 8 8 8 9
3 2 6 3 4 6 5 6 2 3 4 1 5 3 4 1 3 5 3 3 4 5 6 5 4 4 5 5 7 7 7 7 5 8 7 2 6 7 10 8 8 12 4 3 6 6 7 7 7 7 8 8 7 7
6 6 4 8 9 7 7 4 3 8 5 9 7 6 8 7 8 8 3 6 5 7 4 6 4 4 4 6 5 5 8 7 7 7 6 6 6 9 9 9 9 8 7 4 5 5 7 4 5 5 6 7 6 5
8 2 7 12 8 9 3 10 11 16 12 9 9 9 9 3 2 3 4 3 4 4 4 5 5 4 6 8 10 10 9 4 5 6 7 6 6 7 8 8 8 8 7 6 5 5 8 8 6 6 6 5 6 6
4 4 6 12 14 11 5 11 11 9 8 8 8 6 8 4 3 5 2 3 4 5 3 4 4 4 6 9 10 10 8 3 2 2 4 3 6 7 8 8 7 7 6 6 6 6 6 6 5 5 5 6 7 7
8 9 13 10 12 3 6 7 10 10 8 7 8 3 4 2 5 2 4 4 5 4 4 5 6 5 5 6 7 6 7 3 4 1 1 4 7 8 8 8 7 6 6 6 6 5 5 5 5 5 6 7 8 8
7 6 5 6 9 4 1 7 9 5 10 5 5 6 7 8 7 3 4 5 4 6 6 4 4 3 5 6 6 6 5 3 5 9 10 12 10 8 5 6 6 6 7 6 6 6 5 5 5 6 6 6 7 8

GFSWCAN_850_spd_036.txt.gz
Wind_Speed
23 25 27 28 28 30 31 31 30 30 28 27 25 24 23 21 15 14 20 17 19 12 22 23 22 22 20 15 4 17 9 9 10 5 1 3 6 4 8 8 6 12 12 11 12 15 15 16 9 7 9 16 19 21
24 24 27 29 30 31 32 31 29 28 27 26 25 24 23 20 15 14 17 15 11 20 16 22 19 24 21 21 19 6 13 17 4 5 5 5 11 7 14 7 3 8 7 7 10 13 13 12 12 9 11 8 13 15
24 26 29 30 31 31 31 29 26 25 25 25 24 24 24 16 12 10 12 12 9 16 20 17 11 11 7 13 11 5 8 4 6 14 10 3 5 8 8 9 15 14 22 10 13 17 17 20 17 14 15 16 12 11
26 28 30 31 30 29 27 25 23 23 24 24 24 26 17 10 5 4 6 6 7 4 3 5 11 11 6 3 6 13 16 12 11 11 5 3 4 12 8 15 15 15 19 15 17 19 23 27 22 22 17 19 19 17
27 29 30 30 28 26 23 22 21 23 25 26 22 13 10 5 6 6 3 3 1 3 4 11 12 7 7 4 6 7 10 9 9 2 2 2 4 5 10 10 14 18 16 13 15 24 24 24 24 25 24 24 23 22
28 29 29 27 23 21 20 21 24 27 26 22 9 10 8 7 8 4 2 2 5 4 2 3 8 6 13 8 5 5 8 11 7 3 2 4 5 2 3 4 14 26 32 37 33 40 39 38 37 30 27 22 21 21
27 28 26 21 20 20 22 24 25 25 22 7 8 12 10 7 6 2 2 3 9 3 0 4 4 6 13 9 3 4 5 1 2 2 3 2 3 6 2 7 24 35 40 47 50 47 45 50 37 29 26 25 25 25
26 25 20 18 20 21 22 23 24 22 9 5 7 10 9 9 7 6 7 4 3 2 2 2 3 4 13 5 3 3 1 1 2 2 3 2 1 3 4 22 39 33 18 21 26 40 54 42 34 36 30 24 24 26
24 20 16 19 21 21 21 22 20 11 8 8 3 4 7 5 3 3 4 6 7 2 3 2 1 3 5 2 1 1 1 2 3 1 3 1 1 1 14 25 42 48 30 20 16 16 18 36 32 32 30 24 23 24
21 16 16 18 20 20 20 22 12 8 9 7 4 1 1 3 4 2 2 3 3 2 1 2 2 2 3 1 2 2 3 2 2 3 9 1 4 28 34 34 47 52 44 41 16 11 6 6 18 25 27 24 25 24
18 13 15 17 19 18 18 18 9 10 8 7 3 4 5 5 3 1 1 5 6 3 4 4 4 3 4 2 2 3 1 2 1 4 4 4 7 22 35 37 41 54 54 57 44 20 5 2 9 15 20 23 23 20
16 11 13 16 20 18 19 16 7 10 3 3 0 0 2 2 3 3 4 4 2 4 8 9 7 7 3 4 3 5 2 2 6 5 4 3 9 30 33 38 34 43 51 53 52 49 50 48 40 29 13 14 15 17
15 10 11 14 17 18 17 14 14 4 1 3 4 1 3 1 6 4 4 3 4 6 15 22 4 4 4 6 5 3 4 3 4 4 3 5 22 29 28 35 37 35 38 42 47 47 45 44 47 42 34 33 48 45
15 10 9 11 15 19 15 12 13 9 3 2 3 4 3 2 3 2 6 7 13 14 19 14 13 2 6 4 5 5 5 5 4 4 4 8 22 26 27 28 31 34 33 32 34 36 41 40 36 36 40 42 48 45
14 11 8 11 13 17 10 9 11 10 6 4 3 1 5 13 13 15 16 15 19 19 13 8 8 4 4 3 4 5 5 4 3 3 6 15 19 24 25 25 27 27 29 27 27 25 25 31 36 36 37 37 39 37
14 7 15 15 13 11 6 5 8 6 6 2 4 8 12 13 15 18 19 18 19 20 9 3 6 4 6 4 4 5 3 2 3 7 15 12 17 20 23 24 23 23 24 24 19 23 18 23 28 29 30 34 33 29
10 6 15 18 11 5 10 4 3 4 3 2 5 11 12 12 14 17 19 19 19 16 8 6 4 5 4 3 3 3 4 4 8 9 9 8 13 16 17 21 21 21 20 21 21 19 19 18 17 19 25 25 23 23
6 10 11 16 12 2 4 4 2 2 2 5 6 9 10 11 14 16 17 19 16 15 10 4 7 7 3 2 3 5 9 11 6 8 8 10 8 12 12 18 18 18 17 17 20 13 17 16 17 17 20 17 16 18
10 10 9 12 10 3 3 4 3 1 1 3 8 10 11 8 11 11 14 15 15 13 13 8 4 8 7 10 10 12 14 13 16 18 9 6 8 14 10 16 16 16 15 13 15 15 14 15 15 16 16 16 17 18
9 9 7 8 6 3 1 1 3 2 2 4 4 9 8 8 7 10 11 13 12 11 9 6 7 9 10 10 10 11 13 13 14 15 15 15 15 13 14 14 15 15 14 14 14 14 15 15 14 13 13 13 16 17
7 7 6 4 3 4 4 5 2 2 6 4 2 3 6 8 6 9 8 8 11 8 8 9 9 9 4 5 8 8 10 13 12 13 14 15 13 14 13 13 13 13 13 13 14 14 14 12 15 11 12 14 13 15
6 6 2 4 3 1 4 2 5 4 4 6 5 6 5 6 7 9 6 4 4 6 6 7 8 6 6 6 7 6 6 12 12 13 10 14 14 14 10 12 12 11 11 11 11 13 12 12 12 13 13 12 12 13
4 3 2 2 3 2 4 4 4 1 3 6 6 4 4 3 3 4 4 2 3 1 1 3 6 7 6 6 9 6 3 12 14 14 13 12 13 12 11 10 10 9 10 10 9 9 9 11 11 12 11 11 11 11
5 2 4 3 3 4 3 5 2 3 3 3 3 3 5 5 5 5 2 2 3 3 3 3 7 8 5 6 8 9 8 12 13 12 11 11 13 12 10 9 10 8 9 9 10 9 8 9 10 11 11 12 9 10
3 2 4 6 5 5 4 3 3 4 4 4 3 4 6 2 3 4 4 2 4 4 3 3 7 9 10 10 10 8 10 12 12 11 10 11 11 11 10 9 9 8 9 10 10 9 9 8 9 10 8 11 9 11
1 5 4 3 3 3 3 5 4 6 4 4 4 3 8 3 6 2 2 5 5 2 0 5 7 7 9 10 9 9 9 9 10 11 10 9 9 10 10 10 10 11 11 9 12 10 10 10 9 8 9 8 10 10
3 7 7 4 5 9 7 12 14 9 5 8 6 3 4 4 5 3 4 2 2 4 2 5 5 11 10 9 9 10 8 7 4 8 4 5 6 7 10 10 10 14 6 8 8 9 10 10 9 9 9 10 10 10
9 5 6 9 15 11 7 13 12 4 5 10 9 3 2 4 2 4 9 6 3 4 2 6 10 4 5 7 6 7 8 9 6 6 11 1 3 6 9 9 8 11 6 3 7 9 8 8 8 8 9 9 8 8
6 17 21 12 4 7 4 4 11 8 7 9 6 6 3 5 6 4 7 8 6 6 6 8 4 4 7 9 6 6 6 6 7 8 8 7 8 9 9 10 10 9 9 5 6 5 10 6 5 4 6 7 6 6
5 8 10 14 12 4 3 11 15 16 10 12 12 12 13 15 10 9 10 7 7 9 9 6 6 6 8 9 10 13 14 4 4 4 7 8 7 7 8 9 9 8 8 7 7 6 9 8 5 6 7 7 7 7
4 12 7 10 18 8 5 9 13 9 7 8 6 8 8 18 10 5 7 7 12 10 7 10 7 7 7 11 11 9 9 10 6 4 6 3 8 9 9 9 8 7 6 7 7 7 8 7 6 7 7 7 8 8
10 10 12 8 11 9 4 6 10 14 12 12 2 2 5 8 9 6 9 11 13 13 6 8 9 10 9 8 8 8 6 6 9 7 7 7 11 9 6 8 8 7 6 5 5 5 5 5 5 5 5 6 7 7
11 11 7 8 11 5 4 5 8 8 11 10 6 4 14 12 9 7 8 11 9 9 8 7 7 7 8 7 8 7 3 2 8 6 10 12 10 5 6 6 7 7 8 7 6 3 3 5 6 6 6 6 6 6

GFSWCAN_850_spd_039.txt.gz
Wind_Speed
22 24 25 27 29 31 32 32 31 28 26 24 22 21 20 18 12 10 15 14 13 9 20 16 12 12 14 10 3 11 10 8 6 6 4 3 4 4 5 3 9 3 4 4 4 3 3 20 16 20 2 17 23 26
22 23 26 28 30 31 32 31 27 24 23 22 21 22 22 17 9 8 12 10 6 17 10 23 20 11 10 17 16 3 7 13 5 4 4 4 5 3 8 6 13 6 1 3 7 5 11 22 28 27 23 19 24 22
23 26 28 30 31 30 28 25 24 23 22 22 24 24 18 9 4 4 7 8 6 8 15 8 8 16 5 8 4 3 3 9 8 12 7 4 4 7 5 4 8 10 14 5 9 13 17 13 12 27 33 27 17 18
24 27 29 30 28 25 23 22 22 24 25 25 22 13 8 5 5 6 2 3 2 3 2 4 13 11 8 3 3 7 14 12 10 12 4 2 3 13 4 6 7 6 10 17 13 11 20 8 28 25 31 32 31 20
26 28 28 26 22 21 22 24 26 26 24 20 9 8 7 8 11 9 7 7 8 3 2 8 10 10 14 12 6 9 3 1 4 4 3 3 6 5 4 5 3 10 13 8 11 30 22 30 31 33 31 29 29 27
26 26 24 20 20 23 26 27 26 24 19 8 9 9 9 11 9 7 2 3 3 11 2 3 6 9 13 12 10 13 12 7 3 3 2 2 5 4 4 4 8 27 38 39 37 40 40 45 42 45 36 32 23 23
25 24 19 18 22 25 27 27 26 20 7 8 13 11 10 7 6 2 1 4 5 1 2 2 2 8 11 12 9 11 11 7 4 2 1 1 3 1 0 2 21 37 41 33 19 22 26 35 29 29 25 26 23 21
24 21 16 19 22 25 26 26 20 10 6 7 8 12 10 9 8 7 9 6 4 1 1 2 1 3 2 2 3 5 4 5 4 1 1 1 0 2 2 11 32 39 39 33 26 17 26 34 38 37 22 24 28 20
23 19 15 18 21 24 26 24 12 7 10 9 6 6 6 6 4 6 6 5 4 2 3 2 2 2 1 0 1 1 2 1 1 1 2 1 1 3 10 24 35 42 43 41 31 14 23 23 29 28 26 20 24 21
22 17 14 17 19 21 23 19 9 5 7 6 7 4 2 5 9 5 3 2 2 1 3 2 2 2 3 3 4 3 3 2 2 2 5 1 0 16 23 15 29 36 46 47 39 36 16 14 11 7 16 17 20 18
20 15 12 14 18 19 18 15 7 5 7 6 6 2 8 7 4 2 2 1 4 3 6 5 4 6 5 3 2 7 2 2 0 2 1 4 4 18 27 26 27 30 35 48 46 45 41 42 27 8 6 8 10 8
18 14 11 13 15 17 15 13 10 5 2 2 2 3 7 3 2 2 3 3 1 3 4 6 7 2 5 5 4 5 3 4 4 4 3 3 7 26 26 28 32 28 31 35 46 44 46 49 48 43 24 5 1 3
18 15 11 12 14 16 12 10 10 7 5 5 3 2 3 2 2 4 3 4 3 4 10 6 1 3 7 8 7 2 2 3 6 3 2 3 17 23 27 25 28 32 25 27 33 39 41 42 44 46 40 34 35 30
17 16 11 12 15 14 9 7 10 12 4 3 2 6 1 3 4 4 7 6 15 20 23 12 7 4 3 2 3 4 3 6 4 4 3 5 18 19 24 25 27 28 29 24 22 31 34 37 35 34 35 37 38 40
16 13 9 15 15 11 6 6 9 13 3 3 1 1 3 11 15 16 17 17 20 24 19 9 1 4 3 3 3 5 4 4 1 2 2 12 15 17 21 24 22 23 26 26 19 18 27 30 31 34 32 29 29 29
15 11 13 19 17 6 6 4 3 6 6 3 1 5 10 10 12 15 16 17 23 23 18 4 4 3 5 3 5 6 3 2 3 5 7 5 12 15 16 18 19 19 20 22 17 14 14 24 27 26 26 26 29 33
13 9 15 16 17 1 3 6 3 2 3 4 2 7 6 9 10 13 15 18 20 16 5 6 4 5 4 3 2 2 2 3 5 8 9 9 9 11 13 14 17 16 17 21 14 16 13 13 12 19 22 21 21 22
11 14 15 13 15 5 3 4 2 4 3 3 5 9 7 8 8 9 11 15 15 17 13 5 11 6 3 4 4 5 14 15 16 18 16 5 10 10 5 10 14 15 10 15 13 14 13 17 16 17 18 18 19 14
13 10 10 10 10 7 3 2 3 5 4 0 4 9 11 1 6 3 9 12 11 13 12 7 4 4 5 8 9 12 14 14 16 17 13 15 13 12 7 10 13 14 8 12 14 16 14 13 13 14 14 18 17 17
12 9 6 7 6 3 5 4 4 5 3 1 4 2 2 5 5 4 5 7 9 11 5 3 4 8 8 7 7 6 8 12 11 13 13 13 15 10 10 9 10 12 12 7 11 12 10 13 16 16 12 15 15 11
6 5 9 5 4 4 4 5 3 3 7 7 5 2 6 6 2 6 4 1 6 3 3 6 5 4 1 2 2 2 4 11 8 12 15 10 14 15 9 8 9 8 11 10 9 13 12 10 14 12 14 11 15 13
6 8 4 3 3 2 4 3 5 9 5 7 7 9 4 6 1 3 7 3 5 6 5 5 0 3 3 4 6 5 5 7 10 12 11 10 11 15 13 12 8 7 9 12 11 9 9 10 13 11 9 14 9 12
4 4 3 4 3 2 6 6 6 5 3 3 6 4 5 1 2 1 3 4 5 6 8 3 4 4 5 6 9 9 3 6 10 12 12 8 10 13 11 13 9 9 9 9 14 8 8 8 10 9 8 6 15 10
8 2 4 3 5 5 5 6 9 6 6 4 2 2 8 3 2 2 3 2 10 12 6 2 3 7 5 8 1 7 4 8 10 11 11 11 11 12 13 14 15 12 9 11 13 9 8 10 9 9 11 9 17 17
3 3 3 6 5 6 8 7 5 6 7 5 8 4 3 8 3 2 8 8 13 13 8 5 6 7 9 11 6 9 9 9 9 11 12 9 9 9 10 14 11 8 7 13 14 14 11 10 8 7 9 10 11 11
0 5 7 4 2 3 4 5 5 2 2 3 6 5 7 3 2 4 11 12 4 8 7 5 2 2 4 2 6 5 4 4 4 7 4 5 6 7 7 9 11 17 9 8 9 11 11 11 8 13 10 9 10 11
3 6 12 10 5 10 6 5 4 1 3 4 4 1 0 2 3 4 8 10 5 6 4 2 6 5 1 1 2 3 6 6 4 4 2 5 4 7 8 7 8 11 8 7 8 8 7 10 9 10 8 8 9 8
7 11 6 12 12 6 4 3 3 3 4 3 5 4 4 12 2 3 4 14 9 2 5 5 6 3 2 4 5 5 4 5 3 6 6 6 3 6 7 8 11 9 5 3 5 6 7 4 5 8 7 6 7 6
8 5 5 11 13 4 10 9 6 8 5 10 8 0 7 12 6 5 1 5 2 2 4 3 2 2 4 6 4 7 9 2 4 7 8 8 7 9 7 7 7 8 8 6 5 6 8 5 5 5 6 7 6 3
10 10 7 11 10 3 9 11 8 10 15 9 11 12 6 6 7 6 5 9 8 6 7 6 5 5 7 9 11 12 15 9 9 8 8 10 8 7 8 8 7 4 4 5 5 5 7 7 6 7 6 6 5 5
6 9 4 6 17 12 3 3 9 7 17 22 17 20 13 10 3 6 5 11 11 7 9 12 12 13 14 12 9 9 14 14 9 7 6 6 5 6 5 6 7 4 4 4 2 3 4 5 5 5 5 5 5 5
7 2 5 9 10 6 9 8 6 3 6 15 13 15 13 8 4 2 12 11 12 13 12 11 12 13 11 9 9 8 6 4 7 9 9 12 9 5 5 4 4 8 6 3 2 4 5 5 5 5 4 4 4 5
8 9 10 7 8 7 9 8 3 5 10 18 6 5 3 9 8 5 5 6 8 7 8 8 8 8 9 9 7 3 6 8 10 13 17 18 12 5 8 8 9 9 7 7 5 3 6 6 5 4 4 4 4 5

GFSWCAN_850_spd_042.txt.gz
Wind_Speed
20 22 25 27 29 29 29 27 24 22 20 18 17 17 16 11 6 8 11 10 10 6 15 10 10 10 10 6 2 4 6 5 4 5 3 3 3 4 2 6 4 2 2 4 6 5 4 22 16 8 9 19 21 25
21 24 26 28 28 28 25 23 22 21 20 20 20 18 12 7 3 4 6 6 4 13 11 16 9 18 9 10 7 3 1 3 7 3 3 3 1 3 5 3 6 5 3 2 4 2 1 14 9 16 21 16 24 28
23 25 26 26 25 23 23 23 24 24 23 21 18 12 7 3 2 2 0 4 3 4 9 10 14 18 8 9 2 1 1 5 3 9 3 3 4 5 4 4 4 5 16 3 7 4 9 12 10 9 22 25 26 26
24 24 25 24 21 23 25 27 27 25 22 16 9 9 8 11 11 6 6 7 3 2 3 5 13 17 14 8 6 5 8 2 3 5 3 2 2 10 3 3 2 9 9 10 6 4 18 8 7 15 31 32 27 27
24 24 23 20 22 25 27 28 28 24 15 8 9 9 10 11 10 8 9 8 9 4 1 8 8 15 11 9 14 10 4 4 4 3 2 2 2 3 3 2 4 15 5 4 5 21 22 32 38 31 23 38 32 29
23 23 20 19 22 25 28 28 26 16 7 10 10 11 12 8 5 6 2 3 3 6 3 4 9 8 12 12 16 18 12 10 6 4 4 4 6 8 3 3 11 25 29 25 12 23 25 32 31 28 30 28 29 27
22 21 17 18 21 24 27 27 20 10 7 12 12 9 8 9 7 3 3 4 3 2 1 4 6 6 13 10 9 11 15 11 7 4 4 3 6 5 2 2 17 33 27 29 32 25 12 14 19 22 19 18 16 21
22 19 14 17 20 24 25 23 13 8 5 6 10 10 8 6 5 5 8 7 3 4 2 2 3 4 4 5 7 10 7 8 10 4 5 4 4 3 1 9 20 33 27 35 38 35 24 21 22 28 27 21 25 20
21 18 13 14 18 22 22 17 8 7 5 3 4 3 3 4 4 6 5 4 2 1 2 3 2 2 2 1 2 5 4 3 3 2 3 4 2 3 3 11 23 28 37 38 40 40 39 31 26 21 14 10 20 19
19 17 12 13 16 19 19 14 7 6 7 6 5 2 3 4 7 5 2 1 1 2 3 4 4 3 6 4 1 2 0 1 2 3 6 2 3 16 19 16 17 23 29 39 41 41 40 37 32 20 14 8 7 12
18 16 12 11 13 18 16 14 9 7 6 5 6 4 9 9 4 1 2 2 2 3 6 7 9 3 6 3 2 5 2 2 2 1 2 2 4 14 22 21 13 16 24 31 34 37 37 40 37 29 22 15 7 5
17 16 12 10 11 15 14 11 11 8 6 7 6 8 7 3 2 2 2 2 1 4 4 5 8 9 6 5 2 4 2 2 2 4 3 2 4 18 20 18 19 10 16 21 26 28 34 31 37 38 39 34 26 15
15 16 13 8 10 11 11 8 9 11 10 8 3 3 3 1 3 3 4 5 4 4 8 13 4 2 5 6 3 2 3 2 6 4 1 3 12 16 19 19 19 17 10 14 22 26 26 31 33 31 36 39 38 32
14 14 7 10 13 11 7 6 8 12 6 3 3 5 2 5 3 2 3 3 16 20 26 20 1 1 3 3 2 4 2 5 3 3 2 3 11 14 16 18 18 19 14 7 16 23 26 29 32 36 37 27 31 35
13 11 7 12 15 13 7 5 8 13 3 3 2 1 2 4 11 13 15 19 23 26 26 6 3 5 5 4 3 3 4 3 2 1 3 6 8 11 13 16 19 17 18 7 6 14 16 22 24 27 31 36 37 31
14 11 6 11 14 9 4 4 8 7 4 3 3 1 2 4 6 7 11 18 21 22 12 6 4 3 4 2 4 2 3 2 3 3 6 3 4 9 10 13 16 16 16 13 4 4 11 14 21 21 20 23 29 33
15 10 13 14 12 10 6 8 4 4 4 4 3 4 7 2 2 4 8 13 16 18 3 3 3 1 1 2 1 2 2 2 7 11 10 3 7 6 6 9 13 14 14 9 12 9 4 7 9 14 17 15 17 17
15 12 11 13 12 9 6 6 3 3 4 5 3 3 4 3 0 1 5 7 9 13 8 2 4 5 3 2 2 1 3 6 9 8 9 10 6 7 4 6 10 9 12 12 11 12 17 9 13 17 15 12 14 13
16 10 7 8 9 6 2 3 4 3 5 3 3 3 5 3 4 4 2 4 7 10 4 3 4 1 1 2 2 3 5 10 8 9 8 8 12 8 6 3 6 4 7 10 6 10 11 9 8 9 13 12 11 10
11 8 3 7 6 3 3 3 4 4 4 3 6 7 7 6 4 7 6 3 3 4 4 2 2 3 5 5 2 2 3 8 4 7 10 9 12 15 4 5 2 6 5 5 7 10 8 12 10 7 13 12 8 11
7 3 7 4 4 4 4 4 3 5 5 5 9 11 9 9 8 7 6 8 3 4 4 5 6 2 3 4 3 1 1 6 5 9 11 8 6 9 10 8 4 7 10 8 9 11 10 8 9 12 9 10 8 8
7 5 4 2 3 3 4 6 4 8 7 11 16 13 5 5 5 7 4 5 6 5 8 9 3 3 8 9 8 6 2 2 6 9 4 3 6 9 11 8 11 10 9 12 5 9 6 6 6 8 8 11 7 11
5 4 2 2 3 3 5 5 4 4 3 4 4 2 1 4 4 7 5 2 4 9 9 8 2 1 3 5 7 8 2 4 5 5 5 6 7 10 10 13 10 11 12 11 6 6 6 4 6 8 11 12 12 10
5 2 2 2 3 4 4 5 6 4 5 5 2 1 2 5 7 4 4 6 9 7 8 5 3 1 1 5 3 10 8 4 2 6 6 4 6 11 10 10 6 6 12 13 12 12 9 5 9 9 9 9 11 10
3 3 3 4 5 3 3 2 3 2 4 2 3 1 2 2 3 3 2 5 8 8 7 2 4 5 1 6 9 9 5 2 9 8 5 3 3 8 8 8 8 4 5 6 9 7 7 10 10 8 9 9 8 9
1 4 7 4 3 3 2 2 3 4 4 4 3 4 4 5 3 4 3 4 4 1 7 9 7 4 1 4 10 7 2 4 7 4 3 4 2 5 3 4 8 7 6 5 6 7 9 9 6 8 12 13 10 7
2 5 6 7 1 9 6 8 9 2 3 1 3 3 4 3 4 5 5 7 7 9 9 5 5 1 4 6 4 3 5 4 5 3 3 8 5 4 2 2 3 3 2 3 1 2 4 6 5 4 5 5 6 4
7 5 4 1 6 9 5 4 3 3 2 4 9 4 7 3 4 6 5 1 7 4 3 5 6 4 2 10 10 6 6 3 4 4 11 9 4 5 7 6 5 1 4 3 3 2 4 8 9 7 6 7 7 6
6 8 6 5 6 6 9 7 4 4 3 5 6 5 10 8 8 3 8 7 5 6 6 2 5 5 3 10 8 8 6 11 12 12 13 13 8 5 3 4 4 2 4 5 2 0 1 3 5 7 6 4 2 0
12 15 8 10 3 5 6 14 8 2 6 6 8 9 12 5 6 12 10 9 7 6 5 9 13 11 10 8 10 12 10 8 6 6 10 9 8 7 6 3 1 1 4 5 4 4 6 4 3 5 5 2 3 4
6 7 4 8 4 8 8 16 16 16 17 7 8 18 9 7 9 12 12 9 7 7 7 8 10 9 9 7 5 6 8 8 5 4 3 3 5 5 1 6 8 3 5 6 6 7 6 4 5 5 3 3 4 3
5 7 8 4 5 3 14 15 15 10 11 9 8 9 8 6 3 2 7 5 4 6 7 6 7 7 6 5 4 6 8 8 12 15 13 9 6 5 5 3 7 5 4 1 2 1 8 2 3 2 3 4 5 6
11 12 13 8 4 4 6 2 5 8 7 5 7 11 9 7 4 3 5 4 6 5 4 7 8 8 8 7 7 9 11 13 14 16 14 11 11 11 9 7 10 10 8 8 10 10 7 4 4 5 4 4 4 4

GFSWCAN_850_spd_045.txt.gz
Wind_Speed
20 23 25 27 27 25 23 22 22 20 19 19 18 15 8 4 2 2 3 5 6 5 13 12 12 13 6 4 1 4 5 4 4 5 3 2 3 2 3 6 7 4 1 1 2 3 4 15 9 7 3 5 15 23
22 24 26 26 23 22 22 22 22 21 20 19 16 9 4 1 3 2 3 3 4 8 7 14 15 13 9 8 6 4 0 1 4 3 2 3 3 5 7 3 2 3 4 2 1 3 3 16 5 10 11 9 18 25
23 25 25 22 20 22 23 24 23 22 19 15 10 8 5 7 8 6 3 1 2 4 7 12 20 18 16 9 4 3 1 2 3 6 3 2 3 4 4 5 3 7 12 2 7 6 12 21 7 6 14 21 21 23
23 24 23 19 20 22 25 26 24 19 13 11 10 10 13 13 10 8 6 6 2 2 1 4 11 14 15 16 9 3 6 1 3 5 4 2 3 7 3 2 1 3 8 5 5 6 24 12 17 25 24 23 27 26
23 23 21 18 20 23 26 25 20 13 10 9 10 10 10 12 9 6 6 4 5 2 2 6 6 8 9 14 14 10 5 4 5 4 3 3 3 5 3 3 5 14 6 5 3 14 12 22 28 24 17 22 25 27
22 21 19 17 19 23 25 22 16 9 10 7 9 8 8 6 3 4 3 4 4 4 3 3 5 3 6 6 13 15 13 9 5 4 3 4 6 8 3 3 10 24 18 18 8 21 14 20 22 12 11 12 20 22
21 19 17 16 19 22 23 17 14 9 8 8 6 6 6 6 6 3 4 6 5 2 2 5 9 3 6 4 3 5 8 9 5 3 3 1 3 3 1 2 10 22 22 25 25 21 16 13 15 18 16 18 17 21
19 17 14 14 17 20 21 14 9 10 6 5 6 5 4 4 4 5 6 4 3 2 1 0 4 6 3 3 2 5 2 3 4 2 0 2 2 1 2 14 12 20 19 24 27 27 20 19 17 17 16 13 15 20
18 16 12 12 14 17 17 14 8 8 7 6 5 5 5 4 5 8 10 6 4 3 2 1 2 3 3 3 3 3 4 3 2 2 2 1 2 4 6 13 12 14 15 22 25 28 28 33 31 23 21 18 15 15
17 16 12 11 12 14 16 14 10 8 8 7 6 3 3 5 11 10 4 3 3 2 3 4 4 3 3 1 1 1 2 2 2 2 2 2 1 12 22 20 11 14 19 17 23 30 32 34 33 33 29 15 14 16
16 15 14 11 10 13 14 11 11 8 6 6 5 3 9 10 5 2 3 2 2 3 4 5 6 3 3 1 1 2 1 1 2 2 2 2 4 7 22 21 16 8 15 21 21 24 27 27 32 34 33 28 13 12
16 15 14 10 9 11 13 9 9 9 8 7 8 9 6 3 2 1 3 3 0 3 4 4 4 3 3 3 0 2 0 1 1 1 2 2 4 16 19 20 19 13 13 20 25 25 28 36 29 27 29 29 27 15
15 14 11 7 9 12 11 10 9 11 13 5 1 2 2 0 4 3 4 4 4 5 6 11 4 2 4 6 3 1 1 2 3 3 1 3 8 13 14 17 20 15 7 12 18 22 25 28 31 36 32 27 27 28
14 12 9 7 10 13 11 9 9 10 7 2 2 4 3 3 2 4 4 5 12 10 20 11 2 1 2 2 0 4 2 3 3 3 3 3 10 12 13 15 17 16 10 7 12 16 18 19 22 26 30 32 28 25
14 13 11 6 9 13 11 8 7 10 4 3 3 2 4 4 5 6 9 11 14 18 14 4 4 3 4 3 3 3 3 3 1 3 3 7 8 11 12 14 17 16 11 6 5 10 12 15 14 15 18 24 31 27
15 13 5 9 10 11 8 7 9 8 3 3 5 2 4 2 6 7 9 11 16 16 2 4 3 3 3 2 3 1 3 3 3 3 10 8 7 6 8 12 14 14 10 8 3 3 6 9 11 10 10 11 17 23
14 12 13 13 9 8 7 8 7 4 3 3 5 8 7 6 8 9 8 9 13 10 2 3 3 1 1 3 1 1 3 3 5 10 12 5 8 9 7 10 13 6 6 5 8 3 5 8 10 8 7 7 9 10
15 13 14 12 9 8 5 8 4 4 5 8 5 8 10 11 8 9 6 4 6 6 3 1 3 3 1 2 2 3 4 6 8 6 2 8 8 8 7 9 8 5 4 1 5 5 7 2 3 11 10 3 5 7
17 12 10 8 8 5 3 4 6 4 7 6 8 7 7 7 10 12 8 5 1 5 3 3 3 1 3 5 5 6 4 4 4 4 4 5 9 13 5 5 6 6 2 4 4 5 2 5 7 9 10 8 12 11
13 10 5 7 7 3 3 4 5 5 4 3 8 12 10 11 12 12 14 10 7 3 3 3 5 5 6 5 5 3 2 2 3 6 8 6 8 9 7 5 6 8 5 2 6 4 3 6 4 7 8 5 7 12
7 4 7 6 5 4 4 3 4 6 6 5 10 10 8 11 5 4 6 10 7 3 5 7 8 5 6 5 4 6 2 2 2 9 13 10 4 5 7 7 5 8 9 5 5 4 1 6 6 4 4 2 7 12
6 6 5 3 2 3 4 5 5 6 7 10 12 9 3 4 5 4 9 2 5 4 2 4 2 1 7 6 7 4 3 2 5 6 5 1 3 7 7 3 9 12 8 7 3 1 1 1 4 6 1 4 6 10
7 5 2 2 3 3 4 5 4 3 2 4 6 1 3 3 8 9 3 3 2 7 4 7 10 11 8 8 10 10 9 3 5 3 2 4 4 7 8 7 6 5 4 2 7 4 2 2 1 4 3 8 2 6
6 2 1 2 3 4 4 3 3 3 4 3 3 3 4 2 4 1 2 4 7 3 6 8 10 12 7 9 7 6 12 6 4 3 2 2 2 5 5 6 5 5 3 6 5 5 4 3 4 5 5 5 4 7
3 2 2 4 3 3 3 4 5 5 3 3 2 4 5 4 2 2 2 4 7 5 2 9 5 8 9 3 6 8 9 5 2 2 4 2 1 4 2 1 4 6 4 3 2 1 8 7 5 5 7 3 5 6
1 3 5 3 3 3 2 2 2 1 1 3 2 4 2 2 1 4 2 3 2 3 9 12 10 12 7 4 9 10 6 5 8 7 5 4 4 3 2 1 5 6 3 4 3 3 6 1 1 7 7 5 4 5
1 4 6 7 4 2 1 1 1 2 1 2 3 3 1 2 3 4 5 9 9 10 9 6 7 5 2 2 3 5 10 11 10 5 3 7 5 1 3 6 5 3 5 8 6 3 2 5 3 5 5 4 5 3
6 4 6 5 6 5 2 1 2 4 4 4 7 3 3 3 3 5 11 10 10 7 4 3 2 3 8 2 7 6 8 8 6 4 8 4 4 2 2 3 4 5 9 6 5 1 5 7 5 5 4 4 4 4
5 5 6 4 5 5 6 7 5 6 6 8 7 3 4 3 5 8 8 8 7 6 5 4 2 4 6 5 8 7 4 5 5 10 9 3 5 6 6 7 0 3 2 3 4 4 2 2 5 5 6 3 2 2
5 7 4 4 4 5 4 9 5 6 8 5 5 6 5 5 6 7 10 11 6 4 3 6 7 3 7 9 7 7 9 9 5 1 5 6 5 6 8 4 1 5 3 3 3 5 5 4 4 3 4 4 3 1
4 6 4 4 3 6 6 10 9 12 10 5 7 12 9 7 8 7 6 8 6 6 5 5 6 8 12 10 9 9 10 11 10 8 5 3 3 2 5 5 6 4 4 3 4 4 2 3 2 4 4 5 5 4
6 8 6 4 3 9 18 15 9 4 4 5 7 8 8 5 2 3 4 3 4 5 5 5 5 6 6 6 7 10 12 13 10 9 9 8 6 5 4 5 3 2 1 1 2 2 4 2 1 0 1 4 4 6
9 11 7 3 9 12 12 8 4 4 3 5 5 8 7 3 2 3 3 5 3 4 1 4 6 8 9 9 10 11 11 13 10 9 9 10 9 6 6 6 7 6 6 10 9 8 5 3 3 2 3 3 4 3

GFSWCAN_850_spd_048.txt.gz
Wind_Speed
23 25 25 24 22 22 24 25 24 23 20 17 12 7 3 2 3 3 3 3 2 3 10 10 13 11 5 3 0 7 7 3 3 2 2 2 3 1 1 6 9 5 5 5 5 5 4 23 11 6 1 6 10 15
23 25 24 23 21 22 25 26 25 21 16 12 10 6 3 4 7 4 5 2 2 5 5 9 13 14 15 6 2 4 3 3 4 3 2 3 3 5 8 3 2 3 1 1 1 2 14 23 13 8 13 8 11 16
23 24 24 21 20 22 25 26 22 15 12 12 10 9 8 10 6 3 2 3 2 3 5 9 14 17 16 15 6 1 3 5 5 7 4 2 3 3 3 3 1 3 9 1 4 2 13 16 1 15 15 13 9 13
23 24 23 20 20 23 25 23 16 11 12 11 10 10 10 8 6 5 5 4 3 3 2 2 10 16 19 16 11 5 3 3 7 8 5 2 3 9 4 4 4 5 8 5 2 4 16 8 26 20 21 14 12 11
22 23 22 18 19 22 24 19 12 11 12 9 8 9 8 6 4 4 2 3 6 4 3 3 2 10 20 18 21 16 10 6 7 6 4 4 5 5 3 1 4 10 4 3 2 12 11 13 23 23 21 18 17 17
21 21 20 17 17 21 22 16 12 10 12 8 6 6 6 5 6 5 3 2 7 7 3 3 1 5 5 10 9 9 10 10 5 4 3 5 6 8 3 3 16 23 23 20 7 21 14 17 15 17 22 21 19 19
20 20 19 15 15 18 19 13 12 10 10 10 6 4 3 3 5 4 4 9 6 5 1 4 3 4 4 3 1 2 5 7 6 3 5 3 5 8 3 5 13 19 23 26 25 19 13 19 17 22 21 17 15 16
19 19 18 14 13 15 17 14 9 8 9 8 6 6 7 7 6 4 8 8 7 4 3 2 3 2 6 4 2 1 1 4 7 4 6 4 6 3 3 13 14 19 17 25 27 24 23 21 22 24 19 17 16 17
17 17 17 14 12 13 16 14 10 9 8 7 8 9 9 5 5 8 11 8 8 4 2 2 1 3 2 2 3 3 1 2 2 2 3 3 3 3 5 14 10 13 11 13 19 21 23 26 27 28 25 21 21 21
17 16 16 14 11 11 13 11 10 9 8 7 7 3 3 6 14 11 3 3 2 3 3 4 3 2 2 1 2 4 3 2 2 0 1 3 3 10 16 15 9 10 13 15 18 24 22 20 24 26 26 23 19 19
16 16 16 15 10 10 10 10 9 10 9 6 4 3 9 12 5 3 3 2 1 3 4 5 5 3 3 1 0 1 2 1 2 2 0 1 3 6 14 15 11 6 11 14 15 20 23 20 20 22 23 24 22 18
15 15 14 11 9 10 11 10 8 9 9 8 8 10 5 4 2 1 2 2 1 3 4 3 3 3 2 2 2 1 1 1 2 0 2 1 3 8 11 13 10 3 5 10 14 19 22 25 27 25 24 24 25 21
14 14 13 10 8 10 11 9 8 9 11 7 2 2 2 2 5 2 4 4 3 5 5 5 4 2 2 3 2 1 2 1 2 2 1 4 6 7 9 10 11 5 1 3 6 10 14 17 21 25 26 27 24 23
15 15 14 10 8 10 12 10 7 7 6 2 2 4 2 4 4 5 5 5 10 9 18 14 3 2 1 1 1 3 2 3 2 1 3 3 7 9 9 9 11 8 5 1 3 7 11 13 15 19 24 27 27 31
15 15 14 9 7 10 13 8 5 6 3 3 2 3 5 6 8 10 11 11 15 13 12 2 2 1 2 3 3 3 2 1 4 4 3 3 6 7 7 9 10 10 6 4 3 4 9 13 16 17 18 20 24 26
14 12 7 8 12 14 11 7 7 6 3 3 5 3 6 4 10 9 11 14 12 14 3 1 3 3 3 1 2 1 2 3 3 3 6 13 8 5 6 9 11 10 5 3 4 3 6 9 13 14 13 13 13 18
14 9 17 17 12 9 9 6 3 3 3 4 6 10 13 12 11 13 12 12 12 8 1 2 2 1 1 2 2 3 4 3 3 9 10 8 7 7 8 8 8 6 1 1 4 7 4 5 9 12 9 7 10 12
17 18 17 13 9 8 7 5 3 4 5 8 6 12 12 14 15 15 14 9 6 3 1 2 4 2 2 2 2 3 5 5 8 8 5 6 8 10 12 8 5 2 3 1 4 6 4 4 6 9 9 7 7 9
19 14 10 6 5 4 3 3 5 4 8 9 11 13 11 13 13 14 15 10 7 4 3 3 3 3 3 5 4 2 4 5 1 2 5 8 9 11 14 8 5 6 5 4 4 7 3 4 5 7 8 9 13 14
12 9 5 3 6 2 3 3 4 5 5 5 9 11 9 8 11 13 10 12 10 4 4 3 4 2 2 2 2 3 3 1 2 6 10 11 13 11 11 13 9 5 8 6 5 5 2 2 4 6 6 7 12 16
7 5 7 4 3 4 3 3 4 5 6 5 10 9 7 5 4 3 4 4 3 6 6 3 3 13 5 8 5 6 4 3 2 7 10 14 13 10 11 12 12 9 9 6 4 3 2 3 4 4 4 5 10 13
6 7 4 2 2 2 4 5 5 7 5 7 8 5 4 5 6 7 8 6 4 4 3 13 11 7 8 11 13 9 2 2 5 12 11 8 8 9 7 4 4 3 2 2 3 2 3 2 4 5 1 5 8 10
6 3 2 1 2 3 3 4 3 2 3 7 10 3 4 5 9 10 4 4 2 2 9 8 1 6 15 12 11 10 11 10 9 9 9 7 6 3 6 7 7 7 5 6 9 7 5 2 3 4 1 3 6 7
5 2 2 2 3 3 4 2 2 3 4 5 4 4 4 7 9 5 2 4 6 5 10 5 10 9 10 14 9 7 6 12 10 5 6 4 4 4 2 4 8 9 8 7 4 3 2 4 2 2 4 1 4 7
2 3 2 3 3 2 2 3 3 4 2 3 4 3 3 5 3 2 2 5 9 1 4 9 10 10 14 13 8 5 6 6 5 14 6 5 5 4 2 2 6 9 11 9 7 5 4 4 5 2 1 2 5 6
1 3 4 3 1 3 1 1 1 1 0 1 2 2 4 3 3 3 2 8 10 11 10 9 9 11 12 10 8 5 1 9 13 12 7 6 4 5 3 3 9 7 9 8 7 2 3 0 0 2 5 3 3 4
1 4 4 5 4 3 1 2 1 1 0 3 1 1 2 3 2 3 6 8 9 11 10 8 8 9 8 11 11 10 13 14 14 8 6 2 6 4 4 10 6 6 10 11 7 4 5 4 5 5 4 2 1 2
5 3 4 2 5 6 3 3 2 3 4 3 4 2 2 3 3 5 9 12 12 12 6 8 8 6 1 10 11 11 11 9 5 6 2 4 5 3 11 3 2 4 6 9 8 6 2 3 3 3 3 3 4 3
5 5 5 4 4 4 4 7 6 6 5 7 5 3 3 3 3 8 11 13 13 10 8 7 5 7 11 10 11 12 12 9 4 5 4 5 4 4 2 4 1 4 2 3 6 5 4 5 5 5 2 1 2 2
4 8 4 4 4 4 3 7 5 7 9 6 3 4 4 4 3 5 9 12 13 13 8 5 6 8 11 13 12 11 10 9 8 6 6 4 0 1 5 8 5 3 4 2 6 6 6 6 4 3 4 3 2 2
3 5 4 4 3 4 4 8 9 10 8 6 6 6 6 5 4 3 4 7 10 8 5 3 5 9 10 11 12 13 13 12 12 12 10 8 6 3 2 1 7 4 1 3 4 3 3 3 3 3 5 5 5 4
6 8 6 3 2 5 11 6 7 4 5 5 5 7 7 5 2 3 3 3 3 4 4 5 7 7 9 10 12 14 13 10 11 11 11 10 9 8 7 6 5 4 3 3 3 2 3 2 2 2 3 3 5 6
4 4 5 6 6 7 8 6 4 3 3 5 5 9 8 5 4 5 3 6 4 3 1 2 3 5 7 8 10 13 12 9 10 10 11 10 8 7 8 8 6 5 4 5 6 6 4 3 3 3 3 4 4 4

GFSWCAN_850_spd_051.txt.gz
Wind_Speed
21 23 24 22 20 22 26 28 25 21 16 12 9 7 7 8 7 8 8 3 1 3 8 8 7 6 6 4 2 7 5 2 3 2 2 2 2 1 2 6 9 8 8 6 7 6 8 20 11 1 6 5 9 12
21 23 23 21 20 23 26 26 21 14 13 12 9 7 8 12 9 7 6 6 3 2 2 6 7 7 5 5 3 3 3 4 2 3 2 3 2 3 6 3 2 3 2 2 4 1 7 11 11 7 9 10 9 11
21 22 22 19 19 22 25 22 15 12 11 13 11 10 15 10 7 4 1 3 3 3 4 7 5 10 9 5 3 0 3 4 3 6 3 2 3 4 5 4 1 4 3 3 3 2 11 3 6 15 12 13 11 10
20 21 21 17 18 21 23 18 12 12 9 12 11 6 6 6 5 5 3 3 3 3 2 1 7 8 12 8 5 3 2 4 5 4 3 2 3 8 4 2 3 5 8 6 3 4 9 7 15 19 14 13 11 11
20 21 20 16 16 19 20 15 11 11 7 9 8 6 4 3 3 2 3 3 5 1 3 4 2 3 7 8 9 9 9 8 7 4 4 3 4 4 3 2 4 10 5 4 3 13 8 8 18 18 15 15 13 13
18 19 18 16 14 16 18 13 11 9 8 5 6 5 3 3 6 5 3 2 9 5 2 2 2 6 5 6 6 8 9 11 7 4 3 3 4 8 3 2 16 18 20 22 11 18 11 17 10 20 17 18 15 13
17 17 17 15 14 15 16 14 8 8 7 6 5 3 4 6 7 3 3 8 7 6 2 4 2 1 7 9 5 4 6 6 4 2 4 3 4 7 2 4 15 19 18 26 27 22 19 23 17 22 21 21 17 15
16 16 15 14 12 13 15 13 9 7 7 6 5 5 6 8 8 4 7 9 8 4 2 2 1 2 5 3 1 4 3 4 6 2 3 4 4 3 2 15 14 18 16 19 21 19 16 17 20 25 24 23 26 25
15 15 15 14 13 11 12 11 9 7 7 8 9 10 9 3 3 6 11 7 6 3 3 1 2 2 4 3 2 1 2 2 3 3 4 5 3 3 5 14 11 11 12 14 20 19 18 20 19 22 24 24 21 24
14 14 14 15 13 11 10 11 9 9 10 10 9 3 3 3 11 7 2 2 1 2 3 3 3 2 5 5 3 3 1 1 1 2 3 3 2 5 9 11 8 9 10 12 19 25 25 27 25 24 24 21 23 23
13 13 13 13 11 11 10 10 10 10 10 6 4 3 8 11 2 1 1 1 0 3 4 5 5 3 3 2 1 4 3 2 1 1 1 2 3 5 9 11 9 6 9 12 13 15 20 22 25 23 20 22 23 22
13 13 13 12 10 11 12 11 9 9 8 9 9 11 5 3 2 2 1 1 2 2 3 2 2 3 2 3 2 3 1 2 2 4 2 1 2 4 8 10 10 5 4 7 10 13 17 20 21 21 26 24 23 23
13 14 13 12 11 11 11 14 11 10 11 9 2 2 2 1 3 2 3 2 3 3 4 2 4 2 2 4 2 2 1 3 5 2 1 2 3 3 4 5 8 7 5 3 5 8 11 13 18 21 20 25 24 26
13 14 15 13 11 9 10 14 11 8 5 2 2 5 1 2 4 4 3 4 6 7 9 9 3 4 4 3 2 2 2 3 2 1 2 2 2 2 2 3 5 6 6 5 5 5 7 10 12 15 16 19 20 22
13 14 12 8 5 7 13 15 10 5 3 3 2 3 5 6 8 9 10 10 11 10 8 2 2 3 2 2 0 3 4 2 2 3 1 2 6 5 3 3 4 7 5 4 5 6 6 11 13 13 14 15 13 16
13 10 5 12 13 13 12 10 8 6 3 3 4 4 6 5 10 5 8 10 9 8 5 1 1 2 2 0 2 1 1 3 2 2 2 7 6 3 6 8 7 6 3 3 2 4 4 4 8 12 10 12 13 13
13 7 15 16 13 10 9 7 4 4 3 3 6 11 13 16 13 13 12 11 8 4 2 2 3 0 2 2 2 2 1 1 3 2 1 2 4 5 7 10 6 3 2 2 3 4 3 2 6 8 8 10 12 12
16 17 16 12 8 7 8 5 3 4 5 8 6 12 12 15 16 16 12 11 7 4 2 1 2 2 1 2 2 2 1 1 4 3 2 1 3 5 7 11 6 5 5 4 1 3 2 2 5 7 9 12 13 11
18 13 8 6 4 4 2 3 4 4 7 9 12 16 15 13 12 11 12 13 7 2 3 6 6 4 4 8 14 13 9 3 3 2 4 6 8 7 5 8 7 6 8 7 4 2 2 1 4 6 7 9 13 12
8 7 3 3 5 3 3 3 5 5 5 5 11 9 7 7 9 11 14 10 7 6 4 2 2 4 2 2 4 14 10 2 1 4 6 7 12 10 8 8 8 5 11 9 5 3 2 2 3 5 6 9 10 11
5 3 7 5 4 5 4 3 4 6 7 4 7 9 4 7 8 8 8 6 4 3 3 3 11 9 1 5 8 11 12 3 6 6 7 7 8 9 9 9 9 3 8 7 1 3 2 3 2 3 4 7 11 12
6 7 4 3 2 3 4 5 5 7 4 5 6 7 4 3 4 7 6 6 3 2 4 9 4 7 5 5 11 13 7 9 8 7 7 7 7 6 7 11 12 8 5 3 4 5 4 4 2 4 4 6 9 9
6 3 2 3 3 3 3 3 3 3 3 5 4 3 3 3 6 5 3 3 2 5 5 4 5 8 14 13 14 8 10 12 8 5 4 5 5 5 6 7 7 6 5 7 7 3 7 4 6 2 5 6 6 7
6 2 2 2 3 3 3 2 3 3 2 2 3 2 2 4 7 3 2 3 8 4 7 7 12 11 10 13 12 9 5 8 4 4 9 1 2 3 3 4 7 8 7 8 7 9 5 3 4 9 5 4 6 7
2 3 2 4 3 2 2 2 2 1 2 2 2 1 2 3 2 2 2 5 6 4 5 9 8 9 11 10 10 11 6 1 2 7 11 4 3 2 3 5 6 7 8 6 7 7 7 8 6 4 4 4 4 5
1 3 5 3 2 2 1 2 1 1 1 1 0 1 0 1 1 2 1 5 5 8 9 9 9 9 10 11 10 8 6 7 11 12 10 5 5 3 6 7 7 5 9 7 4 2 4 4 3 3 5 4 4 5
1 3 4 5 2 2 0 2 1 2 2 2 1 1 0 2 2 0 4 5 7 10 10 7 7 6 6 12 12 12 14 13 12 7 4 8 5 6 4 7 5 7 7 7 6 3 4 7 6 5 3 3 3 4
5 3 4 4 4 6 2 2 2 3 2 2 2 2 1 2 2 2 5 10 10 10 8 8 9 9 12 14 14 13 13 10 7 11 4 5 11 7 3 11 9 5 6 9 9 8 7 6 4 5 3 3 2 2
4 4 4 3 3 4 5 6 4 4 4 6 2 2 2 3 6 8 9 9 10 10 9 7 9 11 12 13 14 13 11 8 4 6 6 5 5 7 6 6 6 4 5 8 8 7 8 7 6 5 3 3 4 2
3 7 3 3 3 3 3 7 4 6 7 6 3 4 5 6 6 8 7 7 8 8 6 6 7 8 10 12 13 14 13 13 11 9 8 7 6 5 4 4 7 6 8 7 7 7 6 5 5 5 4 3 2 3
3 6 4 4 2 2 4 6 6 6 5 5 5 5 6 6 6 6 5 5 7 6 4 4 5 8 10 11 11 10 12 14 13 12 11 11 10 8 7 9 9 7 6 4 5 4 4 4 3 4 5 5 5 4
5 7 3 2 1 2 7 4 5 4 4 4 4 6 6 5 4 5 5 4 3 3 4 5 6 9 9 11 13 13 12 12 12 12 12 11 10 8 8 7 6 6 4 3 3 3 3 3 3 3 3 3 4 4
4 5 5 3 4 5 6 6 5 3 3 4 5 7 7 5 3 7 6 8 5 3 3 5 6 6 7 9 12 12 11 11 12 12 10 10 10 9 8 8 7 6 6 6 6 5 4 4 4 4 4 3 3 4

GFSWCAN_850_spd_054.txt.gz
Wind_Speed
18 20 21 19 18 21 24 22 18 15 13 10 9 12 12 10 11 10 5 5 5 3 9 7 6 4 4 3 3 10 5 2 2 2 3 2 3 0 3 4 6 9 7 7 11 9 14 12 11 6 8 5 7 5
17 19 19 17 17 20 22 19 14 13 11 8 10 12 14 10 9 8 2 3 4 3 3 4 4 3 3 5 4 4 4 4 2 2 1 3 2 2 3 3 3 5 3 4 4 3 12 10 17 24 18 11 8 9
16 18 17 15 15 18 19 16 13 10 10 6 11 10 10 7 5 2 1 4 5 3 5 1 5 3 4 3 4 5 3 5 1 6 3 2 2 3 4 3 4 3 5 3 2 4 8 17 14 20 16 9 9 9
15 16 15 13 12 15 17 14 11 9 6 5 4 7 6 4 2 1 2 4 3 4 5 5 4 3 4 4 3 4 8 6 3 3 3 2 3 7 4 2 2 3 8 6 4 5 20 3 10 16 16 9 8 8
13 15 14 12 10 12 14 11 10 9 4 4 3 3 2 1 4 5 5 3 4 3 5 4 2 4 6 2 5 6 5 2 2 1 3 3 2 3 4 3 3 7 3 3 3 12 10 9 12 14 13 13 8 7
12 14 13 11 9 9 12 11 7 7 6 4 2 1 1 2 6 7 3 2 6 3 3 2 4 6 8 8 8 9 6 4 3 4 1 0 2 5 4 3 11 16 15 16 7 17 10 15 12 16 13 13 12 13
11 13 12 11 9 8 10 10 7 6 6 5 4 3 3 4 4 4 3 5 10 5 3 5 3 4 5 3 3 3 3 2 3 2 2 2 2 3 2 3 12 14 15 19 17 15 12 15 13 18 16 15 15 18
10 12 11 10 10 9 7 8 7 7 7 7 7 7 8 8 9 4 5 10 8 3 3 3 1 2 3 1 2 3 4 3 1 1 1 3 5 4 1 12 11 13 13 19 21 22 18 15 18 19 17 16 18 23
10 11 11 11 11 9 7 7 7 8 9 10 10 10 9 3 3 5 12 6 2 4 3 2 3 4 4 3 2 1 3 2 2 1 2 1 2 2 5 11 10 12 12 15 16 18 22 23 21 22 23 23 21 21
9 11 10 10 9 8 7 7 8 9 10 11 8 2 3 4 9 8 1 1 2 3 3 4 2 3 5 4 2 3 1 2 1 2 1 2 2 3 6 7 6 7 8 12 17 21 22 23 25 25 25 22 21 21
9 10 10 9 8 7 7 9 9 9 10 5 1 2 7 10 2 1 2 3 2 3 6 6 6 7 3 4 1 6 3 2 2 2 2 2 3 6 3 6 5 4 4 7 10 13 15 17 21 22 22 23 22 21
10 11 10 10 9 8 6 9 11 9 7 6 7 11 6 3 3 4 1 3 3 3 3 5 7 6 2 4 4 5 3 4 2 3 2 1 1 2 2 3 5 4 2 2 5 9 12 13 15 15 17 18 23 20
10 12 12 11 10 9 7 7 12 11 11 8 0 2 4 3 2 1 2 4 3 5 7 7 7 3 3 5 4 3 4 1 3 3 1 4 5 0 2 3 4 4 3 2 2 4 8 11 12 15 15 17 18 24
10 12 12 10 7 7 6 7 13 11 6 2 3 4 4 3 4 3 7 8 11 8 12 10 7 7 6 4 5 4 2 3 2 0 3 3 4 2 2 2 4 5 5 5 4 3 6 11 12 13 13 12 13 14
10 11 5 4 6 5 9 13 13 8 3 3 3 3 4 6 9 11 10 11 11 9 8 8 7 6 6 4 3 0 3 2 3 2 4 7 4 6 4 3 4 6 4 5 6 7 6 8 11 12 12 13 13 13
10 8 3 10 13 13 11 8 7 3 3 3 5 6 8 9 12 16 13 12 10 9 10 7 6 3 5 3 2 2 2 2 3 4 5 5 5 4 5 6 7 5 5 3 4 6 6 6 9 11 11 12 11 11
9 4 13 15 13 9 6 4 2 3 4 4 6 7 11 14 14 15 14 11 9 6 5 5 5 7 7 4 3 4 4 8 10 6 3 3 4 6 7 9 7 4 5 2 3 4 3 4 7 8 11 11 12 10
12 15 13 9 6 5 4 4 3 4 6 8 8 9 8 11 12 11 10 10 8 4 3 3 2 1 1 1 1 2 1 6 8 4 1 2 5 6 6 7 8 4 5 4 1 3 2 2 4 7 8 11 10 9
16 11 7 4 2 1 1 2 3 4 6 8 8 8 7 4 6 8 8 6 6 6 6 4 3 1 2 6 4 4 5 5 4 4 3 3 5 5 4 5 5 5 4 5 4 2 3 3 5 5 6 7 9 9
7 5 1 1 3 1 2 3 4 4 5 5 6 6 4 4 5 6 8 8 7 5 5 2 2 5 2 3 6 4 3 2 3 5 9 2 5 5 6 6 7 5 4 5 5 0 1 3 4 5 5 6 8 8
4 2 5 3 2 5 3 3 4 4 6 5 4 7 3 3 6 6 10 5 9 5 4 3 2 8 5 5 6 6 7 6 6 10 9 8 6 4 3 4 5 2 5 7 2 0 4 1 3 3 4 5 6 6
4 5 2 1 2 3 4 5 4 5 4 5 4 4 2 3 4 5 5 6 5 3 1 0 1 4 6 8 11 10 9 9 6 5 5 4 5 2 2 4 4 3 1 2 4 4 3 3 2 1 2 3 4 5
2 0 1 3 3 3 3 3 3 2 3 3 3 1 1 2 3 2 1 6 4 3 2 4 6 10 10 10 9 7 3 6 6 1 4 1 2 3 2 3 4 4 3 4 5 2 4 4 4 1 2 2 3 4
3 2 3 3 4 3 2 3 3 3 2 2 1 1 2 3 3 1 3 6 8 6 4 5 8 9 8 7 6 8 7 0 1 3 3 4 5 2 0 1 3 3 3 4 1 2 2 3 4 4 1 2 3 4
2 3 3 4 3 3 3 2 2 2 2 1 2 1 1 1 1 1 4 7 8 8 7 6 6 7 10 12 11 10 7 5 4 4 2 1 4 2 3 1 2 3 3 3 2 1 3 4 5 2 4 3 3 4
1 4 5 3 2 3 1 2 1 2 3 1 1 1 1 1 1 2 4 9 9 7 9 8 8 9 8 11 12 13 10 9 7 7 2 2 4 4 3 3 4 4 4 4 2 1 3 3 2 4 3 3 4 5
2 4 4 5 2 2 3 2 3 3 2 2 1 2 2 1 1 2 3 6 7 6 5 7 7 8 9 11 11 11 10 8 6 7 9 6 6 8 4 2 5 4 4 3 2 1 4 4 4 3 3 3 4 4
4 3 5 4 4 4 3 2 2 2 2 2 2 2 2 2 2 2 3 3 5 5 6 6 7 7 9 10 10 9 9 9 10 11 11 9 7 8 8 6 5 2 4 5 6 3 5 4 4 4 3 2 2 3
4 4 4 5 4 4 4 3 2 1 2 3 1 1 3 3 5 5 5 6 6 5 4 4 5 7 8 10 10 9 7 5 3 2 4 6 6 7 7 6 4 7 6 6 8 7 7 7 6 4 4 4 3 2
4 7 4 3 3 3 2 5 2 3 3 3 3 4 5 7 6 8 6 6 5 4 4 4 4 6 7 7 8 10 10 9 8 7 6 6 6 5 5 6 7 7 7 6 6 7 8 6 6 5 4 4 3 3
2 5 3 4 3 1 1 3 2 3 4 4 3 3 5 6 7 8 7 7 6 6 5 4 5 5 6 7 6 6 9 10 10 10 10 9 8 7 7 7 6 5 5 5 5 4 3 3 3 3 3 4 4 4
6 6 4 3 3 2 3 4 3 4 4 4 4 5 6 6 7 8 10 9 7 6 6 5 4 5 6 7 8 10 11 8 9 9 9 8 8 7 7 6 5 5 5 4 3 2 2 2 3 3 2 3 3 4
5 5 5 4 3 3 5 4 3 2 4 4 5 7 8 6 4 8 13 11 7 7 8 8 8 8 7 8 9 10 10 9 9 9 8 9 10 10 7 6 6 5 5 5 4 3 2 2 2 2 3 3 4 5

GFSWCAN_850_spd_057.txt.gz
Wind_Speed
15 17 18 17 16 18 19 17 14 14 11 7 11 12 10 9 9 13 1 8 5 4 10 9 5 4 1 2 3 9 3 4 2 2 2 3 3 3 4 9 2 8 8 9 15 9 16 8 7 5 6 22 27 26
14 15 16 15 14 16 17 14 12 11 9 5 10 10 9 8 6 10 4 7 3 2 4 4 6 3 1 2 3 8 3 4 4 2 1 2 2 2 4 1 7 3 4 5 5 5 3 4 10 14 13 21 37 22
12 14 14 13 11 13 15 12 10 8 8 5 5 7 5 2 0 2 3 5 6 7 9 4 2 3 3 3 3 2 3 5 3 3 1 1 3 2 3 4 4 9 13 4 8 2 11 16 13 10 16 30 35 14
11 13 13 11 10 11 13 10 9 8 6 4 1 3 2 1 2 4 3 8 6 8 5 3 1 3 2 1 1 3 6 4 5 5 1 1 2 3 2 3 3 3 8 6 5 7 17 4 7 12 19 26 12 8
10 11 11 10 9 9 10 10 7 7 6 4 2 3 3 3 5 8 7 5 5 6 6 4 7 6 6 5 4 3 4 5 4 4 2 1 2 2 4 3 2 8 3 2 3 11 11 12 16 13 19 9 7 3
9 10 10 9 9 8 8 9 6 6 6 5 4 4 5 5 6 6 2 0 3 5 5 3 3 3 7 9 9 9 8 5 6 4 3 3 4 2 3 2 4 7 7 6 6 13 10 10 7 13 15 8 5 1
9 9 9 8 9 8 7 7 6 5 6 5 5 6 7 7 6 2 3 4 9 5 3 5 2 4 5 7 9 9 7 6 7 3 2 2 2 3 2 2 4 6 9 8 14 14 10 11 9 13 14 8 9 8
8 9 8 8 9 9 7 6 6 6 7 7 7 9 10 10 10 6 6 7 11 4 5 4 2 3 5 3 3 5 7 4 6 4 0 3 4 5 2 6 4 4 8 10 12 11 14 12 14 15 12 12 12 13
8 8 8 8 9 8 7 6 6 7 8 9 9 10 10 2 3 7 11 14 4 5 4 3 4 3 3 4 4 3 4 2 5 1 3 5 1 2 5 8 6 8 9 12 12 15 14 15 16 18 16 15 15 16
8 8 8 8 8 7 5 5 5 7 8 9 5 2 4 4 7 12 2 2 3 4 5 5 7 6 9 4 5 1 4 2 2 3 3 3 3 5 2 3 4 4 6 9 14 14 16 19 20 19 18 18 17 16
8 8 9 9 8 7 5 5 6 6 7 2 4 1 5 10 2 2 3 6 5 5 7 9 8 8 7 3 4 5 3 3 2 4 3 3 2 3 3 3 3 1 2 4 6 9 11 15 17 18 18 21 21 19
8 9 10 10 10 9 8 5 6 6 2 7 8 7 5 3 4 6 4 4 4 4 6 7 9 10 5 2 4 5 3 4 3 1 1 3 2 5 2 4 5 4 4 3 6 9 11 13 14 14 16 15 20 25
8 10 11 12 11 10 8 7 6 9 9 5 2 3 5 3 2 4 4 4 3 8 11 14 8 6 3 4 5 4 5 3 6 3 3 3 6 6 0 2 4 6 4 1 3 4 9 9 10 12 12 13 15 17
8 9 10 8 5 3 4 6 9 11 3 4 4 3 4 4 4 4 7 7 16 18 24 21 18 13 6 4 4 3 5 3 4 2 1 2 1 5 1 2 3 5 6 6 3 4 5 10 11 13 12 10 11 10
8 9 8 3 5 6 8 12 12 7 2 5 4 2 6 11 11 14 13 18 15 11 9 10 12 10 2 3 1 3 2 2 2 3 2 8 7 5 4 2 4 5 7 4 5 4 3 6 10 11 12 11 11 11
8 8 3 6 12 15 13 7 5 3 3 4 5 9 12 11 14 15 18 14 14 17 11 4 4 4 2 1 2 3 4 1 3 5 13 10 7 6 5 6 6 5 5 2 3 4 5 6 8 9 11 11 10 10
6 3 8 14 15 10 5 2 3 4 4 4 7 8 12 11 12 17 15 15 16 12 2 2 1 0 3 2 1 2 2 2 6 8 5 5 4 5 6 6 8 6 5 1 3 2 3 2 4 6 9 9 8 9
4 11 12 7 7 5 4 4 3 4 7 12 11 9 12 8 11 13 13 13 12 9 4 3 2 2 1 3 1 1 6 6 5 4 3 4 5 6 7 8 8 7 5 6 5 3 3 3 3 5 5 8 5 8
11 14 9 5 2 0 2 3 4 5 6 7 6 5 7 7 5 6 8 6 7 7 6 3 2 1 2 3 6 4 3 7 6 6 6 4 6 6 6 7 8 7 4 4 5 1 2 3 4 5 7 8 10 9
9 5 3 2 2 1 3 4 3 6 5 3 5 11 8 5 4 2 5 8 5 4 5 3 1 3 5 5 4 6 9 8 8 7 10 10 9 8 3 8 9 9 8 5 5 4 2 2 3 5 6 6 8 9
4 1 4 4 3 5 4 4 5 4 6 7 4 7 4 4 3 6 9 6 8 7 5 6 3 2 5 7 8 10 11 11 14 6 7 10 7 9 7 6 7 7 1 3 4 5 3 2 3 2 3 5 5 6
6 5 2 3 3 4 5 6 6 7 5 7 4 4 5 8 8 8 8 11 7 9 8 8 6 8 9 10 11 11 11 11 9 5 5 6 6 3 6 5 6 7 5 2 0 3 2 4 2 2 4 3 3 5
3 1 2 4 4 3 5 3 4 3 4 4 4 1 4 5 5 1 4 10 6 6 7 6 6 8 10 10 8 10 9 6 5 4 5 5 6 4 1 6 5 6 6 6 8 2 6 2 3 3 1 3 3 5
3 2 3 4 7 4 3 4 4 4 3 4 2 3 4 6 3 4 4 4 7 6 9 8 9 10 12 3 8 5 12 9 3 1 3 3 6 2 1 2 5 5 6 9 6 4 2 7 3 2 1 3 3 4
3 3 4 5 4 4 4 3 3 3 2 2 1 2 4 3 4 3 5 12 12 12 10 9 11 8 9 12 13 12 11 11 9 4 3 4 2 2 4 6 3 5 8 3 6 4 3 5 5 4 4 7 5 6
2 6 6 5 5 4 1 3 1 2 4 2 2 3 2 3 2 3 5 10 11 10 8 8 10 10 10 11 11 12 12 10 6 4 6 6 6 5 5 1 2 1 4 5 4 3 2 5 6 4 6 5 4 3
3 6 7 6 3 2 4 2 2 3 2 2 1 2 2 2 2 3 3 6 8 7 6 6 7 8 8 9 9 9 9 10 9 10 8 8 7 6 4 5 4 6 5 6 6 4 5 7 5 4 5 4 4 5
7 3 7 10 5 4 3 2 2 3 2 2 3 2 4 4 4 2 2 2 4 5 5 5 6 6 7 8 7 5 4 5 7 8 8 8 7 7 6 4 3 4 5 4 7 5 4 5 5 6 5 3 3 4
6 8 7 5 5 3 4 4 4 1 2 5 3 2 2 1 3 5 5 3 3 2 3 3 4 4 4 7 8 7 5 3 3 3 3 7 5 7 6 5 6 6 5 5 4 4 7 7 5 5 4 3 2 3
8 8 6 4 5 5 6 1 5 3 3 3 0 3 3 5 5 6 6 4 2 1 1 2 3 3 4 4 5 7 7 6 5 4 4 7 7 6 5 5 5 5 5 4 5 7 7 5 5 4 4 4 3 3
4 7 7 6 4 1 2 1 2 2 3 4 3 4 4 5 5 7 6 5 4 3 2 2 2 3 3 3 3 4 6 6 7 8 8 7 7 6 6 5 4 3 3 3 3 3 3 3 3 3 4 4 5 4
7 7 8 5 6 6 2 5 5 6 6 5 6 5 4 5 5 6 9 9 7 5 4 3 2 2 3 4 5 7 10 7 7 7 7 7 6 6 5 4 4 3 3 2 2 2 2 3 3 3 3 3 4 5
9 8 5 6 2 3 5 4 3 4 5 6 5 7 7 6 3 6 9 11 7 6 5 6 6 7 8 7 7 7 8 7 8 9 11 11 10 10 6 3 3 3 3 2 2 2 2 2 2 3 3 4 5 5

GFSWCAN_850_spd_060.txt.gz
Wind_Speed
15 14 16 16 16 15 17 16 14 12 7 2 5 5 7 9 12 10 4 14 7 5 7 9 4 1 2 0 4 8 2 4 4 3 3 4 3 4 4 9 10 6 4 6 10 11 14 4 8 12 10 16 20 20
14 13 15 15 14 13 15 14 13 9 6 2 3 2 2 4 8 11 6 8 9 4 6 6 5 1 2 3 5 3 2 4 4 1 1 3 2 3 4 4 12 2 5 4 4 4 14 8 6 11 14 16 21 22
14 12 13 14 13 11 12 12 11 8 6 3 2 3 3 3 3 5 4 6 10 12 12 6 3 3 4 2 2 1 3 2 3 2 3 2 3 1 2 2 4 10 16 5 10 3 15 16 12 12 13 15 20 22
12 10 11 12 12 10 10 11 8 8 5 4 2 4 4 4 5 6 3 8 8 9 6 6 8 6 7 5 3 4 2 2 6 4 1 2 1 3 2 4 3 6 10 9 5 7 18 3 18 19 19 20 18 21
11 9 10 11 10 9 9 9 8 7 6 5 3 4 6 6 8 11 9 5 4 4 7 14 7 9 9 11 9 7 4 8 5 5 6 3 5 4 4 2 3 4 1 2 3 15 12 18 19 18 20 19 24 19
10 8 9 10 9 9 9 8 8 6 6 5 4 5 6 6 7 7 3 2 4 6 5 4 6 7 7 10 12 13 11 12 8 10 8 4 4 5 2 2 5 8 3 5 4 13 10 13 16 16 16 16 14 13
9 7 8 9 9 10 9 8 8 7 7 7 6 7 8 8 7 5 4 5 5 10 4 6 2 5 8 8 14 15 13 13 7 10 2 7 8 7 2 2 5 6 1 7 3 9 9 9 11 16 13 13 10 13
9 7 7 7 8 9 8 8 8 8 8 8 8 10 11 11 11 7 6 8 8 3 5 4 2 5 10 4 5 7 8 9 8 6 6 2 5 2 2 7 11 6 3 4 3 2 3 8 15 19 13 10 10 10
8 7 6 7 7 8 7 7 7 8 9 9 9 11 10 1 3 7 12 14 8 7 4 7 6 3 8 7 6 5 6 4 6 6 4 6 3 3 8 4 6 7 4 6 6 10 7 4 4 19 23 17 15 13
8 7 6 7 7 7 6 6 6 8 9 8 5 2 4 5 6 13 3 4 5 7 8 8 14 6 7 6 5 4 10 5 3 5 4 4 4 10 7 3 1 0 3 6 8 7 11 14 15 8 20 23 17 17
8 7 7 8 9 8 7 6 6 6 4 4 4 3 7 12 3 3 4 7 8 6 9 13 15 10 8 4 6 5 3 3 3 5 4 5 2 8 7 7 4 4 5 4 1 7 5 8 10 10 6 14 23 18
8 7 8 10 11 10 9 8 6 5 2 8 12 12 7 4 4 6 5 7 4 3 4 2 13 12 16 9 2 5 3 3 1 4 1 0 5 7 4 2 6 4 6 6 4 1 4 6 6 6 9 7 7 12
7 8 9 10 11 9 8 7 6 7 10 5 4 4 5 6 2 5 4 4 5 14 5 11 8 2 5 4 8 2 2 1 2 2 1 1 7 1 4 2 2 1 4 3 3 2 1 4 8 6 5 6 6 8
6 7 8 8 4 2 1 3 6 8 5 5 7 4 5 5 3 1 8 4 6 11 13 9 6 3 3 3 5 3 2 4 4 1 2 6 8 7 1 3 4 4 7 4 2 1 3 4 6 8 11 7 7 7
6 8 8 6 3 4 6 9 11 8 3 6 5 3 7 9 9 11 17 23 10 18 17 16 10 5 4 2 2 3 2 2 5 3 2 6 8 6 4 3 2 8 6 8 3 3 2 5 7 9 10 8 10 8
6 8 3 3 8 13 14 8 3 4 4 6 7 9 16 9 12 9 20 23 22 15 13 7 4 3 2 3 4 5 4 4 0 1 5 4 2 4 6 6 7 9 3 4 8 4 3 3 6 7 8 7 7 8
4 1 4 10 15 12 5 2 3 5 6 5 4 4 7 7 2 9 16 19 19 15 7 6 5 5 4 3 4 4 4 4 8 9 2 0 2 4 5 7 7 10 5 1 3 4 8 2 3 3 6 8 7 7
2 10 10 11 10 6 4 7 5 6 10 11 9 13 7 8 13 11 9 11 13 13 11 5 5 4 4 5 4 4 8 4 7 6 3 3 3 4 6 8 7 8 9 5 2 5 4 5 4 7 6 6 6 9
5 11 13 4 4 2 4 6 6 5 3 10 9 1 4 1 3 2 6 7 7 4 2 3 2 3 2 7 8 6 7 9 10 10 8 6 6 10 7 7 9 10 7 7 5 6 4 1 4 6 7 9 10 9
10 6 4 2 3 2 5 5 6 6 4 7 4 8 5 11 15 5 5 4 7 6 5 4 5 6 2 8 10 9 11 11 11 14 13 12 5 11 8 7 10 12 11 5 5 5 6 2 1 3 5 6 6 8
3 1 2 5 6 7 6 6 7 8 11 7 7 3 2 4 3 6 2 10 12 10 9 8 6 7 9 12 13 12 12 14 14 12 12 8 6 13 8 6 7 6 6 14 13 8 3 5 3 3 2 7 7 9
5 8 3 3 4 6 7 9 7 6 12 11 14 9 8 8 9 14 14 7 6 8 8 8 9 10 10 9 11 9 9 8 9 10 9 9 7 7 12 7 1 7 10 12 10 15 9 8 5 6 5 4 6 6
4 1 3 7 6 4 7 8 8 8 5 3 11 1 3 5 9 8 3 4 2 3 3 5 7 9 9 12 5 8 9 7 7 11 3 2 7 7 4 10 12 7 6 7 14 12 9 7 3 3 6 4 6 5
4 3 5 5 10 5 7 9 10 5 7 8 4 3 1 5 6 5 3 10 4 4 7 10 10 8 11 6 9 3 11 12 4 5 4 11 7 8 7 8 9 6 8 7 10 12 3 5 5 5 6 6 7 7
4 5 5 7 6 8 6 12 5 7 1 5 2 4 3 1 2 2 4 9 11 11 9 7 9 10 11 10 10 11 13 11 9 7 11 9 7 7 5 4 6 11 10 7 6 5 5 13 3 10 9 7 6 6
4 7 7 7 10 4 3 5 10 10 4 2 5 7 3 2 2 2 3 7 8 8 7 7 8 8 8 8 9 11 11 11 12 12 10 10 10 10 9 7 8 9 9 8 9 6 4 3 8 4 8 7 6 7
4 7 11 11 11 8 4 18 9 1 2 4 5 3 1 5 2 2 4 4 5 4 4 5 5 6 6 6 6 7 8 9 10 10 10 10 10 9 9 7 6 8 9 12 12 18 15 10 6 6 9 6 7 7
11 9 7 13 10 12 3 4 3 2 4 7 6 4 4 2 4 4 4 5 5 4 4 4 5 5 5 6 4 3 1 2 6 6 9 9 9 7 6 7 6 5 10 12 13 12 12 6 5 7 6 5 6 5
13 14 13 9 11 6 7 9 4 5 8 6 7 5 2 4 4 6 6 5 3 1 2 1 3 1 2 5 6 5 3 3 1 2 2 6 7 8 7 6 5 6 6 10 9 4 6 6 7 7 6 4 4 5
13 16 14 8 11 3 4 10 18 10 4 6 3 6 8 8 6 7 6 5 3 1 1 2 2 1 1 1 3 4 5 4 4 4 5 7 7 6 6 6 5 5 5 5 6 8 8 5 6 5 6 6 6 7
16 13 10 13 9 15 13 29 11 3 5 4 4 3 8 8 4 4 5 4 4 2 2 2 1 1 1 1 1 2 4 4 5 6 7 7 6 5 5 4 4 3 3 3 4 4 5 4 5 5 4 5 5 6
8 9 13 1 5 6 18 12 7 7 1 2 7 7 7 4 3 6 8 8 7 6 4 2 2 2 2 4 4 6 8 7 8 7 6 6 5 6 4 3 2 2 2 2 2 3 3 4 4 4 4 4 5 5
15 11 9 4 6 4 13 12 2 5 7 3 6 11 5 4 4 6 8 11 8 5 5 6 5 6 7 7 8 9 9 11 8 10 11 10 9 9 5 2 2 2 2 1 2 2 2 3 3 4 4 5 5 6

GFSWCAN_850_spd_063.txt.gz
Wind_Speed
16 17 14 15 15 14 14 15 14 12 9 3 1 3 6 10 10 6 8 19 6 5 5 9 4 1 4 3 2 5 2 7 5 3 2 3 2 2 3 5 7 3 5 3 1 6 6 28 8 4 9 18 20 20
12 14 13 13 14 13 12 14 13 12 10 6 3 1 1 3 5 7 8 10 12 5 9 11 5 3 6 3 1 4 4 0 3 2 2 0 1 1 2 3 4 0 1 2 4 3 7 14 15 15 18 21 23 25
10 12 11 11 12 11 10 12 12 10 9 7 5 5 3 4 5 4 5 8 13 9 14 6 7 7 8 8 4 2 3 4 4 4 4 1 2 2 0 2 3 2 8 3 6 1 10 23 9 15 19 23 23 24
10 11 10 10 11 10 9 10 10 8 8 8 6 6 5 5 7 8 9 2 7 6 4 5 8 12 6 8 5 3 4 3 8 5 5 2 2 5 3 2 3 3 3 3 5 8 22 7 20 20 24 22 23 23
8 10 9 10 10 9 9 8 9 8 8 7 7 7 6 6 6 9 4 4 5 2 4 11 11 15 15 13 11 9 11 9 11 6 3 3 5 4 4 2 3 4 3 1 3 12 10 15 20 21 19 23 21 22
8 9 8 9 9 9 9 9 8 8 8 8 8 8 8 7 6 5 2 5 7 5 4 3 3 8 14 12 13 15 16 13 14 7 5 5 7 10 3 3 6 9 12 15 5 8 6 10 17 21 24 23 20 20
8 8 7 8 8 8 9 9 8 8 8 8 9 10 10 10 9 5 5 7 7 9 4 6 4 13 20 17 15 17 15 14 17 12 5 8 7 10 2 4 8 9 8 12 12 8 11 9 8 20 20 15 16 15
8 8 7 6 7 8 8 8 7 8 9 10 11 13 14 14 13 10 7 8 8 5 4 4 4 6 17 13 10 17 12 12 8 9 6 7 11 3 3 8 8 8 8 10 10 12 14 11 9 13 24 15 14 13
9 8 6 5 7 7 7 7 7 8 9 10 12 14 13 3 1 5 10 9 9 7 5 5 3 4 13 18 9 9 9 4 8 7 8 9 3 4 8 11 15 11 8 9 4 2 5 7 7 8 13 26 15 14
9 8 5 5 7 7 7 7 7 8 9 10 9 4 3 4 7 11 4 1 3 6 6 5 7 7 15 3 5 3 7 4 3 5 11 4 4 13 11 7 9 13 10 7 4 1 3 5 7 9 11 14 20 17
9 7 5 6 8 8 8 8 7 7 7 7 3 3 8 11 5 2 4 6 7 5 6 6 8 9 10 3 4 9 3 3 1 2 5 4 3 8 16 15 12 12 9 9 6 4 2 5 5 10 11 10 11 17
8 6 5 8 10 11 11 9 8 7 5 6 13 19 9 4 6 6 3 2 2 3 2 5 12 17 3 2 2 2 3 1 0 5 3 3 2 7 11 19 15 15 11 10 6 7 3 3 5 6 7 11 10 10
7 5 6 8 10 8 6 6 6 7 10 10 4 3 4 5 2 3 3 2 1 5 8 8 7 3 2 1 5 1 1 1 1 1 2 3 20 4 9 8 11 8 6 12 10 8 6 1 3 6 2 7 6 7
5 5 5 6 5 3 2 0 3 6 7 2 4 4 4 2 4 4 8 5 9 11 26 25 14 3 3 3 1 2 1 2 1 2 3 2 9 11 10 8 3 4 9 6 5 9 4 3 6 5 3 8 3 9
5 6 7 7 6 3 4 7 11 11 4 5 5 3 0 11 12 7 7 14 14 15 10 10 2 6 2 2 1 2 1 4 3 0 2 4 3 3 1 4 5 6 8 5 6 10 5 6 3 4 2 3 8 3
4 5 3 1 3 9 13 11 7 5 3 5 7 6 15 4 6 6 8 13 18 23 12 8 4 2 4 3 4 6 4 3 0 4 4 7 4 4 4 5 7 8 4 3 3 3 6 3 5 2 5 4 3 2
3 3 3 8 11 12 6 3 1 4 5 5 5 7 15 2 5 10 5 13 16 15 5 3 4 4 2 3 3 3 2 3 9 9 3 6 5 4 5 7 8 6 7 5 2 2 5 7 5 2 3 2 8 4
3 7 9 10 13 8 4 7 4 6 9 10 4 16 12 5 6 11 9 9 9 10 7 3 1 3 2 3 3 3 6 3 8 8 8 6 6 3 10 10 10 8 9 9 5 5 2 4 3 6 1 8 12 12
8 12 15 9 7 3 3 6 7 5 7 7 6 2 18 4 5 4 2 5 2 3 3 1 4 2 2 3 10 11 10 11 10 14 11 8 15 18 14 14 13 10 10 10 7 9 3 9 3 9 12 13 10 12
10 10 8 5 3 2 4 6 9 6 4 9 11 12 2 11 9 3 3 3 4 4 5 3 2 1 5 7 10 11 10 13 14 17 15 11 13 9 5 2 1 9 5 3 3 14 5 1 4 5 9 16 12 6
6 1 3 5 6 8 5 7 7 5 3 6 2 3 4 9 9 5 1 5 7 4 2 3 6 7 6 8 14 10 12 10 11 14 14 9 9 10 10 8 5 8 14 15 8 8 11 10 5 6 13 13 5 6
4 6 7 4 4 5 8 9 8 6 5 8 3 3 5 2 5 0 1 1 2 4 4 3 5 5 5 6 9 11 10 10 9 11 10 11 14 10 9 7 5 8 6 15 11 5 11 12 9 9 13 7 8 12
5 4 5 6 6 5 7 10 8 9 6 2 3 6 5 4 3 3 4 3 1 3 4 1 6 8 11 9 3 6 11 7 4 9 7 7 10 10 7 7 9 12 10 15 14 10 13 9 8 8 6 7 7 12
3 4 5 5 10 5 5 5 3 12 3 2 1 4 5 6 4 4 3 7 8 8 4 9 7 11 10 14 9 13 16 13 10 11 11 12 12 10 8 8 13 13 8 13 18 8 10 11 14 12 12 11 10 10
4 6 5 6 5 7 4 4 6 4 5 7 2 5 3 8 3 1 2 3 5 5 6 6 9 7 9 10 10 14 14 13 14 14 12 9 11 9 7 9 14 20 12 11 12 11 14 15 13 12 9 8 8 8
4 5 6 5 7 6 5 4 2 4 5 2 3 2 7 2 2 2 2 5 6 5 5 5 5 7 10 7 8 9 9 10 10 12 12 12 11 9 11 14 16 19 15 12 11 10 11 11 9 8 8 11 9 8
3 6 12 11 9 1 6 2 9 6 11 3 4 2 1 2 2 3 9 7 9 7 5 5 5 7 7 7 6 7 6 5 10 10 9 12 12 12 10 8 11 13 14 16 15 14 10 8 10 10 9 11 7 8
9 7 9 11 14 12 5 3 1 4 5 3 7 4 6 4 3 3 12 12 11 9 6 6 7 7 6 6 4 2 6 6 8 9 10 9 9 8 12 12 12 13 11 14 12 10 11 11 11 9 8 5 5 7
8 9 13 15 10 4 8 5 2 4 9 4 9 4 7 3 9 12 12 9 5 6 7 9 5 6 7 8 7 4 2 3 7 4 7 13 10 8 4 4 6 7 10 17 7 9 7 6 7 9 7 6 7 4
17 15 16 17 5 2 2 4 7 16 17 20 13 14 14 12 10 10 10 9 7 7 7 6 4 4 5 5 5 5 4 3 4 8 11 10 10 8 7 7 7 7 5 5 9 10 8 8 8 7 7 9 7 5
16 17 20 12 6 10 7 9 22 9 9 12 15 9 12 10 8 9 8 8 8 5 6 8 7 5 3 3 5 7 6 4 7 10 9 9 9 8 6 5 5 5 4 4 4 5 6 6 5 4 4 6 5 5
17 18 19 4 3 6 9 6 7 6 23 14 10 9 10 10 7 9 12 10 9 8 9 7 6 8 8 5 6 8 11 13 12 12 14 12 11 8 4 3 3 4 3 3 3 3 4 3 4 4 4 4 5 5
14 16 4 9 8 8 3 1 4 3 15 11 8 8 10 10 5 5 7 11 8 9 12 12 11 9 7 11 12 13 11 9 11 12 12 11 12 11 6 8 8 5 1 1 2 3 4 3 3 4 4 4 4 5

GFSWCAN_850_spd_066.txt.gz
Wind_Speed
15 14 14 11 11 13 12 12 13 11 8 2 3 2 2 5 7 7 8 12 8 3 1 4 2 5 4 3 3 2 4 5 4 4 3 1 2 1 1 3 3 1 1 2 2 3 5 14 4 2 6 10 13 15
18 11 12 10 9 11 11 10 12 10 8 5 2 3 3 3 3 5 5 5 5 4 5 8 8 8 7 7 5 2 5 4 4 4 2 2 2 3 4 2 2 3 4 3 5 3 3 4 7 8 10 16 18 20
9 8 10 8 7 9 10 9 10 9 8 6 5 3 6 6 5 4 3 8 8 5 9 6 7 7 8 8 6 5 5 6 6 7 6 3 2 3 4 4 3 4 7 3 2 1 7 19 10 10 14 17 21 24
10 9 8 8 6 8 8 8 8 9 8 7 6 6 6 6 8 7 7 2 3 5 3 5 5 11 7 11 16 12 6 9 11 11 4 2 2 8 3 3 4 5 2 3 4 11 13 2 10 14 18 20 21 24
10 10 7 6 6 8 8 8 7 8 7 7 6 7 7 7 7 6 3 4 2 3 3 11 15 19 17 14 16 12 10 11 10 5 3 3 5 4 3 1 4 8 6 4 5 9 6 10 9 10 17 24 21 21
11 8 8 6 5 7 8 8 8 7 8 7 6 7 8 8 7 4 2 3 3 4 4 4 5 8 17 25 20 19 18 20 14 8 6 6 7 11 3 3 9 18 15 15 7 8 12 14 12 10 19 24 19 19
11 8 8 6 5 6 7 8 8 8 8 8 8 9 11 11 9 5 3 3 6 6 3 6 7 5 18 24 24 24 24 22 18 10 8 9 9 15 3 4 8 18 18 15 14 16 13 12 13 12 15 22 18 14
11 9 8 5 5 6 6 7 7 7 7 9 9 11 13 14 9 2 1 9 8 6 3 3 5 5 16 13 8 14 17 18 12 12 7 6 11 4 3 11 10 11 14 13 13 13 13 14 16 17 15 19 16 13
11 10 8 5 5 6 6 6 7 7 8 9 9 11 6 3 2 5 7 5 8 5 3 4 2 4 6 8 6 4 6 3 6 8 10 13 3 5 8 12 18 14 15 13 17 15 13 14 14 14 14 11 13 13
11 10 7 5 5 6 7 7 7 7 8 9 7 3 2 5 8 6 2 1 2 2 6 8 6 3 4 7 5 4 3 3 3 3 7 3 4 12 8 12 8 10 13 9 14 13 8 9 10 9 11 10 9 10
10 9 7 5 6 7 8 9 8 7 6 4 3 2 6 11 3 2 3 3 5 4 7 7 7 3 9 3 3 7 1 3 2 1 1 2 2 4 14 16 12 9 11 14 12 10 8 9 12 10 10 9 8 7
10 8 6 5 7 9 11 10 8 6 4 5 8 12 7 2 3 1 2 1 2 3 4 5 3 5 6 5 3 2 2 1 3 3 3 3 4 19 3 8 11 13 13 13 10 8 9 10 11 10 10 7 5 6
9 7 5 4 7 7 4 2 4 3 5 9 1 2 4 3 0 2 2 2 3 5 7 6 2 5 5 6 4 2 1 1 2 2 1 2 6 3 11 7 4 13 9 15 15 11 10 12 10 12 13 6 3 4
6 5 4 4 4 2 4 2 1 3 4 2 2 3 4 3 2 5 5 5 8 11 20 13 6 3 4 4 1 2 1 4 1 4 3 3 3 4 5 5 4 11 17 13 18 10 7 13 10 8 6 5 3 0
4 3 5 6 6 4 3 7 10 10 4 3 4 3 5 6 8 9 13 11 14 14 14 3 4 2 1 2 1 1 2 3 1 3 3 8 6 4 4 7 10 11 7 13 10 14 3 13 12 11 6 4 4 2
2 2 2 4 3 3 10 12 7 5 3 3 5 4 2 6 2 11 7 10 6 15 5 6 4 4 3 1 4 4 2 1 3 4 11 10 10 9 9 9 9 9 5 6 5 8 3 11 12 10 3 6 1 1
2 4 3 2 6 11 8 2 4 4 4 4 6 4 9 11 18 12 4 2 3 11 3 4 3 1 1 2 1 1 3 4 12 13 13 10 8 8 11 11 9 7 9 8 4 4 5 4 10 4 4 6 0 1
5 4 5 5 12 11 5 5 4 5 6 9 3 4 5 6 14 7 2 7 6 2 1 2 1 3 1 1 3 3 7 9 7 11 11 8 9 13 11 17 16 10 9 12 10 5 6 4 4 8 8 9 4 5
7 9 11 9 8 4 2 4 6 4 5 5 5 6 6 1 4 8 4 4 1 3 3 4 3 2 3 4 5 7 5 5 8 11 12 7 8 12 11 6 11 6 8 10 9 5 3 4 7 7 13 9 11 10
8 9 8 4 3 2 3 5 6 6 4 6 7 8 3 2 1 1 5 3 6 1 2 1 4 3 4 1 3 1 2 5 7 13 13 9 7 5 9 10 6 7 7 5 4 8 12 18 14 11 18 16 13 10
5 2 3 3 4 6 5 5 6 6 2 4 2 3 3 4 7 8 5 3 2 3 3 2 4 2 3 3 4 2 4 7 7 8 8 7 7 4 5 4 6 6 9 10 4 9 13 12 11 10 7 11 9 7
1 3 5 3 4 4 7 8 6 3 1 1 5 1 4 3 7 11 7 3 3 3 4 3 4 4 4 6 1 5 6 4 3 7 9 8 11 12 12 14 8 14 13 8 4 9 14 9 9 8 16 9 6 8
3 3 3 4 5 6 6 8 7 3 4 7 1 3 4 6 6 8 3 4 4 5 3 2 1 5 6 1 4 6 6 7 9 10 11 10 9 10 9 16 10 11 9 8 5 9 10 10 10 10 10 13 10 7
2 3 3 4 9 5 4 3 3 2 3 3 2 2 5 5 8 5 3 4 7 8 4 3 5 12 13 11 11 9 12 12 13 10 9 11 14 14 13 10 9 8 7 6 3 7 8 11 13 12 9 10 10 8
3 4 4 6 5 4 3 2 2 3 4 5 0 3 4 3 2 3 4 7 13 10 9 8 10 12 18 17 17 16 12 13 12 12 12 12 11 13 19 19 13 11 8 6 11 11 13 13 13 11 11 11 8 5
1 5 7 5 5 4 2 2 2 2 3 2 3 5 1 1 0 3 4 13 15 10 9 8 11 13 11 6 9 9 9 4 5 12 12 10 10 13 11 14 15 14 12 12 14 15 12 8 10 12 11 7 7 9
3 6 9 10 6 4 2 3 3 2 2 4 2 1 2 2 3 3 11 14 12 8 7 8 8 7 8 8 7 7 6 4 8 12 13 12 12 7 6 9 10 10 11 13 11 8 10 10 10 9 7 9 9 7
9 7 5 10 8 13 4 4 4 5 3 4 2 1 2 3 4 8 10 14 6 8 8 7 8 7 7 6 7 8 8 11 15 14 11 12 16 15 14 15 12 9 10 9 7 10 7 6 5 7 6 5 7 5
8 11 10 13 11 4 5 4 2 2 7 7 4 2 7 3 7 8 13 10 8 8 11 11 12 9 10 12 10 6 15 15 18 18 16 16 13 9 6 8 9 13 13 9 8 6 6 6 8 5 4 4 4 5
11 16 9 4 2 4 8 9 6 12 12 11 6 6 1 6 7 3 8 11 11 11 11 11 12 14 12 12 11 12 9 7 4 22 17 15 14 11 9 8 8 6 7 10 9 8 7 7 4 4 5 4 4 4
6 8 8 8 5 6 3 5 11 9 4 1 2 4 1 2 8 10 6 12 11 15 12 12 12 12 16 15 10 6 8 9 11 11 11 13 13 12 9 8 7 5 5 5 7 6 6 7 2 3 5 4 3 4
9 13 14 5 6 7 5 4 8 6 6 9 10 6 9 7 8 9 15 15 17 14 11 17 19 16 14 12 9 11 7 10 14 14 16 14 13 13 12 10 11 6 5 6 4 3 2 2 3 3 3 3 2 2
16 19 5 4 3 4 2 4 5 3 2 3 4 7 14 8 6 6 9 15 15 14 16 17 18 15 10 6 6 13 11 11 16 14 13 11 11 9 6 12 14 9 6 6 5 5 4 5 3 3 2 1 1 3

GFSWCAN_850_spd_069.txt.gz
Wind_Speed
21 17 16 9 10 9 10 8 9 9 6 3 4 3 3 3 6 6 8 8 2 2 4 4 5 5 5 4 3 2 3 4 4 4 3 2 2 2 1 2 2 3 3 2 2 2 7 3 2 3 2 8 8 9
19 20 10 8 7 7 8 7 7 8 7 5 3 5 5 5 5 5 5 6 7 4 4 9 10 9 8 8 8 4 4 3 4 4 2 2 1 0 1 3 3 2 5 4 6 4 2 1 4 11 13 14 14 15
21 9 5 6 6 6 7 6 5 7 7 6 5 3 5 6 6 6 7 8 6 4 7 7 7 7 11 11 10 5 4 6 5 5 7 3 3 3 2 4 2 3 2 1 4 4 4 9 16 11 11 16 20 22
10 7 6 7 6 5 5 6 5 5 6 6 5 5 4 5 5 6 7 3 2 3 2 4 6 8 9 15 14 11 6 12 11 8 4 3 3 9 3 4 4 6 6 4 5 11 14 8 7 8 7 12 20 22
10 8 7 6 5 6 4 5 5 5 5 5 5 6 6 6 5 4 2 2 2 3 3 9 17 14 20 17 19 18 16 15 15 7 3 3 7 4 4 1 5 11 6 5 5 8 6 10 9 9 12 16 21 24
10 9 8 7 5 6 4 5 6 5 5 5 6 7 7 7 6 3 3 3 2 3 4 3 6 6 12 26 19 23 24 18 14 9 6 6 8 10 4 3 9 19 18 17 5 5 11 13 15 14 14 16 21 23
11 10 9 7 5 4 4 5 6 5 5 6 7 9 9 8 7 3 2 2 5 5 4 6 8 2 7 21 26 26 27 13 12 8 7 8 10 18 2 4 7 15 20 22 16 14 13 15 11 10 14 15 18 18
12 11 9 8 6 3 3 4 5 5 5 6 8 9 9 6 5 7 6 6 8 5 3 2 5 7 3 10 9 19 14 14 9 8 4 7 12 8 4 15 15 13 15 18 19 16 15 13 15 16 17 19 17 18
17 13 9 8 5 3 3 4 4 4 6 7 9 7 3 4 2 8 10 4 6 6 2 2 2 3 2 4 5 5 5 2 4 4 5 8 3 5 9 19 14 16 13 11 14 16 14 18 17 14 14 16 16 14
13 11 10 8 5 3 4 5 4 5 6 8 6 2 2 4 10 5 2 1 4 4 4 5 5 4 4 2 1 2 2 1 2 3 4 2 1 15 7 6 7 13 11 11 11 11 17 19 15 12 14 13 13 10
11 10 9 6 4 5 6 7 6 5 5 3 3 1 4 9 2 1 1 1 1 2 5 7 7 4 4 1 1 2 1 1 1 1 2 2 2 8 10 10 9 11 10 12 15 12 11 11 11 14 14 12 10 9
11 9 7 3 4 7 8 6 6 5 3 3 5 7 5 1 1 1 2 0 1 3 4 4 5 6 3 4 2 1 1 1 2 3 1 2 3 11 10 1 1 6 13 14 15 13 12 9 8 12 12 13 11 8
8 7 5 3 3 4 4 3 3 2 4 6 1 2 3 3 1 2 2 2 2 4 6 4 4 3 1 2 3 1 1 1 2 1 3 3 10 7 3 6 7 10 9 11 14 15 13 13 14 15 15 10 9 10
6 6 4 3 1 1 5 5 3 3 4 1 2 3 4 3 4 4 5 5 8 9 14 11 5 1 2 2 1 2 1 3 1 1 3 3 10 9 6 7 8 8 10 16 19 18 19 10 16 14 10 6 7 9
5 3 3 5 5 4 2 4 7 8 3 2 2 3 5 7 5 7 7 7 10 13 9 1 1 1 2 2 1 2 1 1 2 3 3 9 8 8 8 9 14 19 17 14 18 19 15 18 15 15 12 9 11 10
3 2 4 6 6 1 6 9 7 3 3 3 5 3 2 2 6 4 8 9 3 6 2 1 2 3 2 1 2 1 1 3 4 4 12 18 17 15 13 11 10 14 14 11 10 11 11 13 10 13 9 7 11 11
3 4 5 1 2 8 6 2 2 3 3 3 5 7 2 5 9 7 5 4 3 4 1 2 3 1 1 1 2 3 3 4 11 15 12 15 15 14 15 11 16 16 10 13 9 9 8 7 12 15 12 11 9 7
3 3 3 4 8 10 4 5 3 3 5 8 5 8 9 11 13 7 3 3 2 2 1 0 2 2 1 2 3 4 6 8 9 9 12 12 11 10 11 14 14 8 10 12 9 12 13 12 10 11 9 14 10 9
3 5 7 7 9 5 3 3 5 4 9 7 6 9 9 8 6 8 6 6 4 1 2 2 2 2 3 6 6 9 7 6 5 8 12 9 7 8 7 7 6 5 8 9 12 14 17 13 19 15 15 13 10 8
5 6 7 5 4 3 3 3 5 5 5 5 7 5 5 5 5 5 6 8 9 3 3 2 5 5 5 6 4 4 2 2 4 6 7 5 7 7 6 5 3 2 4 6 2 6 9 11 6 7 14 13 11 6
3 3 1 2 4 7 4 4 6 5 4 4 3 3 5 6 8 7 5 5 6 4 4 7 8 5 5 6 3 3 3 3 4 5 3 5 6 4 6 5 3 6 8 7 3 5 7 10 10 14 11 9 8 7
3 3 4 4 4 4 6 7 5 3 4 3 3 4 4 4 6 8 8 7 5 7 6 6 6 4 6 6 5 3 4 5 1 2 5 3 4 6 8 8 8 2 6 4 2 4 7 7 4 8 5 6 6 7
5 3 3 4 4 5 5 6 6 4 4 2 3 2 3 4 5 7 4 5 7 8 7 4 4 5 6 8 5 1 2 2 3 5 5 3 5 7 9 6 4 8 7 5 4 4 1 1 8 10 4 6 4 3
5 3 3 4 7 5 3 4 4 2 3 2 2 3 3 4 7 3 3 4 5 12 10 7 7 9 14 9 3 5 5 2 5 7 6 7 7 7 7 7 6 6 6 4 5 7 9 4 10 8 7 3 3 1
3 5 4 5 6 4 3 2 2 1 3 4 3 3 3 2 1 3 3 4 14 14 11 7 13 10 10 12 14 11 5 2 4 7 5 5 8 7 5 3 5 5 6 9 11 11 11 11 7 6 6 3 1 2
2 5 7 5 4 4 4 3 4 5 2 3 3 3 2 1 2 4 3 10 17 15 14 19 18 15 11 9 11 11 7 5 5 5 5 7 8 2 3 4 7 8 13 11 12 13 11 10 10 9 7 5 4 2
3 5 8 8 6 2 1 2 2 2 3 3 2 2 1 2 3 3 4 13 18 14 11 9 8 6 7 11 9 8 7 6 6 7 5 6 4 2 3 2 7 9 11 9 9 8 10 8 5 4 5 4 4 3
9 5 6 4 5 8 4 4 4 4 3 4 3 4 3 3 3 4 5 11 10 12 11 9 7 4 5 8 9 12 13 11 10 10 9 9 12 13 12 10 6 6 5 7 6 6 5 5 4 2 1 1 2 2
7 7 5 7 7 5 7 9 7 7 6 8 4 3 4 3 3 4 6 13 12 13 15 16 15 10 10 10 9 12 14 15 17 18 16 15 15 12 8 9 9 6 5 8 5 3 4 5 4 3 2 1 1 3
7 12 6 4 3 5 5 9 9 12 15 12 5 4 5 5 4 5 10 14 14 12 10 11 14 16 14 14 15 17 21 18 15 14 16 14 14 11 9 7 6 8 9 8 5 5 4 3 1 1 1 0 1 1
4 6 7 7 5 5 6 7 8 13 13 10 8 7 6 2 5 9 9 8 11 11 13 14 14 15 16 17 16 14 16 22 22 22 15 9 13 11 9 7 7 6 6 6 6 5 5 5 3 1 3 0 1 4
9 14 7 3 3 6 7 6 8 9 7 10 9 12 7 5 7 6 15 17 17 20 21 19 17 16 16 17 13 12 9 6 11 17 19 14 13 12 9 9 8 7 5 7 6 5 2 1 2 2 3 2 3 3
13 9 7 7 6 7 4 5 7 4 4 5 8 10 11 8 5 1 4 12 20 16 15 14 14 13 12 13 15 15 12 9 12 15 15 12 10 12 11 11 12 9 7 6 7 6 4 5 4 3 2 3 3 5

GFSWCAN_850_spd_072.txt.gz
Wind_Speed
21 20 19 19 8 6 5 6 6 7 6 5 4 6 5 5 6 7 7 7 3 1 5 6 6 5 5 4 3 4 3 3 4 4 3 2 3 2 2 3 1 3 4 3 3 3 6 1 2 3 0 4 8 10
22 20 20 6 4 4 5 4 4 6 5 5 4 4 6 7 8 7 6 7 7 3 3 10 9 7 7 5 7 6 2 4 5 4 1 3 2 2 4 2 2 2 5 3 6 4 3 2 4 7 13 11 8 12
19 19 3 4 4 4 4 4 3 4 5 4 5 5 5 6 6 7 7 7 7 3 5 8 12 12 13 11 10 5 4 6 5 4 8 3 3 3 4 4 2 3 5 3 3 2 7 6 3 3 3 7 7 11
15 11 7 6 5 4 4 4 4 3 4 4 4 4 5 5 6 7 7 4 5 4 2 2 6 5 8 11 13 12 2 8 10 6 4 3 3 8 3 3 4 5 9 5 4 9 10 14 8 3 2 5 9 15
14 10 9 7 5 5 4 4 5 4 4 3 3 4 5 6 7 7 5 3 4 4 2 7 12 10 14 16 16 15 12 12 11 5 3 3 5 4 2 1 3 11 7 5 5 10 5 4 4 3 7 9 10 16
13 9 12 9 6 4 4 3 4 4 4 4 4 5 6 6 6 5 1 0 1 7 5 4 7 3 4 18 18 21 19 17 12 6 5 4 4 8 4 4 9 19 18 21 6 9 6 3 4 6 7 6 11 15
10 11 13 9 6 4 4 3 3 3 3 4 5 6 6 6 6 1 1 2 0 4 3 6 9 2 4 8 21 19 21 12 11 7 5 7 9 9 2 4 4 15 17 19 21 10 6 5 1 2 5 7 11 14
10 12 11 9 8 4 3 2 2 3 3 4 6 6 4 3 5 4 3 3 4 1 1 1 4 6 1 2 5 9 8 13 6 4 2 5 5 7 4 10 17 18 15 19 24 19 13 7 6 6 8 12 12 12
12 16 16 12 8 4 4 3 2 3 4 6 6 3 5 3 2 6 4 2 4 3 0 1 2 3 1 2 3 3 5 2 4 5 2 5 1 4 7 14 16 15 17 10 19 20 16 13 11 10 10 11 11 9
12 15 15 11 6 4 5 4 4 4 4 5 3 1 2 3 6 2 1 1 2 3 2 3 3 3 4 1 2 2 2 2 0 0 3 2 2 11 12 13 9 9 15 9 12 16 17 16 16 13 11 9 9 10
9 15 13 9 5 5 6 7 6 5 4 1 2 1 4 4 1 1 1 1 2 1 4 5 6 3 2 0 2 2 1 0 1 1 1 1 2 5 13 8 13 14 11 18 14 7 7 9 8 10 9 9 11 9
15 15 11 7 4 5 7 7 7 6 2 1 3 3 2 0 0 1 1 1 2 3 3 3 2 4 2 2 1 0 0 1 1 2 1 2 3 6 10 3 11 9 6 6 8 15 14 10 9 8 9 9 11 10
9 9 7 4 0 3 3 2 5 3 1 3 2 0 1 1 3 1 2 2 2 3 4 3 2 1 1 2 3 1 1 0 1 1 2 4 8 9 6 5 5 2 3 8 12 12 14 17 16 17 14 12 12 8
7 5 4 2 1 1 3 4 3 2 2 1 2 3 3 2 4 4 4 3 3 5 6 7 1 1 2 2 2 1 1 1 1 2 3 3 12 11 7 4 9 8 8 12 15 19 20 19 19 13 14 13 11 8
5 2 3 5 5 5 4 3 6 7 2 2 2 3 5 8 5 3 5 5 3 5 5 2 2 1 1 2 1 2 1 2 3 4 3 8 13 14 13 11 12 13 13 14 14 16 17 16 15 15 13 13 10 11
3 2 3 5 6 3 5 10 9 3 2 3 4 3 6 2 3 2 4 3 1 2 2 1 2 3 1 1 1 2 1 3 3 4 10 16 17 19 18 16 17 14 14 19 17 16 9 12 11 11 10 10 9 10
3 3 5 2 1 6 8 4 2 2 3 3 6 10 12 12 8 4 2 1 1 1 1 3 2 1 2 1 2 3 3 4 6 12 13 15 18 18 16 11 9 13 17 15 13 10 12 10 11 13 12 8 5 6
2 4 6 4 7 10 7 3 2 3 5 7 5 5 9 10 9 6 3 3 3 2 3 2 4 1 1 2 3 4 7 11 11 9 10 15 15 13 13 15 15 15 14 13 13 13 14 15 16 21 10 5 10 10
3 6 8 8 9 6 3 2 4 4 7 5 8 10 8 9 9 7 7 5 3 4 5 4 3 2 4 6 6 7 9 9 10 9 11 10 9 11 11 10 12 10 11 13 13 7 13 11 7 11 11 12 13 11
6 8 9 8 6 3 3 3 4 5 4 3 6 7 6 5 5 4 5 7 8 4 3 2 6 6 6 5 5 8 7 6 7 9 8 6 11 12 11 9 10 10 10 11 11 8 4 3 4 6 7 11 9 8
6 4 2 2 3 6 4 3 5 5 5 4 4 5 4 6 6 7 6 7 8 5 6 8 11 6 5 6 8 9 6 6 7 6 7 7 7 9 12 7 8 11 14 14 12 5 8 9 6 12 14 5 5 8
4 4 4 5 3 3 6 7 5 4 4 4 3 4 4 3 4 5 7 8 6 9 10 9 7 7 8 7 7 5 5 6 3 3 4 5 4 7 8 6 10 14 14 11 11 16 8 9 4 11 6 10 7 6
7 4 4 4 3 4 4 5 4 3 2 2 1 2 4 3 3 6 4 5 7 10 11 10 7 6 5 5 4 1 2 3 1 3 4 5 5 6 8 6 7 11 11 7 6 5 5 8 13 8 6 6 6 7
5 3 3 4 6 5 3 4 4 3 3 2 1 3 3 3 4 3 3 4 6 10 13 11 9 6 5 7 4 7 6 1 1 2 1 0 2 5 3 5 9 8 7 6 6 5 7 5 4 7 7 7 6 4
2 5 4 5 5 3 3 2 2 1 3 3 2 3 2 3 2 2 3 4 8 14 14 12 8 5 5 9 9 9 7 2 1 2 3 2 1 2 5 5 8 6 8 7 9 11 12 9 5 3 3 4 4 3
2 5 7 4 3 4 3 2 4 5 2 2 4 2 1 1 1 4 3 3 11 17 15 12 9 12 8 6 11 11 7 6 4 1 0 1 1 6 6 5 5 9 7 6 7 8 8 8 8 7 5 5 5 4
3 5 6 7 5 3 3 4 3 2 3 3 2 1 1 2 4 3 1 5 8 10 6 5 6 7 8 12 12 11 8 7 6 6 6 6 2 2 3 3 4 7 7 6 5 5 4 4 5 8 8 6 5 4
7 4 5 2 5 7 3 2 3 4 3 4 4 3 3 4 3 0 2 8 11 9 11 12 10 8 8 9 10 13 12 10 7 5 7 5 7 5 4 5 5 5 4 4 3 2 1 2 4 6 6 4 2 4
6 6 5 5 6 6 6 8 5 6 4 9 6 4 4 3 2 2 4 13 15 13 13 14 14 12 11 11 11 13 12 11 11 8 7 9 11 7 6 6 5 3 3 3 1 2 0 2 1 5 5 4 4 4
6 11 6 4 4 5 6 9 6 7 8 10 6 4 4 5 6 6 9 14 18 14 9 9 10 13 13 13 12 13 14 16 14 11 7 7 8 10 8 6 6 5 4 3 0 1 1 1 4 5 5 5 3 5
4 7 6 6 6 12 15 13 11 9 9 9 11 8 6 3 4 7 11 7 10 14 15 14 14 13 14 15 14 11 12 11 17 17 13 4 8 12 10 9 7 5 4 4 6 5 5 6 6 4 3 4 4 5
9 12 7 4 4 4 4 4 3 4 4 6 6 6 6 5 4 4 12 18 17 19 18 15 14 14 12 14 12 10 6 5 5 11 19 14 10 11 11 9 8 8 7 8 8 7 7 6 5 6 7 7 7 5
9 7 10 7 3 4 7 4 4 2 3 2 2 3 5 4 3 2 4 8 18 23 19 17 15 18 17 15 14 14 11 8 5 7 14 18 16 13 12 11 9 9 9 9 10 10 8 7 7 7 7 6 5 5

GFSWCAN_850_spd_075.txt.gz
Wind_Speed
23 22 20 21 17 6 3 6 5 6 7 7 5 5 6 5 7 8 6 6 4 1 7 8 7 7 6 4 3 5 3 2 2 2 1 2 2 2 2 1 3 5 5 3 2 4 6 7 5 5 5 4 1 2
20 18 20 13 1 2 3 5 5 5 6 6 5 5 4 6 6 7 6 6 6 3 4 10 10 7 4 2 7 8 0 3 3 4 1 3 2 3 3 3 3 3 2 3 6 3 3 6 3 3 3 4 5 3
18 15 13 5 4 3 4 4 4 4 4 5 4 4 4 4 5 6 6 6 6 2 4 6 9 14 11 8 6 4 3 5 5 5 5 2 2 3 4 4 3 5 4 3 2 7 12 10 5 4 5 5 4 2
15 12 10 8 7 5 4 4 4 4 5 4 3 4 4 4 5 6 5 4 4 3 1 1 3 2 5 12 10 10 2 8 10 6 3 2 2 6 2 1 3 2 10 6 5 6 3 10 10 4 4 4 3 3
13 11 9 10 10 4 4 5 5 5 5 4 4 4 4 5 6 7 4 3 5 5 3 4 6 5 7 11 12 12 10 9 9 4 3 2 5 5 3 3 4 12 7 6 5 10 6 5 10 13 9 7 7 5
12 8 9 12 5 4 5 5 5 5 4 4 4 5 6 6 5 5 1 3 4 9 3 2 3 2 2 14 14 14 14 11 9 6 3 3 4 6 4 4 6 15 16 15 4 13 8 10 12 13 12 9 7 7
11 9 10 12 9 6 5 5 4 4 3 3 3 5 5 5 2 3 2 4 2 4 3 3 2 1 2 7 12 12 14 8 5 5 4 3 4 8 1 4 5 10 17 14 16 15 10 15 9 12 11 9 7 7
11 10 8 10 10 8 5 4 3 3 2 3 4 5 2 6 5 3 5 3 2 2 1 2 1 1 2 1 3 5 3 4 3 5 4 4 4 3 3 9 12 11 13 14 19 21 6 10 13 12 10 8 7 7
10 10 8 13 11 8 5 4 2 3 3 4 4 1 5 2 1 3 5 4 3 1 2 1 2 2 3 1 2 3 3 2 2 4 4 6 1 3 7 14 18 17 12 8 7 21 19 15 12 12 11 9 9 8
8 6 8 14 12 7 4 3 4 5 4 3 1 1 1 1 1 2 2 2 1 1 1 2 1 1 2 1 1 3 3 1 1 2 2 1 2 13 16 17 20 18 14 11 6 13 18 18 16 15 15 11 10 7
6 6 17 17 9 3 4 6 6 6 4 1 0 1 1 0 2 1 1 0 0 2 3 3 5 3 1 2 1 0 1 1 1 2 1 0 2 5 7 12 8 2 5 8 7 6 10 14 12 13 15 14 12 9
14 19 15 7 5 3 8 8 7 6 2 2 2 2 2 2 1 1 1 2 3 1 3 3 2 3 1 0 2 1 0 1 1 1 0 2 3 6 8 7 1 11 8 15 11 11 10 11 13 13 13 14 12 8
18 15 12 7 2 2 3 4 6 5 1 3 1 0 1 1 2 2 0 2 2 4 5 3 1 2 2 2 1 2 3 1 2 2 2 3 7 8 6 4 2 10 3 4 4 8 14 16 16 20 18 16 13 11
6 8 4 3 1 3 5 7 5 4 2 1 2 2 2 2 3 3 2 1 1 3 3 2 3 2 2 2 1 2 2 2 2 2 2 2 4 9 9 6 7 12 12 12 11 15 17 18 25 22 21 19 18 15
4 2 2 4 4 3 2 1 5 7 2 2 2 3 5 5 5 4 5 3 3 2 2 4 3 2 2 2 0 1 2 2 2 1 2 4 11 13 14 13 12 14 13 12 9 14 17 16 16 18 19 17 17 15
2 3 4 6 5 2 3 7 8 4 2 2 4 4 5 2 2 2 3 3 4 2 3 2 2 2 1 0 2 1 1 2 1 3 7 9 12 14 15 14 12 10 10 10 14 18 20 19 17 13 11 14 16 14
1 2 3 2 2 5 8 4 2 2 2 3 5 9 10 9 6 4 3 4 5 4 1 2 0 1 2 1 2 2 2 3 6 7 6 8 13 12 12 11 11 9 9 13 14 11 13 14 11 9 7 11 16 13
1 2 4 3 7 10 6 2 2 2 4 6 5 3 7 8 6 6 5 8 7 3 4 1 4 2 2 2 2 3 6 6 6 6 5 9 10 11 12 13 12 10 9 10 11 15 11 10 8 9 7 11 16 10
2 3 5 5 8 7 2 2 3 3 7 5 8 10 7 7 8 7 8 8 7 6 4 4 2 3 3 5 5 4 6 6 4 5 7 7 9 11 10 9 10 11 10 11 10 7 4 5 4 4 5 4 5 13
5 5 6 6 5 2 2 3 3 4 4 3 6 5 5 4 3 4 9 13 10 5 3 3 5 5 5 4 5 6 5 4 5 4 4 4 8 10 9 11 12 13 11 10 9 8 8 11 5 1 1 11 14 12
4 3 1 1 1 5 3 3 4 5 5 5 6 4 4 6 6 6 8 11 7 5 6 10 10 5 4 4 5 5 3 3 4 2 2 5 7 9 9 11 12 13 13 12 8 7 7 6 10 14 15 19 20 8
1 2 2 3 2 3 5 6 5 4 4 5 5 4 4 3 3 4 7 8 6 8 11 11 9 7 5 6 5 2 1 1 3 4 6 7 6 6 6 8 11 14 12 8 13 12 9 7 13 16 17 14 11 9
5 3 2 3 2 3 4 4 3 4 3 2 2 3 3 3 2 4 4 5 6 9 11 9 10 8 7 5 4 4 4 4 5 6 7 7 6 6 7 8 9 8 8 8 8 8 14 13 10 8 10 9 8 6
5 2 3 3 4 4 2 4 5 3 2 3 2 3 2 2 2 2 3 4 6 6 9 12 11 10 10 10 9 8 7 6 4 5 5 6 4 5 7 9 9 9 10 11 10 9 8 8 9 9 8 6 5 4
2 4 3 4 4 3 4 3 3 3 3 3 2 3 2 2 2 2 2 3 5 8 12 13 12 8 10 11 12 10 8 7 4 5 6 6 5 5 6 8 8 9 9 8 9 10 9 6 5 5 5 5 4 4
1 5 7 4 3 4 3 2 3 3 2 3 4 1 2 2 2 4 2 2 4 9 14 14 11 12 11 8 14 11 9 7 6 5 6 7 6 4 4 4 7 7 7 7 7 7 7 8 8 7 5 5 5 4
3 4 6 6 4 3 4 4 3 4 4 3 2 3 2 3 4 2 3 3 3 7 10 9 8 7 9 12 15 13 10 8 7 5 8 8 5 2 4 5 8 8 6 4 4 5 5 5 6 6 5 5 5 4
7 3 5 3 5 6 3 2 3 3 2 2 3 4 3 3 2 1 2 7 8 10 13 14 12 9 9 10 13 14 13 11 8 7 7 7 6 5 6 7 8 7 5 5 5 3 4 3 3 5 5 4 2 5
5 5 5 5 5 5 7 7 5 5 6 8 2 3 3 4 4 3 5 12 12 12 14 17 16 14 14 13 12 14 14 13 12 10 9 8 7 6 6 7 7 5 5 3 2 2 2 3 5 7 7 6 5 4
5 10 5 4 4 5 7 9 6 7 8 9 7 6 7 7 5 6 9 16 18 15 13 13 14 15 15 15 14 16 18 18 14 9 7 7 8 10 9 8 7 6 5 2 3 4 3 3 5 6 6 4 4 5
3 7 5 6 5 10 15 17 17 15 14 10 11 11 8 5 5 5 10 15 17 17 16 16 15 14 15 16 15 14 14 12 14 14 12 5 6 10 12 10 8 6 4 2 2 2 4 6 7 6 4 4 5 5
8 10 6 3 4 6 6 5 4 4 4 5 5 8 6 6 5 5 11 19 21 22 20 17 15 13 11 12 11 8 5 4 5 6 14 15 10 8 12 12 10 8 6 6 6 6 6 7 7 6 6 7 7 6
7 6 8 7 5 4 4 4 2 2 2 2 1 2 3 3 2 2 1 5 13 19 19 18 17 17 14 12 12 11 10 11 9 7 11 17 15 10 13 13 11 8 7 7 7 8 9 9 7 7 6 6 6 5

GFSWCAN_850_spd_078.txt.gz
Wind_Speed
19 17 16 16 13 3 2 3 5 5 6 6 6 4 5 5 6 6 4 5 3 2 3 5 2 2 2 2 1 6 5 3 4 2 2 2 1 2 2 2 3 6 6 5 5 6 8 10 7 6 8 9 8 5
18 16 14 10 3 1 1 5 5 4 6 6 5 5 4 5 5 5 2 6 3 1 0 5 5 3 2 1 2 4 3 2 3 3 1 3 2 3 4 3 3 4 3 2 4 2 5 12 2 7 4 3 3 2
16 15 10 8 5 2 3 4 5 5 4 4 4 4 4 5 5 5 4 5 2 1 2 4 5 6 5 3 3 2 2 3 3 1 5 3 2 4 4 4 4 5 5 5 2 8 7 9 7 6 4 3 5 5
15 14 10 7 7 6 3 4 4 5 4 3 2 3 4 5 5 6 3 4 3 1 4 4 2 1 7 8 7 4 3 4 6 4 3 3 2 4 2 1 5 1 8 7 8 8 4 12 12 10 8 7 6 5
13 11 10 6 7 8 5 3 4 5 4 5 3 3 4 5 6 6 4 4 6 2 4 3 1 2 2 5 8 7 7 5 4 3 4 2 3 4 3 3 6 10 8 7 4 3 10 2 15 14 12 11 8 5
12 10 8 5 7 9 5 2 4 4 4 5 3 4 5 5 4 3 1 3 5 5 1 2 1 2 2 8 9 9 8 5 3 1 2 2 1 3 3 3 4 5 10 13 7 5 7 4 10 15 12 10 7 6
11 9 7 5 10 7 5 3 3 3 3 2 2 4 4 3 2 1 1 3 2 5 0 3 5 1 4 7 6 7 6 4 3 1 2 5 3 3 1 3 5 8 10 11 8 5 7 10 8 11 10 9 8 6
12 10 7 7 12 10 6 5 3 1 1 2 4 4 1 6 4 4 6 2 1 2 0 2 3 5 3 3 5 3 4 3 2 3 1 1 4 5 3 13 12 10 11 13 16 14 14 11 10 12 11 11 10 9
11 10 8 7 15 11 7 5 3 1 1 2 4 3 5 2 1 2 3 5 3 1 2 1 4 3 2 1 4 4 3 1 2 1 2 5 2 4 7 9 12 12 9 11 13 21 19 12 15 14 14 13 12 10
6 7 10 11 15 10 4 3 3 2 1 1 1 2 2 1 1 2 3 1 1 1 1 1 2 1 4 1 3 5 5 3 3 4 7 3 3 8 8 9 13 14 13 10 10 12 17 20 16 16 17 16 14 11
4 8 9 17 14 8 4 5 4 3 2 1 1 1 3 0 1 1 1 1 1 3 3 2 3 4 2 3 1 1 1 3 2 3 2 1 2 6 7 9 8 3 1 7 8 6 12 16 18 19 19 19 17 16
8 11 20 19 11 7 5 8 6 5 4 3 2 1 1 1 1 3 2 3 3 0 4 1 2 2 1 1 2 1 2 2 2 1 0 1 0 5 6 7 5 4 6 7 9 8 10 13 17 16 16 17 18 17
18 16 16 10 4 2 2 3 7 6 4 1 2 2 1 3 1 3 2 3 2 3 4 2 0 2 2 2 3 3 3 0 1 1 1 4 6 6 7 5 5 7 9 8 8 10 12 14 14 16 15 15 16 17
10 8 5 4 4 4 7 7 5 2 2 2 3 1 4 4 4 0 3 3 2 1 0 2 2 2 4 3 2 2 2 2 2 2 3 4 7 9 10 9 9 10 11 13 11 11 13 16 18 19 16 23 22 21
4 2 1 3 3 4 4 2 3 4 2 3 3 3 5 3 1 1 2 2 2 2 1 2 3 4 3 2 2 1 3 3 2 2 5 10 8 7 9 11 11 12 13 13 13 12 12 13 15 15 17 22 24 23
3 5 6 7 6 4 2 5 6 3 2 3 4 4 4 3 3 2 4 3 4 2 1 1 1 2 2 2 3 3 2 2 2 4 9 8 5 7 9 9 9 9 8 8 9 11 14 14 13 15 16 18 23 24
0 1 4 4 3 4 6 4 2 3 3 3 5 6 7 6 5 3 2 3 5 4 3 0 1 2 1 3 2 2 3 5 8 8 6 3 5 7 8 9 9 10 8 8 10 11 13 14 11 11 10 8 12 18
2 2 4 3 5 9 5 2 2 3 5 7 5 3 6 5 4 4 5 6 6 4 2 1 0 4 2 3 3 3 5 5 3 3 3 2 3 4 6 7 6 5 6 8 11 11 10 7 4 7 7 5 8 11
3 2 3 4 6 5 2 2 3 4 5 4 6 7 7 7 7 7 6 7 8 4 2 3 3 3 2 4 7 6 4 4 4 2 1 2 3 3 3 4 4 6 7 8 10 9 8 7 3 3 3 5 9 15
4 5 5 6 6 2 3 3 3 4 4 1 5 6 6 5 4 5 9 9 8 5 6 4 5 6 5 3 3 3 2 2 3 4 4 0 1 3 4 4 5 6 7 8 7 7 7 7 6 1 5 7 5 16
4 3 2 1 3 7 4 3 4 5 5 4 5 5 4 5 7 8 9 10 10 7 9 10 8 2 5 4 4 4 4 3 2 3 1 4 2 3 3 3 5 7 7 9 9 11 11 7 7 8 10 16 10 6
4 3 3 4 3 4 4 6 4 3 4 6 6 6 7 6 6 5 5 10 7 15 11 8 5 8 8 7 5 5 5 4 6 6 5 7 6 4 2 2 3 5 4 5 6 7 9 11 11 11 12 8 6 7
6 5 3 4 3 4 4 4 4 4 4 3 3 4 4 3 2 4 5 7 6 5 5 4 8 10 10 9 8 8 7 7 5 5 7 7 6 5 2 3 3 5 5 4 5 7 7 7 7 7 6 6 5 2
6 3 3 3 5 4 3 4 5 4 4 5 3 3 3 2 4 4 4 3 3 4 6 8 12 12 10 11 8 8 8 7 6 6 7 7 6 5 4 4 7 7 7 6 6 5 7 6 5 4 4 3 2 2
3 4 4 5 5 3 4 3 4 4 4 3 3 3 4 5 3 3 4 3 5 6 9 12 12 10 9 9 9 9 9 7 6 6 7 6 6 6 5 6 8 6 6 7 8 6 5 3 2 3 3 3 2 1
3 5 6 5 4 5 3 3 2 2 3 2 3 2 4 3 3 4 3 4 5 8 11 14 13 10 10 10 11 10 10 8 7 6 7 7 6 5 6 8 8 6 7 6 5 5 4 4 4 3 3 3 3 2
3 4 6 6 4 5 5 5 6 5 4 3 2 3 3 3 3 1 3 3 4 7 11 11 10 9 10 11 12 12 11 9 7 5 7 8 6 5 5 7 8 8 7 6 5 5 3 3 4 4 3 2 3 3
6 4 6 5 6 8 8 5 3 3 1 2 2 2 2 2 2 1 2 5 7 10 11 11 10 9 10 12 13 15 12 10 9 8 7 7 5 5 7 8 9 12 8 7 5 4 3 1 2 3 3 2 2 2
6 6 5 8 8 6 5 5 5 4 4 4 3 3 5 4 4 3 3 8 10 12 13 13 12 12 12 13 13 13 13 12 12 11 9 7 7 7 8 9 8 8 7 5 5 6 4 3 1 2 2 2 2 3
8 10 6 6 6 6 8 9 9 6 7 8 8 10 11 11 9 8 9 11 15 15 14 13 14 15 14 14 14 13 13 13 12 10 9 8 8 9 10 10 10 9 9 7 6 6 5 3 2 2 3 2 3 4
3 6 7 10 10 11 13 13 13 14 14 15 14 14 14 10 7 8 9 10 12 13 15 16 16 16 15 14 13 13 13 14 15 14 10 7 9 11 12 11 10 10 9 8 7 5 3 1 2 3 2 3 4 4
8 10 7 5 8 5 5 6 7 9 7 8 8 6 6 5 6 1 5 10 14 13 14 11 10 10 10 9 8 10 10 9 10 13 17 14 11 12 13 13 12 11 10 8 6 5 4 3 2 3 3 4 4 4
9 9 9 9 5 4 5 5 4 4 5 3 2 3 4 4 3 4 5 4 6 6 8 11 12 11 9 7 10 13 15 11 11 9 9 16 18 14 14 13 13 12 10 9 7 6 6 6 6 5 5 4 4 4

GFSWCAN_850_spd_081.txt.gz
Wind_Speed
21 19 17 16 12 7 2 1 4 4 6 6 5 4 2 4 4 3 3 5 4 4 6 3 3 2 4 5 3 8 5 4 6 2 1 2 2 1 3 6 2 6 5 5 8 8 10 10 6 6 11 12 11 11
20 17 15 12 7 5 3 5 5 3 4 6 5 4 4 4 4 4 1 5 1 3 6 3 3 3 2 2 3 3 5 2 8 2 1 2 1 3 4 2 3 4 3 3 4 4 7 6 8 10 9 12 8 8
18 15 12 8 8 7 5 4 4 4 3 4 4 5 4 5 4 2 1 4 2 4 6 6 7 5 3 1 2 6 2 3 2 4 5 3 1 3 3 4 5 5 2 5 3 9 4 4 6 6 5 6 7 6
16 13 10 8 7 9 5 3 3 3 3 4 3 4 4 4 4 4 2 4 1 3 6 8 4 3 4 3 2 1 1 1 1 4 7 4 3 3 3 3 5 4 6 5 7 6 2 8 9 8 6 6 7 7
15 12 8 6 7 9 6 3 3 3 4 4 3 4 4 4 4 3 1 2 4 3 7 11 4 1 2 3 5 4 4 3 4 2 4 3 4 1 7 4 5 9 5 5 4 7 5 4 13 11 10 9 8 8
14 11 8 6 7 8 6 3 2 3 4 3 2 4 5 4 3 3 6 0 3 3 5 4 5 3 1 6 6 5 5 4 4 4 3 2 0 5 2 2 5 4 2 7 9 3 7 2 5 13 11 11 9 8
13 12 9 6 7 9 7 3 3 3 2 1 2 4 4 2 3 4 4 3 8 3 5 4 8 4 4 6 6 5 3 2 3 3 3 4 7 11 4 2 4 8 11 11 10 7 7 7 8 10 12 11 11 9
11 12 9 8 9 12 8 4 3 3 1 2 4 3 3 6 6 3 5 1 6 1 3 3 5 7 6 3 3 5 5 2 2 3 2 2 2 2 2 13 15 12 13 12 13 14 15 7 11 12 13 13 12 11
9 10 9 10 10 12 8 2 3 3 1 2 3 4 3 3 1 2 4 4 2 2 6 4 4 4 6 2 3 2 4 3 5 4 2 5 2 4 8 11 10 10 13 16 14 13 16 17 16 15 17 15 15 12
4 8 11 8 14 12 8 5 4 3 2 1 3 2 3 1 4 1 2 2 4 4 3 3 0 2 4 3 4 4 5 2 3 3 9 4 3 12 10 7 10 12 12 13 15 15 13 15 22 16 19 17 15 13
5 7 11 11 17 11 8 5 3 3 2 1 2 2 2 0 2 1 3 3 2 4 4 4 6 5 3 3 2 5 2 3 2 4 3 2 2 6 3 6 7 9 8 6 9 11 11 15 23 17 15 15 14 15
5 7 11 19 16 9 4 6 6 5 3 5 3 2 1 2 1 3 4 3 4 1 1 4 4 4 2 1 4 2 2 4 1 7 2 2 2 2 4 8 8 7 6 6 8 10 12 14 17 21 20 20 19 19
21 21 18 17 15 3 5 5 6 5 4 1 1 2 2 4 2 4 4 1 2 3 6 4 4 3 0 2 1 2 2 1 2 2 2 5 5 3 5 8 9 6 8 9 10 13 17 17 17 21 22 20 17 18
11 9 10 7 5 5 6 7 6 2 2 4 4 2 5 4 4 1 6 2 2 3 3 5 3 2 3 4 4 3 2 1 2 3 3 7 2 5 7 9 11 12 12 12 12 12 12 13 16 19 18 20 21 19
4 3 2 3 3 4 4 2 2 3 2 4 4 3 6 9 2 5 1 1 4 2 2 4 4 4 5 3 3 3 2 4 3 4 3 7 3 7 8 10 12 12 12 13 10 7 10 12 14 14 17 19 23 23
4 5 5 4 5 3 3 5 6 2 3 4 5 7 7 5 2 1 3 2 3 2 3 3 1 1 2 2 3 3 3 3 3 4 7 6 7 8 8 9 10 10 10 10 9 10 12 14 17 18 16 14 14 20
2 2 3 2 1 3 5 3 2 4 5 4 7 10 6 5 8 5 1 3 3 7 2 1 2 1 3 3 3 1 4 6 11 9 8 6 5 5 9 9 10 10 9 9 11 11 13 14 15 15 14 10 12 13
3 2 5 5 5 8 5 2 3 4 6 10 9 6 6 5 9 6 6 4 5 5 4 3 3 6 1 3 4 4 7 7 5 3 6 5 4 6 8 6 5 6 7 9 10 11 10 10 10 8 8 7 7 8
3 3 2 4 5 4 2 3 5 5 9 7 8 8 7 7 5 7 4 7 10 5 4 4 3 3 4 1 4 8 5 5 1 2 4 2 2 4 3 2 2 5 6 8 9 11 9 9 10 6 6 5 6 6
4 4 5 6 6 1 3 4 5 6 6 3 7 9 5 8 11 8 10 10 10 11 9 5 4 9 12 3 3 4 4 3 5 4 6 5 2 2 1 3 4 5 5 6 7 11 7 6 8 6 3 2 2 8
4 3 3 2 3 6 5 5 6 8 7 6 8 4 8 11 11 14 13 11 13 16 13 12 8 16 1 3 2 2 3 3 4 4 5 2 2 3 3 1 2 3 5 6 6 11 12 9 7 6 9 9 8 10
5 3 2 3 3 4 6 8 8 6 6 11 8 10 11 11 10 12 5 12 14 14 18 14 7 7 6 6 5 4 6 4 3 3 4 4 6 5 4 2 2 1 4 2 2 4 5 6 5 5 4 4 5 6
5 3 2 4 4 4 7 6 7 8 5 5 6 5 7 8 5 3 5 10 11 8 5 4 4 6 8 10 8 8 7 6 5 5 6 5 4 4 3 2 2 2 2 3 5 2 3 3 5 4 3 2 2 1
6 2 4 5 8 5 5 9 7 5 5 7 3 4 4 5 6 6 7 8 7 6 7 7 11 11 11 10 8 8 7 7 6 6 7 7 6 4 3 3 4 2 1 5 5 3 2 2 1 0 1 2 1 2
4 5 5 6 5 3 5 7 12 7 6 6 8 4 2 5 3 6 7 7 9 8 8 11 13 12 11 9 9 8 9 8 8 7 8 8 6 6 5 5 5 4 3 4 5 3 1 0 1 2 2 2 3 2
4 7 7 5 8 6 5 3 2 4 6 4 4 3 4 3 3 5 2 6 6 7 9 12 13 12 10 9 10 10 10 9 8 8 8 9 8 8 7 7 7 5 5 5 4 2 2 1 1 1 1 2 1 2
4 6 9 9 7 6 6 8 10 6 5 4 1 2 2 4 3 2 4 2 3 5 8 10 11 10 9 10 10 10 10 9 8 5 7 9 7 7 6 7 8 6 6 5 4 3 3 1 0 2 1 1 1 2
9 5 8 11 12 11 11 10 8 4 3 3 5 5 3 3 2 4 3 3 4 7 9 9 9 9 10 11 12 12 11 9 8 7 6 6 5 5 6 6 7 11 7 6 5 3 4 2 2 2 2 1 2 2
9 9 10 9 10 8 9 9 11 9 6 4 6 5 2 4 11 9 3 5 6 9 11 11 10 10 11 13 13 13 12 11 10 9 8 7 6 7 7 8 6 9 7 6 10 6 6 3 2 1 1 1 1 2
13 12 12 11 11 11 14 12 10 14 9 9 9 12 14 14 9 5 3 5 8 10 10 10 10 11 12 13 13 12 11 10 10 9 9 8 7 8 9 10 9 8 9 7 5 5 5 6 0 2 2 3 3 4
8 7 11 14 15 15 16 15 16 16 15 15 14 15 16 13 4 6 2 3 5 8 11 12 10 10 10 10 11 11 10 10 10 10 9 7 7 9 10 10 10 10 10 9 9 7 6 4 5 4 4 4 4 4
12 12 12 9 12 11 10 12 13 15 14 13 13 9 9 7 4 5 12 7 3 3 10 14 11 11 8 11 10 9 6 6 10 10 12 11 8 10 10 11 11 11 10 10 9 8 7 6 6 5 6 6 5 5
10 10 10 11 13 8 10 10 9 11 11 2 8 6 9 9 6 4 9 8 2 4 11 19 22 18 14 12 14 14 7 7 7 11 13 15 14 13 11 11 12 12 11 10 9 8 8 8 8 8 7 7 7 6

GFSWCAN_850_spd_084.txt.gz
Wind_Speed
23 21 20 17 15 9 5 5 6 6 6 7 6 6 5 4 3 2 3 8 7 10 7 1 3 1 2 7 6 4 5 4 5 3 1 4 3 4 4 7 7 4 6 5 7 7 5 9 2 2 7 10 10 11
21 19 17 12 11 7 5 5 5 4 5 6 5 6 5 5 4 5 4 6 7 6 7 0 1 1 1 3 7 1 4 3 9 3 2 2 1 2 3 2 0 3 8 4 6 6 10 13 15 13 12 11 10 11
22 18 14 10 9 6 5 5 5 4 3 4 4 4 4 4 3 1 2 7 5 7 8 6 7 3 1 1 4 7 4 3 1 4 2 3 1 3 2 4 8 3 3 4 3 9 8 7 7 7 9 10 8 8
20 17 13 9 9 6 5 5 4 4 4 3 3 3 3 3 3 0 5 6 5 9 5 9 2 3 2 1 1 2 2 1 1 3 9 5 3 7 3 4 4 4 3 1 6 4 6 5 6 7 6 6 9 8
20 16 12 9 7 4 5 5 3 4 4 3 2 3 4 4 3 1 3 1 4 6 6 7 6 2 2 0 2 1 2 2 6 3 5 5 6 5 4 7 3 4 6 4 4 6 8 2 13 11 10 9 9 11
19 15 12 8 6 4 5 4 2 3 4 3 3 4 5 4 3 5 3 1 3 6 6 2 4 3 2 3 3 1 1 4 5 4 3 6 6 9 3 2 8 9 13 12 7 9 3 4 2 8 11 11 12 12
21 12 12 10 6 6 8 5 1 3 4 3 4 6 5 2 2 4 0 5 7 3 5 3 6 4 4 6 4 4 1 2 2 2 2 3 5 7 2 3 2 8 8 9 10 9 8 9 8 10 12 12 12 11
18 10 11 9 6 7 11 7 2 3 3 3 5 4 4 3 3 4 3 11 6 3 5 1 2 5 6 5 3 4 4 3 2 1 0 2 3 3 2 10 10 11 12 11 11 10 14 8 10 8 13 14 13 13
7 8 9 9 8 10 12 8 3 3 2 3 3 3 2 2 1 2 7 6 6 4 5 2 4 4 5 5 3 5 5 1 5 1 2 3 2 4 8 6 7 9 10 12 13 13 11 15 12 12 11 17 18 16
3 8 9 10 8 15 13 7 2 2 2 1 1 1 2 1 6 1 4 3 4 5 7 6 4 4 4 7 3 1 2 2 2 3 7 4 3 13 8 10 10 6 10 12 13 14 16 14 16 16 19 18 19 18
1 5 10 8 14 15 12 7 2 1 1 0 3 3 2 2 2 1 4 5 7 3 5 3 6 2 4 4 2 8 3 3 3 4 3 3 2 3 4 1 6 6 5 6 8 7 7 9 14 15 18 15 16 18
2 5 9 11 18 15 8 5 3 3 3 4 5 3 1 1 1 4 2 3 3 3 4 4 3 4 3 2 3 2 2 1 1 10 2 2 4 10 3 2 5 6 7 6 5 7 8 7 7 11 14 15 15 16
15 13 13 18 15 7 4 8 7 5 3 1 1 2 3 3 1 5 4 3 3 4 5 8 6 3 3 2 2 1 2 2 7 2 2 3 9 4 3 6 7 7 6 11 9 11 10 12 13 11 13 18 21 22
12 12 11 10 5 3 5 7 7 4 2 5 6 2 4 5 4 4 4 4 7 4 7 6 3 0 3 2 3 3 3 2 4 4 4 4 3 0 5 7 9 12 12 12 10 12 10 11 13 15 21 23 23 24
4 3 2 3 3 4 4 2 0 1 2 5 4 2 7 8 6 4 2 1 4 0 2 8 3 6 3 5 2 2 2 1 4 4 3 11 5 3 4 6 9 11 10 11 13 10 8 11 10 12 18 25 23 25
2 3 4 2 3 2 2 4 4 1 4 4 6 9 4 5 6 2 7 5 4 4 4 4 3 1 3 1 2 4 2 3 1 1 15 12 6 4 4 6 7 7 9 9 9 10 11 11 11 14 15 17 15 18
2 1 2 1 1 3 4 2 2 4 5 5 8 13 9 6 18 6 7 4 2 6 4 2 3 3 2 3 3 3 2 4 6 6 9 10 8 5 4 5 6 6 6 7 9 11 11 11 13 14 16 15 13 12
4 3 4 5 5 6 4 3 4 5 8 11 11 8 5 1 5 6 15 6 5 4 3 2 4 6 4 3 6 1 4 7 5 4 9 8 5 2 2 2 2 3 5 7 7 11 8 9 12 13 11 8 6 9
5 5 2 4 4 2 3 5 5 5 11 13 11 11 3 5 8 10 16 8 7 7 5 4 3 4 4 3 10 7 7 4 3 7 6 6 5 3 2 1 2 2 5 4 7 10 9 10 10 9 8 4 6 9
6 6 5 5 5 2 4 5 6 6 8 7 9 11 7 12 12 13 14 10 11 12 8 4 4 11 17 9 13 2 1 2 4 6 6 9 7 6 3 2 1 3 2 6 6 11 8 6 8 10 6 7 9 11
4 2 3 3 4 7 5 6 11 8 11 13 10 13 9 12 14 15 23 13 7 11 10 19 12 4 13 12 6 3 4 4 4 5 5 5 7 7 4 5 3 1 1 3 4 5 9 9 5 4 6 6 4 7
5 7 3 3 4 5 8 10 9 9 10 13 16 17 11 13 13 13 15 12 18 17 21 20 13 7 14 9 5 4 8 8 4 4 6 5 5 6 7 4 3 2 2 2 2 1 4 4 3 4 5 2 2 3
5 3 3 5 4 5 7 8 12 14 9 9 12 15 16 17 17 11 10 21 24 22 16 8 9 6 5 11 10 7 6 7 4 7 5 7 5 3 4 3 3 2 3 6 1 0 2 2 2 3 3 3 3 2
6 3 5 5 9 5 7 9 10 10 7 12 8 9 6 5 12 13 10 18 7 6 12 12 9 9 10 9 8 6 6 7 7 5 6 6 6 5 4 3 4 1 1 4 1 1 2 2 3 4 4 4 4 4
4 5 5 7 6 6 5 8 13 12 14 11 10 6 5 4 5 8 11 2 17 8 14 11 12 11 11 10 10 10 9 8 8 7 7 8 7 6 5 5 5 4 3 4 3 2 1 2 4 4 5 5 7 6
6 7 8 6 8 6 5 1 3 8 7 3 3 5 9 4 4 7 3 7 9 16 11 9 10 12 12 11 11 11 9 10 8 8 9 10 9 8 8 7 7 7 5 3 3 3 1 1 3 3 3 3 6 1
4 7 13 16 13 12 7 7 11 8 6 6 4 1 3 1 5 2 16 7 11 3 4 8 10 11 9 10 9 9 9 10 8 6 8 9 9 7 5 7 7 7 7 5 4 3 3 2 2 3 3 3 1 3
12 7 10 10 11 12 11 12 11 4 3 3 6 3 2 3 0 2 8 18 9 4 6 7 7 8 8 9 11 11 11 10 10 7 6 7 6 6 7 5 8 8 7 8 3 3 3 4 3 4 3 2 2 3
13 17 15 11 11 8 10 12 15 18 17 8 6 3 7 20 22 6 1 3 6 7 7 6 6 6 7 9 12 9 11 11 10 10 9 7 6 7 7 8 3 6 8 7 10 10 5 1 1 2 2 2 2 3
17 14 13 13 11 11 17 17 16 15 17 15 11 14 13 4 3 3 5 6 10 14 5 6 8 9 11 11 11 10 9 8 9 8 7 8 8 7 8 9 7 7 9 8 4 3 6 9 3 2 4 3 4 5
12 16 16 14 15 16 16 14 15 16 16 18 17 16 15 7 17 17 10 2 3 6 1 6 11 11 13 18 17 10 6 9 6 6 6 6 5 7 7 8 9 9 9 10 9 8 7 5 6 8 8 5 5 4
11 13 13 9 13 13 13 14 15 16 16 16 8 21 22 11 9 10 15 9 8 8 1 9 13 14 13 14 15 14 16 10 14 10 9 8 7 6 7 8 9 10 10 10 10 9 8 7 6 5 6 4 4 6
10 13 12 12 13 16 18 16 13 13 12 10 12 8 4 6 5 5 6 9 8 5 2 2 7 11 16 16 13 16 13 16 4 5 8 11 11 10 8 7 9 10 10 10 10 9 9 9 9 9 9 7 6 6

GFSWCAN_850_spd_087.txt.gz
Wind_Speed
24 23 21 19 14 11 5 6 7 7 7 8 7 6 4 4 4 2 6 14 9 5 6 9 6 11 10 16 5 2 3 4 2 5 4 2 3 2 3 5 3 4 2 2 3 2 2 17 10 5 1 23 28 32
22 22 20 18 12 8 5 5 6 6 6 6 5 4 4 4 3 5 6 7 5 4 4 2 4 3 5 7 12 4 3 3 7 4 4 3 1 0 3 2 4 3 3 0 3 3 7 22 19 17 19 20 23 27
22 19 18 16 12 7 4 6 5 4 5 5 4 4 4 3 2 1 3 12 6 5 12 2 8 2 1 4 5 6 8 7 6 4 1 3 2 3 0 2 2 5 6 3 4 3 12 13 11 12 9 12 13 13
23 19 16 13 10 8 5 5 4 4 4 4 4 4 4 3 2 1 3 9 9 7 3 10 4 4 2 6 4 7 7 4 2 1 4 1 4 4 4 4 1 2 2 3 2 7 11 10 9 6 5 6 6 8
24 20 14 12 8 7 5 5 2 4 4 3 3 4 4 4 3 0 5 7 4 3 5 1 9 4 5 3 5 5 6 9 11 3 4 3 5 5 7 2 4 7 3 2 2 8 8 8 13 11 11 6 4 9
20 19 13 12 7 6 6 6 3 1 4 3 2 3 5 5 3 4 3 4 4 5 3 2 5 5 3 4 6 6 9 7 8 5 6 4 4 9 1 1 8 11 12 13 8 11 8 5 3 12 16 14 9 11
18 16 13 10 8 7 8 9 5 2 2 2 4 6 5 3 4 2 2 4 5 7 2 2 3 3 4 5 10 6 5 7 6 4 3 3 6 8 1 2 4 7 7 8 6 8 6 6 3 8 8 13 14 11
13 16 8 9 8 8 11 10 5 2 3 3 5 4 4 2 5 4 2 12 4 4 4 0 2 3 7 3 3 3 4 4 3 4 3 3 4 4 1 8 4 3 6 5 6 6 7 9 10 6 12 15 17 17
12 6 7 9 9 9 12 10 6 2 1 2 2 3 1 3 2 5 8 3 4 2 4 2 3 3 7 6 2 3 3 2 3 2 3 4 2 3 8 8 3 5 3 5 8 9 10 10 10 10 10 13 19 22
4 2 8 9 10 11 13 9 4 2 1 1 1 1 1 2 7 2 1 2 2 4 3 1 7 2 8 6 5 2 4 2 2 2 6 3 3 13 8 8 7 7 3 3 4 7 8 9 12 11 14 18 22 19
3 2 7 9 9 14 12 8 3 3 4 5 4 1 4 4 3 2 4 5 3 2 3 3 4 1 4 2 1 6 1 3 2 4 3 3 3 7 6 9 5 4 3 4 2 4 3 5 8 13 15 15 21 22
1 5 9 7 13 12 10 5 2 4 2 0 2 1 1 2 1 3 3 3 4 3 4 7 4 4 3 1 3 5 3 2 3 12 2 2 1 10 6 5 7 8 8 7 10 9 7 7 7 7 9 12 14 20
8 5 6 12 14 7 3 4 6 5 2 2 1 2 2 3 0 5 5 2 2 4 10 9 6 6 4 3 2 2 2 3 14 3 2 3 9 9 11 5 4 11 3 4 6 8 10 7 11 11 10 11 13 16
11 9 12 10 5 2 2 4 5 6 3 2 5 2 5 5 5 4 3 4 7 8 12 13 13 6 5 5 2 3 3 2 3 4 2 4 13 9 5 0 3 2 3 5 6 5 5 5 9 12 14 15 15 15
4 2 2 3 3 4 3 2 1 0 2 4 5 3 7 12 4 5 10 8 7 3 8 6 3 7 4 2 3 2 3 1 3 3 3 12 11 8 4 2 2 2 5 6 8 8 6 6 8 8 8 10 15 19
1 2 4 1 3 3 4 3 3 1 3 4 5 7 11 8 4 8 7 5 12 10 4 3 3 2 2 3 4 4 4 4 2 4 18 16 14 11 7 5 1 2 4 5 5 6 9 10 7 9 10 12 13 13
0 1 3 1 0 2 4 3 1 4 5 5 8 17 19 5 3 15 8 16 7 7 4 4 3 3 3 2 3 1 2 1 20 20 22 20 16 11 6 4 2 3 2 5 6 6 8 5 11 11 13 16 13 9
5 6 6 6 5 6 3 3 3 5 8 11 12 18 16 16 14 15 21 12 7 10 1 2 2 4 3 2 1 3 8 11 18 20 19 17 13 10 6 6 5 4 1 2 1 6 9 14 10 13 12 10 8 10
5 4 4 4 4 3 3 5 6 5 9 15 18 19 17 10 8 7 8 11 10 7 4 5 3 3 1 3 8 10 3 11 19 20 19 17 11 7 11 7 6 5 6 3 6 4 6 9 12 12 8 8 12 12
9 7 6 5 5 3 4 5 8 6 7 8 14 16 13 8 11 13 13 14 11 20 7 3 3 8 6 11 12 6 8 6 9 19 19 16 12 11 10 7 4 8 5 4 10 6 10 7 5 12 10 11 9 18
4 2 3 4 5 8 5 6 7 10 12 11 15 19 10 10 16 15 15 14 6 3 4 12 18 19 15 16 12 12 12 8 9 6 15 23 17 17 11 10 7 9 9 11 5 7 4 5 3 7 6 5 1 4
4 5 4 4 5 5 8 9 9 10 9 13 20 17 12 12 16 17 21 10 7 19 22 24 23 21 19 17 14 16 15 16 14 9 8 18 18 15 10 9 10 11 10 9 5 3 3 2 3 3 5 3 4 3
6 3 4 5 5 5 7 8 8 6 4 4 8 8 6 7 14 18 10 10 15 21 17 9 19 22 20 20 19 14 14 11 8 11 10 10 11 11 11 7 7 6 14 8 5 3 4 3 6 1 3 8 1 3
6 3 4 5 9 5 6 7 8 5 6 8 4 7 9 2 6 6 4 7 3 5 7 21 12 16 19 20 16 14 13 16 11 14 9 10 11 9 6 10 7 8 6 8 7 4 6 5 2 3 2 5 2 5
3 6 6 7 7 5 5 4 9 9 12 11 8 4 4 7 2 2 3 10 3 5 10 15 18 16 20 15 16 17 10 18 16 16 14 12 12 15 12 11 8 6 7 10 6 9 5 3 1 2 3 1 5 1
5 6 8 7 8 5 4 4 2 1 5 7 5 4 3 3 2 4 3 2 5 10 8 19 18 17 15 18 20 26 18 16 11 15 15 15 16 13 11 12 11 12 10 5 6 7 6 3 2 1 2 2 4 4
4 7 12 14 12 11 5 9 14 4 3 1 3 3 1 4 4 4 10 15 18 19 15 27 25 16 17 19 19 21 14 15 10 6 12 12 12 9 9 17 14 13 12 11 8 4 3 4 4 2 1 1 1 1
10 9 13 13 15 15 10 9 8 8 6 5 6 3 3 4 5 10 16 20 15 14 11 23 13 9 6 16 19 18 19 18 15 11 8 7 8 6 6 5 7 12 13 11 10 10 6 2 3 1 1 1 1 2
12 10 15 16 15 14 12 9 8 14 19 10 7 5 6 7 3 20 17 8 2 8 8 3 12 5 13 19 20 20 20 16 13 13 8 8 7 6 8 7 6 8 9 11 10 9 11 7 5 4 3 1 2 4
20 19 19 20 15 12 11 10 16 18 16 15 6 6 8 11 9 5 11 15 16 13 12 4 6 11 17 24 22 17 12 13 8 12 9 10 12 13 14 12 11 4 11 10 4 2 11 13 10 5 2 3 4 6
16 17 19 18 15 13 14 13 13 14 14 4 13 19 11 6 2 9 11 9 9 8 5 3 12 19 18 14 18 15 13 3 15 9 15 10 10 12 16 12 11 7 10 12 11 6 3 2 8 6 8 8 8 10
18 14 12 10 8 9 10 11 12 12 4 6 5 5 7 2 4 17 18 10 11 10 7 6 11 14 13 13 11 9 9 14 14 6 12 3 9 8 8 6 8 10 11 11 11 11 12 11 6 10 8 6 5 8
11 10 11 15 14 11 10 10 9 5 6 5 7 7 4 5 4 5 8 10 10 7 4 1 3 2 1 4 6 8 9 13 11 2 6 4 8 8 5 4 7 9 11 11 11 11 10 9 10 8 7 9 10 8

GFSWCAN_850_spd_090.txt.gz
Wind_Speed
22 20 19 16 14 11 8 6 6 6 6 7 6 6 5 5 4 6 10 11 8 3 13 9 9 13 11 11 3 5 4 7 5 5 3 2 2 2 3 3 2 2 2 2 2 2 1 14 5 5 5 12 22 23
23 20 18 14 12 8 7 5 5 5 3 4 5 5 5 3 3 5 7 5 1 2 3 5 4 9 10 10 6 9 2 1 2 4 1 2 2 2 2 1 5 3 4 4 3 3 3 25 24 20 26 31 25 25
22 19 17 14 10 7 5 5 4 4 5 4 4 4 3 2 1 1 6 9 5 4 4 5 4 5 9 8 6 3 5 4 3 4 5 3 2 3 1 3 3 5 2 4 4 3 8 23 22 21 25 30 28 28
22 21 18 13 9 6 6 7 5 3 4 4 3 3 4 2 1 4 8 8 6 2 2 5 6 5 3 6 7 10 9 5 3 1 4 3 3 2 3 3 3 2 4 3 3 5 9 13 15 16 18 18 19 18
23 18 17 12 7 6 5 6 6 4 3 2 2 3 3 3 1 7 7 6 7 3 1 2 8 6 5 6 7 8 6 11 10 5 6 2 2 4 5 3 4 6 1 3 2 5 2 4 13 11 15 17 17 18
20 16 15 12 8 7 8 7 7 3 2 1 2 3 4 1 10 12 3 2 2 3 1 1 7 6 7 5 5 9 8 9 7 5 4 4 3 3 2 2 1 7 11 12 4 5 8 8 9 10 9 11 11 10
18 13 12 11 9 9 10 9 7 4 2 2 2 3 1 5 7 1 2 2 1 2 0 2 2 5 6 7 7 6 5 6 5 4 4 3 5 7 2 2 5 4 0 2 4 5 3 6 3 3 13 13 14 13
9 8 11 8 11 10 11 10 6 3 4 2 2 2 2 4 3 2 3 5 4 4 1 2 1 3 8 4 2 2 3 4 4 4 3 4 3 4 1 7 3 4 1 3 1 0 4 7 9 9 5 17 20 18
7 8 5 11 13 11 12 10 7 3 1 1 2 3 2 2 1 3 6 7 7 3 2 2 4 4 6 4 3 2 2 3 2 3 1 4 1 2 6 9 3 0 1 2 5 9 8 8 9 9 11 10 21 23
5 4 8 11 12 13 13 11 8 4 1 0 1 1 0 2 5 2 3 3 1 2 3 3 4 3 8 5 3 3 2 3 1 3 6 2 3 9 8 10 7 5 7 7 5 5 7 9 9 9 11 13 9 18
5 4 7 9 9 10 12 10 5 4 4 2 1 1 2 3 0 1 0 3 4 3 6 6 4 4 4 4 3 4 3 2 2 4 3 1 3 6 13 12 7 7 8 11 10 6 4 2 4 5 8 15 15 13
5 6 8 7 10 10 12 8 4 5 2 1 1 1 0 1 0 3 2 3 2 4 4 7 5 5 4 3 3 5 3 2 3 10 3 2 4 11 12 12 12 9 9 11 10 10 7 4 7 7 8 8 10 15
5 5 5 7 9 8 6 4 4 3 2 2 1 1 2 2 3 3 4 3 0 3 8 10 3 4 3 3 1 3 3 4 16 2 3 4 12 16 15 11 0 5 6 7 6 9 9 9 10 10 10 11 13 12
10 10 11 11 4 4 2 1 4 6 4 2 3 3 4 3 4 5 4 5 7 5 19 15 9 5 4 2 3 3 4 5 3 4 5 3 21 22 14 9 10 5 4 2 2 3 4 7 7 6 10 11 11 15
4 4 2 1 2 2 3 3 3 2 2 3 3 4 6 12 8 5 6 3 8 12 17 12 4 6 2 2 3 1 3 4 5 5 4 15 20 19 16 13 9 6 4 2 3 4 3 1 2 3 4 5 7 8
2 2 3 2 3 3 4 3 3 2 2 3 5 4 10 3 11 11 2 8 14 14 11 5 3 3 4 4 3 5 4 5 4 4 11 19 22 21 17 11 8 8 6 8 6 3 1 2 4 7 11 12 13 14
4 3 1 1 1 2 3 2 2 3 4 4 7 11 20 20 11 11 6 6 2 13 3 3 4 8 2 0 2 3 4 4 10 13 18 22 24 20 13 12 12 10 8 4 1 2 1 3 11 9 9 8 7 7
7 3 3 3 6 6 4 4 4 4 7 10 8 16 12 14 20 17 11 9 6 7 10 5 5 2 4 4 2 3 1 11 14 16 21 23 20 17 16 16 12 11 9 9 6 3 3 6 5 7 5 6 7 9
5 2 2 2 3 3 2 3 6 4 8 12 16 20 21 21 8 5 12 11 14 9 4 4 2 3 4 5 6 4 8 15 16 20 22 21 19 17 17 14 16 14 13 11 5 4 2 5 8 12 13 16 18 14
8 6 5 4 3 2 3 5 6 6 5 5 8 14 13 11 12 14 16 12 13 9 4 3 5 10 10 12 14 13 10 13 14 21 23 22 18 16 18 17 16 14 16 11 9 7 8 9 7 6 5 7 7 12
5 2 1 2 3 7 5 4 5 8 8 6 11 11 10 8 9 16 15 16 12 7 8 18 24 27 21 21 17 14 15 18 23 19 21 27 23 18 18 18 13 21 18 13 12 11 7 5 5 5 5 6 7 8
6 4 2 2 4 4 7 8 7 7 7 9 16 12 5 5 13 16 15 13 9 19 22 25 25 24 23 20 20 17 17 19 19 17 13 18 26 23 20 18 20 21 17 15 12 11 6 4 1 2 3 0 4 7
4 2 3 5 5 5 7 7 6 5 2 4 3 2 4 4 4 7 4 5 6 11 13 15 16 17 13 16 20 17 16 21 19 14 12 18 23 20 19 16 15 16 21 18 8 6 6 6 5 3 1 0 3 3
7 3 3 4 9 5 4 4 6 5 5 3 2 3 1 1 4 5 3 5 9 10 8 8 15 20 14 13 19 21 21 16 13 13 14 17 21 22 19 15 11 13 15 13 10 4 5 7 6 5 3 2 3 4
3 5 4 6 6 5 4 3 5 3 3 3 2 3 1 2 0 2 2 6 6 4 6 15 15 17 14 18 21 21 17 17 20 20 18 18 19 12 12 15 13 11 14 14 12 11 8 7 9 10 9 5 1 4
3 5 8 5 5 5 5 2 2 3 2 3 2 3 1 2 0 3 3 11 9 9 11 11 12 16 23 25 24 19 20 20 19 22 18 17 15 14 18 17 14 15 12 12 12 17 12 10 11 8 9 4 1 7
3 6 10 10 8 6 4 5 8 3 4 4 3 3 2 0 2 4 7 11 9 6 14 8 12 14 17 22 23 29 21 20 14 14 14 9 6 12 17 14 18 18 16 13 11 13 15 13 11 7 8 7 5 4
9 7 6 11 13 16 7 4 3 3 2 7 2 4 3 2 3 4 6 7 8 12 14 11 16 20 26 20 15 24 23 24 24 22 19 6 6 6 9 8 11 17 17 18 16 14 11 11 11 10 8 5 4 5
8 11 10 12 11 6 4 5 8 11 10 5 6 5 5 5 4 2 6 9 10 11 12 7 5 9 12 18 31 33 31 22 20 19 19 14 9 6 4 5 9 14 16 16 14 13 12 11 11 10 8 5 5 6
9 17 10 5 3 3 8 10 14 15 15 14 5 7 4 5 5 1 5 9 11 10 5 8 11 19 28 31 30 24 13 10 12 7 12 13 12 9 14 11 11 12 12 14 12 11 14 14 12 9 9 11 7 7
6 11 8 9 6 16 16 19 15 17 9 6 4 8 8 7 3 6 7 6 11 8 5 8 17 20 21 22 21 9 15 13 4 12 9 5 7 14 15 21 14 11 12 13 9 6 4 6 11 10 7 7 6 8
8 13 8 4 11 22 12 5 6 9 6 4 5 4 5 3 2 1 8 8 9 6 5 11 19 23 22 13 8 6 9 8 16 10 2 3 6 5 12 14 12 12 11 15 14 12 8 6 6 6 8 7 8 8
17 18 19 15 11 5 3 2 5 5 6 3 3 3 1 3 2 0 4 7 9 7 3 6 7 6 6 4 4 8 8 13 13 10 10 8 12 13 10 8 10 11 12 14 15 12 11 13 11 13 11 7 13 9

GFSWCAN_850_spd_093.txt.gz
Wind_Speed
24 22 20 16 14 12 8 6 5 5 5 6 5 4 3 4 6 5 3 6 6 8 10 9 9 8 4 3 3 3 3 6 4 4 3 2 2 2 2 3 4 2 2 2 1 3 3 12 10 5 4 5 19 22
25 23 19 16 13 11 8 6 5 4 4 4 5 4 2 2 6 4 2 3 3 3 6 8 8 6 5 5 1 4 2 2 2 4 0 2 2 2 2 1 4 3 3 4 3 4 5 7 5 4 6 25 29 30
25 22 20 17 13 11 9 7 6 4 4 3 2 4 4 2 2 2 2 2 5 4 3 6 6 7 6 9 7 2 2 2 2 2 6 2 3 3 1 3 2 7 5 4 4 4 3 14 14 12 13 19 22 27
23 21 21 18 12 11 10 9 8 5 4 3 2 1 2 1 1 4 2 3 4 3 3 3 4 5 5 7 7 8 7 4 4 2 4 3 2 1 2 3 3 1 4 1 3 5 4 8 16 17 17 17 19 22
23 21 19 16 13 11 11 10 8 6 4 3 2 1 2 2 3 6 3 3 6 2 3 5 7 6 2 4 6 8 7 8 5 4 5 1 1 2 2 2 3 4 2 3 3 1 3 6 11 14 16 17 18 20
25 22 19 15 13 11 12 10 8 5 4 3 2 2 3 3 5 8 3 3 0 3 1 1 5 7 6 3 6 8 10 11 7 4 4 3 3 1 2 1 2 4 8 5 3 6 9 7 10 10 17 14 13 14
18 15 12 11 12 13 13 10 8 6 4 3 2 2 1 7 11 3 1 3 2 0 1 3 2 6 7 4 3 5 6 6 5 4 3 2 3 3 2 2 9 3 4 2 3 2 2 6 4 7 6 15 15 15
11 6 7 10 11 14 12 11 9 5 4 3 2 1 2 5 5 2 1 4 3 2 1 3 2 3 7 3 1 2 2 3 6 3 2 2 2 4 1 5 6 1 3 3 4 1 3 5 6 6 5 6 16 19
11 11 10 8 13 13 13 12 9 5 3 2 2 3 3 3 2 1 4 3 7 3 4 3 4 4 6 3 3 2 2 3 2 2 1 2 1 2 6 11 8 6 5 4 1 2 5 8 10 11 9 8 10 22
8 3 5 9 10 8 12 10 8 5 4 3 4 1 1 1 2 1 3 3 2 4 2 3 4 2 7 4 2 2 2 2 1 2 3 2 3 8 8 12 10 8 5 5 5 5 4 5 7 8 8 10 10 10
5 2 5 7 6 8 10 10 7 5 5 4 3 2 0 1 1 1 2 2 3 1 4 3 7 3 4 3 3 2 2 1 2 3 2 2 3 6 13 15 11 9 8 10 10 8 6 3 1 1 2 6 11 12
4 4 7 7 7 8 10 7 4 5 4 3 2 2 1 1 1 1 1 2 3 4 5 6 5 4 5 3 4 3 2 2 2 6 2 2 4 8 12 17 13 10 11 13 11 11 11 9 5 5 6 7 6 6
4 4 5 8 8 6 7 5 4 4 2 3 2 2 1 3 2 4 5 3 2 6 9 11 4 4 4 3 4 3 2 3 10 2 3 4 5 13 15 16 16 13 14 16 13 12 13 12 10 11 11 12 13 13
6 4 5 10 7 7 4 2 4 6 4 2 2 3 4 3 5 5 4 4 6 7 15 15 7 3 3 3 3 3 2 5 1 1 5 4 15 17 18 18 16 11 9 9 6 5 5 10 9 10 11 12 11 12
4 2 3 3 1 2 3 3 3 4 3 3 3 4 6 9 8 4 6 8 5 5 20 9 5 4 1 2 2 3 3 4 5 5 4 10 12 18 23 17 15 12 8 6 4 5 6 6 5 7 8 10 11 13
4 3 1 3 3 4 4 3 3 3 3 3 6 3 6 2 4 4 5 3 10 14 15 5 4 3 3 3 3 5 4 5 4 6 14 11 14 19 22 18 14 10 9 6 6 6 6 7 7 8 12 14 15 14
6 5 4 3 3 2 3 3 3 4 3 4 6 9 14 15 13 7 4 8 12 19 3 4 5 7 3 2 3 4 5 5 10 10 11 14 16 20 19 18 14 13 9 8 6 4 4 5 9 12 10 9 9 10
8 6 5 4 4 4 4 5 4 4 5 8 6 8 6 9 11 11 14 12 12 11 13 6 4 4 5 5 4 5 10 9 10 11 13 15 16 18 19 17 12 10 10 7 6 6 6 6 5 2 4 5 7 11
7 5 3 3 3 3 3 4 5 4 9 11 14 16 13 12 13 12 6 16 19 9 10 4 3 4 4 7 10 13 14 14 14 14 15 17 19 21 19 13 12 14 11 11 10 6 4 2 7 9 11 12 11 10
10 8 6 4 4 3 3 3 5 5 4 4 8 9 8 9 11 10 12 17 19 7 4 3 6 14 13 15 14 16 18 15 16 17 20 23 24 22 18 18 19 19 16 13 11 7 5 7 7 3 2 2 3 5
8 6 5 4 4 6 4 3 6 6 6 6 7 5 6 6 4 4 13 14 10 7 7 17 24 29 29 29 24 18 17 18 22 23 22 28 29 25 21 20 22 21 20 19 17 11 8 7 5 2 1 2 2 2
8 7 4 4 4 3 6 7 6 6 6 8 13 10 6 4 5 6 5 11 7 16 24 28 29 28 27 24 23 23 22 21 22 24 22 21 29 29 25 26 25 22 23 21 17 12 9 9 7 6 6 4 6 7
7 5 3 4 4 4 6 5 5 4 3 3 3 2 4 4 4 3 4 6 6 11 14 15 17 16 13 13 15 19 21 21 19 21 24 20 22 26 24 23 23 21 23 24 16 11 11 10 8 8 6 4 5 7
9 3 4 4 7 4 4 4 6 4 4 3 2 3 3 3 2 1 3 3 3 8 11 8 8 12 14 15 13 15 17 14 11 18 21 20 22 27 21 16 20 21 22 20 18 14 14 15 10 10 10 8 7 7
3 5 4 5 6 4 4 3 4 2 3 3 3 3 2 1 0 1 2 4 8 9 7 9 10 11 10 7 6 4 9 13 15 15 16 17 19 23 19 19 18 18 18 20 22 16 15 14 14 13 11 10 8 9
3 6 8 5 4 4 4 2 4 4 4 3 4 0 1 2 1 4 3 5 6 10 8 9 14 11 8 5 3 5 7 11 11 15 15 15 20 17 17 16 20 19 20 21 18 16 15 16 15 16 18 15 9 6
3 5 8 8 6 5 4 6 6 5 3 1 2 1 1 1 4 4 6 8 10 9 11 13 14 13 11 12 14 16 16 15 13 15 15 20 15 9 6 17 17 16 18 20 18 16 15 18 16 16 14 15 10 8
9 4 5 3 5 7 4 3 3 3 3 6 6 1 3 4 4 3 2 7 10 11 14 17 18 16 16 18 20 20 18 16 25 25 16 18 20 13 18 20 19 12 17 19 18 18 17 18 17 18 16 13 8 8
7 6 5 6 7 7 6 8 6 6 6 9 6 4 5 4 3 2 7 10 13 14 13 14 12 10 8 1 7 12 24 32 27 20 20 22 17 12 8 6 9 13 20 21 19 17 16 15 18 19 17 13 8 7
7 14 6 7 4 4 8 10 8 10 16 13 13 6 3 2 1 3 11 12 14 14 10 3 2 3 7 21 28 30 22 5 4 11 14 12 19 14 10 7 5 8 12 15 16 15 14 12 13 18 16 14 13 12
5 9 8 6 5 16 23 21 12 10 5 5 4 3 5 3 1 8 11 12 13 13 9 2 9 9 13 22 23 22 16 8 9 11 10 9 15 16 16 14 15 12 11 11 12 11 11 18 19 18 13 12 11 11
8 9 6 4 7 20 18 14 3 4 2 3 4 4 3 1 2 3 8 11 11 7 7 6 12 16 21 26 18 7 4 9 13 13 12 13 13 13 16 18 17 18 11 11 14 13 7 6 10 14 14 11 11 11
17 12 15 10 5 4 3 6 3 3 4 3 4 2 2 2 2 2 3 6 9 7 3 3 4 9 16 12 7 6 7 7 14 12 9 11 12 11 9 10 11 14 14 13 15 15 15 14 12 11 11 12 12 13

GFSWCAN_850_spd_096.txt.gz
Wind_Speed
26 25 24 20 16 15 12 9 8 6 6 6 5 4 4 2 2 1 3 6 4 5 8 8 6 3 2 2 2 3 3 4 4 4 3 2 2 2 2 0 1 3 3 2 2 2 4 21 7 3 3 4 15 22
27 25 24 20 16 15 13 10 8 6 5 5 5 4 3 1 2 3 3 4 3 2 8 7 6 7 7 6 4 3 1 2 3 4 1 2 1 2 2 1 2 2 4 4 4 4 6 8 8 8 2 8 20 25
28 26 23 20 17 16 14 11 8 7 5 5 4 3 2 1 3 3 2 2 3 5 6 6 6 5 6 9 9 3 2 1 1 2 6 2 4 3 2 3 1 3 3 2 2 2 6 9 7 7 6 13 17 23
29 25 23 19 18 15 13 12 9 8 5 5 4 3 2 2 3 4 0 1 3 3 4 2 4 3 5 6 7 9 3 2 4 3 4 3 3 2 2 2 2 2 3 2 2 4 3 10 11 11 11 8 13 16
29 27 24 20 17 15 13 11 10 9 6 4 4 3 3 3 2 5 3 3 4 1 3 5 7 6 4 6 8 11 5 2 3 3 4 1 2 2 1 2 2 1 3 3 4 2 1 1 3 6 8 8 7 11
27 22 19 16 14 15 12 11 10 9 6 4 3 3 3 3 4 7 3 5 2 3 2 1 3 7 6 2 4 8 10 9 5 4 4 3 3 1 2 1 3 1 3 1 1 6 5 3 1 2 6 7 5 3
19 19 14 9 10 12 11 12 11 9 6 4 3 3 2 5 9 3 1 3 4 2 2 2 1 5 8 2 2 5 7 6 5 4 3 2 1 2 2 2 10 6 4 4 5 3 5 4 5 5 5 5 8 9
14 14 10 7 9 10 12 13 11 9 6 4 1 2 3 7 7 2 2 4 4 3 2 3 2 2 7 2 1 1 2 3 6 3 2 2 2 3 1 6 10 6 5 4 3 2 3 1 3 4 3 3 11 12
13 13 12 12 12 10 13 13 11 8 6 3 4 5 4 5 3 2 4 4 6 3 3 3 4 4 5 3 2 2 3 3 2 3 2 2 1 2 5 12 12 10 8 9 6 2 3 6 5 4 3 5 6 12
10 8 5 5 7 7 10 12 10 6 4 5 7 3 3 3 2 2 3 4 3 4 3 3 4 1 4 3 2 2 3 1 1 2 1 2 3 8 6 12 11 10 8 8 6 2 1 4 4 4 5 4 5 6
6 2 3 4 5 8 10 10 8 5 6 8 4 3 3 2 2 1 2 2 3 1 5 4 8 4 5 3 3 1 2 1 2 3 2 2 3 6 12 15 15 13 9 7 7 6 5 3 1 2 2 3 5 7
1 2 4 5 7 9 9 8 6 7 5 6 4 5 3 2 1 1 2 1 3 5 6 8 6 4 5 3 4 2 3 1 2 4 2 2 4 7 12 16 16 13 11 9 8 9 10 10 7 5 4 5 6 7
2 3 5 6 7 7 8 6 5 7 4 4 3 3 2 2 2 4 5 3 2 7 9 9 4 5 4 2 5 2 2 3 6 2 3 4 5 11 14 14 17 16 13 12 13 13 12 12 11 11 9 9 11 12
1 5 6 8 6 6 5 4 5 6 3 3 4 2 4 3 4 5 4 4 5 7 16 15 7 3 3 3 3 3 1 3 0 1 5 4 13 14 17 17 16 15 12 8 7 5 6 7 9 8 7 9 10 11
1 4 6 6 4 6 5 4 4 6 4 3 4 4 5 8 7 5 6 7 5 7 19 11 6 3 1 3 1 3 3 3 5 5 4 12 9 13 18 20 18 15 11 9 6 4 5 4 3 4 6 9 10 12
5 3 3 4 4 5 5 4 3 4 3 4 6 3 5 1 4 2 10 11 8 13 14 5 4 2 3 4 3 6 5 6 4 6 14 10 10 13 19 21 18 15 13 9 5 3 4 5 7 8 8 12 13 13
6 6 4 4 3 3 4 4 3 4 4 4 6 10 12 13 13 10 6 8 8 20 4 5 5 7 3 3 3 5 5 5 15 16 14 11 12 12 16 20 18 16 13 10 7 7 5 5 6 8 8 8 8 8
8 6 5 4 5 4 4 4 3 4 6 9 6 5 8 11 8 10 9 8 12 13 10 5 8 5 5 5 4 5 14 14 13 11 10 11 12 15 17 19 17 14 12 10 8 7 5 4 5 4 1 5 11 11
9 8 5 3 3 3 2 4 6 4 9 6 10 14 14 13 13 13 15 13 16 9 6 7 3 4 5 10 13 19 17 16 18 17 16 14 16 19 20 19 16 14 13 12 12 8 5 3 5 8 7 7 4 4
11 10 5 3 4 3 3 4 5 5 5 3 7 9 7 7 8 9 10 9 15 8 5 4 6 15 14 18 17 17 14 14 19 18 17 18 20 22 24 23 19 15 15 16 14 11 8 6 12 6 4 2 0 2
12 11 7 5 5 6 4 4 6 5 5 5 6 5 4 7 8 7 5 11 10 6 5 14 22 30 32 32 32 30 25 24 24 23 18 20 24 26 26 23 17 18 22 20 17 15 11 10 8 7 5 3 3 4
9 10 5 5 4 3 6 7 5 4 5 6 7 8 6 4 7 9 7 9 6 11 17 23 26 27 28 27 25 23 19 19 19 19 22 24 24 31 31 28 26 24 24 21 19 16 12 11 11 8 6 3 5 6
9 7 4 5 3 4 5 4 4 4 3 3 2 2 3 4 4 6 5 6 7 12 13 13 13 13 15 14 14 13 12 15 20 23 23 23 20 28 32 28 21 25 23 22 19 16 13 12 13 11 8 6 6 6
7 4 3 3 5 4 3 4 5 4 4 2 2 3 2 2 1 2 3 4 8 6 9 9 9 12 13 14 16 14 13 13 12 15 18 19 19 24 29 24 21 24 21 17 19 19 15 15 13 12 10 9 9 9
4 4 3 4 5 3 3 3 4 3 4 4 3 3 1 1 1 1 2 4 5 4 7 8 8 9 14 13 11 9 4 4 6 11 11 15 17 17 25 23 18 19 23 22 19 21 18 16 16 14 12 12 12 10
2 5 8 6 3 4 3 3 4 4 2 2 4 1 1 2 1 4 3 2 4 7 7 6 11 15 13 10 12 10 7 7 10 10 11 11 11 22 21 19 24 23 22 19 19 23 21 19 17 16 16 16 14 11
4 5 7 7 5 4 5 6 6 1 2 2 2 2 1 2 3 3 2 3 5 8 9 12 15 16 15 9 9 6 9 11 12 18 21 24 23 15 19 16 21 18 18 18 20 23 23 21 19 17 16 14 13 13
7 4 5 4 7 7 3 2 3 3 4 3 5 2 2 4 3 1 1 5 9 11 12 13 14 14 13 10 11 12 12 16 16 24 24 14 10 17 17 13 11 13 12 18 21 19 21 20 20 18 17 15 12 11
6 6 6 4 4 5 5 7 5 4 1 4 4 3 4 4 3 3 5 9 12 15 16 12 9 7 6 4 6 6 5 8 15 17 13 15 15 18 17 14 14 15 16 15 21 19 17 18 18 19 18 16 14 10
6 11 5 4 4 5 7 8 2 6 12 13 9 7 4 3 2 1 6 9 12 12 10 6 3 5 6 4 11 13 11 10 4 2 10 8 6 13 14 7 6 8 9 12 17 19 19 19 18 17 19 18 17 15
3 9 7 7 5 11 20 18 17 17 14 6 5 5 2 2 3 2 7 11 13 11 8 4 2 1 1 3 9 13 13 9 2 2 8 3 10 15 12 8 6 6 6 7 8 11 14 16 16 16 16 18 17 15
8 9 6 4 5 8 8 10 9 2 0 1 1 1 2 1 2 3 6 9 10 8 8 6 3 6 5 8 11 13 5 9 9 6 5 4 7 10 12 11 10 9 10 10 8 10 9 8 13 15 16 15 12 11
10 9 10 9 5 4 4 7 3 3 3 2 4 3 3 4 2 4 5 7 8 8 6 6 4 2 6 11 13 10 9 5 6 8 9 9 8 9 9 10 12 13 16 12 12 14 13 9 8 12 15 16 14 13

GFSWCAN_850_spd_099.txt.gz
Wind_Speed
28 28 26 26 23 19 17 13 9 7 6 4 4 2 2 1 1 2 4 5 4 5 6 6 5 3 2 2 2 2 2 1 1 2 0 1 1 1 1 1 1 1 1 2 2 3 1 15 4 4 5 8 3 9
30 28 28 26 22 19 18 15 9 8 7 5 4 2 1 1 1 1 3 2 7 4 7 7 8 8 7 6 4 2 1 0 1 3 1 2 1 2 1 2 1 1 2 1 2 3 5 8 6 8 6 6 3 6
31 30 28 24 21 19 19 14 10 9 8 5 5 2 3 2 3 2 3 1 5 9 9 6 5 5 6 8 9 2 2 2 3 3 4 2 1 2 2 1 1 2 1 1 2 2 5 9 9 11 11 2 6 10
31 30 28 25 22 18 19 13 10 10 9 6 5 3 3 3 3 3 1 2 6 5 3 2 4 4 5 7 9 6 3 3 6 4 3 2 1 3 1 1 2 1 1 2 2 2 3 5 10 11 12 5 9 12
30 29 27 22 19 16 18 12 11 11 10 7 5 3 3 3 4 5 3 2 5 3 3 4 7 5 4 3 8 10 5 2 3 3 2 2 2 2 1 1 2 2 2 1 2 2 2 2 6 7 7 7 9 12
27 25 21 21 18 14 15 10 11 12 10 7 5 4 4 4 6 6 3 6 4 6 3 3 4 7 6 3 4 7 9 7 5 4 4 3 2 1 1 2 2 3 3 2 2 5 7 8 7 5 6 5 5 5
21 17 17 16 11 10 11 10 13 12 9 7 5 4 3 5 9 4 2 3 6 5 3 3 3 5 8 3 1 4 6 5 4 4 3 2 2 2 1 2 7 7 6 6 5 4 6 7 6 8 3 2 2 2
14 16 16 13 10 8 8 13 14 12 9 7 5 4 4 7 9 4 2 3 5 4 3 2 2 3 8 2 2 1 2 2 5 3 2 1 1 2 2 4 7 7 5 3 3 5 6 4 3 3 4 3 2 2
13 15 14 10 11 12 9 15 14 11 9 7 6 6 6 7 4 5 5 5 8 4 3 3 4 3 6 3 3 2 2 2 1 1 2 0 1 3 4 8 12 10 6 6 5 4 5 6 4 2 2 3 2 3
10 11 7 5 3 7 14 16 14 11 9 8 10 4 4 6 5 3 3 5 5 5 4 3 4 3 5 4 2 2 2 1 1 2 1 1 3 7 7 10 12 13 9 10 6 2 2 4 6 6 5 3 0 3
7 6 3 1 4 6 11 14 11 9 9 9 5 4 6 6 6 3 3 4 3 3 5 4 7 4 5 3 3 0 2 1 1 2 2 1 3 5 13 17 17 15 12 11 8 6 4 2 1 3 4 5 5 6
4 2 2 3 6 8 10 11 10 10 8 8 5 7 6 4 3 3 2 2 4 3 6 7 6 4 5 4 3 2 1 2 1 4 2 2 3 9 16 20 20 18 16 13 12 9 9 9 8 6 5 3 2 3
6 4 5 5 6 8 9 9 9 10 8 8 4 4 3 3 1 5 6 3 3 7 9 8 5 5 4 3 4 2 3 2 5 2 2 4 3 12 17 19 22 19 17 15 13 12 10 10 11 12 11 9 7 7
6 6 6 7 6 8 9 8 9 10 6 4 4 1 4 4 4 5 4 2 4 5 14 12 7 3 3 3 2 3 2 3 2 3 4 3 13 15 18 21 21 24 22 17 13 11 9 7 9 10 10 8 7 7
3 2 6 10 6 7 7 6 7 10 5 4 4 4 6 6 5 4 6 4 4 11 19 10 6 3 2 3 2 3 3 3 4 4 3 9 13 13 18 21 22 20 20 17 13 11 8 8 9 9 8 6 6 7
5 4 3 4 7 6 8 6 3 7 4 4 4 4 5 2 4 4 7 7 9 16 13 4 4 3 3 3 4 6 3 5 3 5 14 11 11 13 17 19 21 20 18 15 13 9 8 9 8 8 7 7 9 9
7 5 6 6 5 5 6 8 7 5 5 4 5 10 8 6 7 7 6 5 13 16 5 4 5 4 5 3 3 4 5 4 10 14 14 14 12 14 15 16 19 20 18 17 14 11 11 9 8 8 8 8 4 2
11 7 7 5 6 5 6 7 4 4 6 7 5 5 11 10 7 6 5 7 13 9 9 5 7 5 5 5 3 4 11 14 14 15 13 12 13 16 16 15 19 20 19 16 13 12 10 8 8 7 5 7 10 12
13 11 8 6 5 5 4 6 5 4 8 4 9 12 10 9 14 16 13 10 13 8 4 7 4 4 4 7 10 14 21 23 22 19 13 16 16 18 19 19 21 22 20 18 17 15 11 7 7 10 12 11 7 6
14 13 10 5 6 4 3 4 6 4 4 3 6 7 7 7 9 10 10 12 17 8 6 4 5 9 9 17 21 24 23 21 18 17 17 17 19 18 20 25 26 24 21 19 18 17 12 8 13 13 12 10 7 4
14 13 12 6 7 7 3 4 5 5 4 4 4 5 4 8 12 10 9 12 9 5 5 11 15 21 24 25 28 27 28 28 28 25 21 20 19 16 19 29 28 27 25 25 23 18 14 10 12 13 11 8 6 5
9 13 10 8 5 4 5 6 4 2 4 4 4 5 5 4 4 4 6 7 5 7 10 14 18 20 22 24 23 21 20 19 20 23 20 17 14 17 24 32 32 30 25 25 23 18 16 14 13 13 11 8 6 4
11 11 5 5 4 3 3 4 3 4 3 3 2 3 3 4 4 6 4 6 7 15 15 15 14 13 14 15 15 15 15 15 16 17 16 19 18 12 12 28 36 28 23 23 19 20 18 15 15 14 12 9 7 4
6 5 3 3 5 3 2 3 4 4 3 3 2 3 2 2 3 3 3 4 10 10 8 7 9 11 11 10 12 13 14 15 17 18 16 18 20 17 20 26 32 22 17 15 24 23 19 17 14 15 14 11 8 6
3 4 3 4 4 3 4 3 4 3 3 4 3 3 2 3 3 3 2 3 4 5 5 7 7 7 11 15 12 10 10 10 10 11 12 15 16 16 18 22 26 17 21 25 23 23 20 18 17 16 15 13 10 7
2 4 6 5 3 4 2 2 3 4 2 3 4 1 1 1 2 1 1 2 2 3 6 8 9 11 12 12 13 10 9 9 9 9 9 12 12 11 19 32 26 20 22 23 22 18 20 19 18 18 17 15 12 10
3 4 5 6 3 2 4 5 5 3 3 3 2 4 2 2 2 3 3 4 3 6 9 11 13 15 17 16 13 13 10 9 8 8 8 13 16 17 21 26 25 19 20 19 19 20 20 20 19 18 16 14 13 12
5 2 4 2 5 5 3 3 2 3 2 2 2 1 2 1 0 1 2 3 6 9 11 13 14 14 12 11 9 8 7 8 7 11 14 12 14 17 19 23 16 11 15 18 19 17 19 21 21 20 17 14 13 10
3 3 3 4 5 4 4 4 4 1 2 3 1 1 3 4 4 4 4 6 9 11 12 10 7 7 7 7 8 6 4 4 7 10 13 17 14 13 18 10 6 5 7 9 13 19 20 20 21 21 18 16 14 11
5 8 4 4 4 5 6 7 3 2 8 7 6 10 9 7 4 0 4 8 10 10 9 5 3 7 9 12 14 13 12 9 6 6 9 9 10 13 16 11 7 7 12 13 14 19 23 22 20 20 20 18 18 15
4 7 6 8 6 8 14 14 14 15 14 11 13 6 4 2 2 2 5 9 11 10 8 3 2 5 7 7 10 11 8 6 4 3 6 2 5 13 15 9 7 8 10 12 14 16 18 19 19 19 18 16 16 15
8 9 6 4 5 10 11 8 6 4 4 2 2 1 1 2 2 3 5 8 9 7 6 4 3 3 3 5 7 8 4 2 5 5 4 5 8 16 13 11 10 9 8 8 8 7 8 9 11 13 14 15 14 14
8 7 8 6 4 3 7 6 4 2 1 0 0 2 3 2 2 3 3 4 4 6 6 5 4 1 2 3 6 9 10 10 4 3 6 7 9 12 14 13 12 12 12 12 11 9 11 10 8 13 15 14 15 13

GFSWCAN_850_spd_102.txt.gz
Wind_Speed
26 27 28 27 27 25 21 17 11 9 8 6 4 3 2 2 1 1 1 3 4 0 5 3 2 0 1 3 4 4 6 5 4 3 3 2 3 1 4 3 5 6 3 4 4 5 5 16 2 6 7 7 9 6
28 28 28 28 27 24 22 17 13 9 10 7 5 4 4 4 3 3 1 3 7 2 5 6 6 6 4 3 7 2 5 2 3 1 2 2 2 3 4 4 2 3 3 2 4 3 5 8 7 7 6 3 6 4
29 29 28 28 27 25 23 19 14 10 11 9 7 5 5 5 4 4 4 3 6 7 7 7 6 3 4 4 4 5 2 0 2 1 1 1 3 2 3 2 2 4 2 2 6 5 7 9 11 13 8 2 7 7
29 29 28 27 27 23 21 17 14 11 12 10 8 7 6 6 6 5 3 5 7 3 4 5 6 3 4 4 6 2 1 3 3 2 3 2 2 2 1 2 6 3 5 5 5 6 6 8 12 11 11 9 12 8
26 27 27 26 24 22 19 15 12 12 13 11 8 7 6 6 6 6 5 4 9 4 2 5 7 5 3 4 6 6 2 2 4 5 4 1 1 3 2 2 4 5 1 3 2 6 3 6 6 8 9 9 9 11
24 25 24 21 20 20 14 14 11 14 14 11 9 8 6 6 6 7 4 6 7 9 4 4 3 8 6 4 4 5 4 2 1 3 2 2 1 3 2 2 3 3 3 3 5 6 7 7 6 6 7 6 5 7
21 19 17 19 18 14 6 9 11 15 14 11 9 8 6 7 11 6 2 5 10 9 5 4 5 6 8 5 2 0 3 2 1 2 2 2 4 3 2 3 7 7 7 8 8 9 7 5 4 5 5 5 7 7
15 13 15 18 14 9 8 9 13 14 13 10 9 6 6 8 11 4 4 4 9 4 3 3 3 6 10 8 5 2 1 1 2 1 2 2 2 2 3 6 9 11 10 8 7 5 6 6 4 3 3 3 4 5
12 11 14 13 10 9 9 9 13 15 12 11 8 8 7 7 6 6 5 4 8 5 4 4 4 3 7 5 2 3 2 2 2 2 2 2 1 4 6 8 14 16 13 12 10 8 6 5 5 4 4 4 4 4
9 8 8 6 5 5 9 13 14 14 12 10 12 4 5 6 7 7 2 4 6 7 4 6 3 4 7 6 5 2 2 1 2 2 2 4 4 9 7 8 12 14 11 13 12 10 7 6 6 5 5 4 5 5
9 7 3 2 1 3 11 15 14 12 11 11 6 4 5 9 6 4 5 7 7 5 9 11 11 5 5 6 3 2 1 0 2 4 3 2 3 6 11 12 13 14 12 11 8 7 7 7 6 6 6 6 5 4
8 5 4 3 4 5 12 14 12 12 8 7 6 7 8 4 5 5 5 4 6 5 7 12 12 6 6 3 4 4 1 2 2 3 3 2 3 6 13 15 16 15 13 12 10 8 7 6 6 5 4 4 3 2
9 6 6 6 7 10 11 12 11 11 9 9 5 7 5 5 2 6 8 5 4 8 10 12 11 8 5 5 1 3 4 2 1 3 3 5 6 9 13 15 18 17 16 14 12 11 9 9 8 8 8 7 7 5
7 5 7 8 8 10 11 10 11 13 9 4 6 1 5 5 5 5 6 4 4 6 16 18 12 6 4 6 3 3 2 3 3 3 4 4 10 12 14 16 18 20 20 18 15 13 12 11 9 9 9 10 9 8
5 5 5 10 8 8 9 8 10 12 4 4 5 4 7 8 4 4 5 4 6 11 18 14 9 6 6 4 4 2 4 4 4 4 3 5 9 13 16 18 19 20 21 20 17 14 12 11 9 8 8 8 7 6
5 3 2 5 12 11 9 7 6 7 3 4 6 6 6 6 9 8 8 9 10 15 16 12 5 4 5 3 5 7 3 4 3 4 5 5 7 12 16 18 19 19 19 19 17 15 13 10 8 9 8 7 6 5
9 5 5 5 9 8 12 10 5 3 5 5 7 9 10 6 5 6 5 10 13 16 8 7 6 6 4 4 4 4 4 3 3 3 4 7 11 12 15 17 18 19 19 19 18 16 13 10 10 10 8 6 4 3
11 9 9 9 7 6 8 9 6 5 7 10 8 7 8 9 7 5 6 8 13 16 14 7 4 7 5 6 6 5 7 9 10 12 14 12 13 14 16 20 20 21 21 20 18 16 14 13 11 10 9 7 7 8
11 12 11 10 9 7 4 6 6 4 9 8 10 11 8 8 8 8 6 6 9 7 5 5 5 7 8 13 14 15 12 10 10 11 11 13 13 16 16 16 17 20 23 22 20 16 13 13 10 10 10 12 11 9
14 17 14 10 8 6 3 5 6 5 5 2 7 9 10 9 6 8 9 12 12 7 7 5 10 15 12 14 13 13 15 13 11 15 17 14 17 15 18 22 25 21 17 19 18 17 16 13 10 13 14 12 10 9
10 18 15 10 7 7 3 4 5 5 5 6 3 6 8 8 10 12 12 11 10 7 11 15 19 20 17 15 12 14 16 15 17 19 20 17 16 17 18 24 27 24 24 22 20 21 16 13 14 14 14 12 10 8
12 15 14 11 6 4 5 6 4 3 4 5 5 6 7 8 10 12 9 13 10 15 16 16 15 14 13 13 13 13 15 18 16 15 16 16 15 16 20 27 25 27 28 24 23 18 17 12 12 14 13 11 10 8
10 14 9 7 6 6 4 5 6 6 4 3 4 4 5 5 6 7 7 12 16 15 13 12 11 13 12 12 13 14 13 13 14 14 13 12 11 13 19 25 29 31 31 28 19 18 16 14 15 14 14 13 10 9
11 9 5 6 6 3 3 5 6 4 5 6 4 4 4 4 5 5 6 13 12 8 8 8 7 7 9 11 9 10 10 9 11 11 10 10 11 18 19 21 26 25 32 29 28 24 17 18 17 16 15 13 12 10
3 4 4 4 5 3 4 3 5 4 4 5 4 4 3 5 3 4 3 1 5 7 6 4 6 8 8 9 8 8 9 8 8 8 7 6 7 7 13 15 24 28 29 30 25 22 21 18 17 16 17 15 13 11
2 5 6 6 6 5 4 3 3 5 3 4 5 2 3 3 3 2 3 3 2 2 1 3 5 8 10 10 12 11 10 8 7 6 6 6 10 10 11 19 28 31 26 17 22 21 21 20 18 17 17 16 16 12
2 3 5 5 3 4 4 7 5 4 3 2 1 3 3 3 2 3 2 1 1 1 4 6 8 10 12 12 12 11 11 8 6 4 4 6 10 8 6 19 31 22 21 24 18 19 21 20 19 18 17 16 15 14
5 3 7 7 8 7 4 4 3 3 2 0 3 2 0 1 3 1 2 1 3 5 6 7 7 6 7 7 7 5 3 2 2 2 8 11 10 9 8 12 25 14 14 16 17 18 19 18 19 18 17 16 15 13
5 5 6 8 9 6 8 5 4 1 2 1 2 3 3 3 2 1 1 2 5 5 5 4 2 3 4 5 3 2 5 7 8 7 4 7 10 9 12 13 12 10 11 13 17 17 17 18 19 19 17 16 14 12
8 10 7 7 9 6 7 8 3 4 3 5 5 6 5 3 3 2 2 4 5 5 4 1 1 4 5 6 8 7 6 5 4 3 3 6 6 7 13 12 10 8 10 13 12 18 21 21 19 18 16 16 15 14
3 9 10 12 10 11 13 10 10 11 11 9 7 9 7 2 1 2 1 4 4 4 4 1 3 5 6 5 5 5 4 3 2 2 3 1 2 9 14 13 10 9 11 14 14 15 18 21 20 19 19 20 18 17
9 8 7 6 7 8 11 10 11 12 8 7 8 5 4 4 3 1 1 4 4 3 5 3 2 4 5 6 7 4 5 2 1 3 5 4 4 8 12 12 10 9 9 11 13 14 16 19 21 21 21 20 19 18
10 9 8 6 4 5 10 7 6 5 7 3 1 1 2 2 2 2 2 3 3 4 4 2 1 1 4 5 6 8 9 4 5 6 6 8 11 15 13 11 11 9 9 10 10 10 11 12 15 16 17 17 17 17

GFSWCAN_850_spd_105.txt.gz
Wind_Speed
24 23 24 25 25 24 24 20 17 13 11 11 7 6 5 4 2 2 3 4 4 11 6 2 1 1 2 6 7 8 8 9 7 4 5 4 4 3 7 9 10 5 6 6 5 4 8 12 4 5 6 6 8 7
24 24 26 25 25 25 25 22 18 14 12 13 10 8 6 5 4 3 2 5 7 5 7 2 2 2 1 3 7 5 7 5 8 4 2 5 1 5 7 8 4 6 6 3 5 2 5 9 9 6 5 3 7 7
24 25 26 26 24 25 25 22 17 14 12 14 12 10 7 7 7 8 5 5 4 9 7 9 9 3 1 2 4 9 1 3 4 6 11 2 1 3 5 6 8 3 1 6 1 4 8 8 8 9 6 5 6 8
24 24 25 25 24 24 23 21 16 13 12 15 13 11 8 7 8 8 4 7 6 8 10 14 7 5 2 1 3 2 4 3 6 6 12 5 4 2 5 3 6 6 5 2 3 5 6 7 7 8 9 7 8 10
24 23 23 23 23 21 20 20 16 14 11 16 14 12 9 8 8 9 7 7 7 6 5 10 8 6 5 2 2 3 2 4 8 9 7 7 2 2 8 5 7 8 1 3 5 13 6 7 6 6 7 8 8 10
20 21 22 21 18 19 19 20 14 13 13 16 14 12 9 8 8 5 5 9 7 6 7 5 8 8 8 5 2 1 3 3 7 7 3 2 2 5 3 3 2 2 1 1 4 6 5 8 6 5 7 6 7 10
17 18 18 16 18 19 14 10 10 11 15 16 13 11 9 9 12 9 1 4 13 9 8 5 5 9 11 8 8 5 1 3 8 2 5 5 5 5 6 3 3 5 6 6 8 9 8 8 7 5 5 6 6 9
14 13 13 15 18 15 10 9 9 13 16 14 12 10 8 8 11 9 6 4 11 10 10 4 3 7 11 12 7 4 8 3 5 3 2 6 3 4 3 9 9 9 10 10 10 8 5 8 6 6 6 6 6 7
10 11 11 14 14 10 9 10 9 15 15 13 11 8 6 6 8 9 8 5 12 7 5 7 9 3 10 12 5 6 3 5 3 5 3 2 2 3 8 9 9 12 12 11 9 8 7 8 7 7 7 6 8 7
10 10 10 11 10 8 9 8 13 16 14 13 12 4 6 9 8 6 4 6 8 12 9 9 14 4 10 9 6 3 4 4 3 3 3 5 6 15 9 7 9 12 13 10 11 9 7 7 6 7 7 8 9 6
9 9 9 8 7 4 8 13 16 16 15 12 6 3 2 9 7 6 7 8 9 6 11 15 18 7 7 5 3 2 2 2 3 4 3 3 5 11 12 10 10 12 12 11 10 7 8 7 7 6 5 5 4 5
9 10 9 7 6 5 11 14 17 17 8 9 5 6 7 6 7 6 6 6 5 8 7 15 15 9 7 4 4 4 3 2 4 4 3 2 4 8 12 13 13 13 13 11 9 8 8 8 8 6 7 6 6 5
9 10 10 8 6 6 12 16 16 16 12 8 5 6 5 6 0 6 10 6 6 6 8 11 11 10 5 9 3 2 4 5 2 3 2 6 11 9 12 12 13 15 14 12 10 9 9 8 8 7 7 7 7 6
8 9 8 8 7 8 12 14 14 14 11 4 6 1 5 6 6 8 10 9 11 9 14 16 16 10 7 6 4 4 3 1 4 4 5 5 13 12 13 13 14 16 16 15 13 12 11 10 10 9 9 9 9 9
7 7 7 7 9 10 10 11 14 15 6 4 5 4 9 12 8 8 10 2 6 8 16 18 13 8 7 4 4 3 4 4 4 4 3 12 12 11 13 14 15 16 17 17 15 14 13 12 11 10 9 9 10 9
7 5 4 2 7 10 10 8 10 11 2 3 6 7 9 8 11 12 11 12 13 13 17 15 8 5 5 4 5 7 4 4 3 4 1 10 8 9 13 15 16 16 17 18 17 17 15 13 12 11 10 10 10 10
8 5 4 3 10 14 11 9 5 6 6 6 9 14 11 14 9 10 13 13 14 16 9 9 6 6 5 4 5 5 8 5 2 3 3 5 4 10 13 15 17 18 19 18 18 18 17 15 13 12 12 11 9 9
10 8 7 6 6 8 8 5 3 5 9 12 10 12 11 10 13 11 5 3 16 19 17 6 4 7 6 9 8 5 8 5 6 8 10 7 4 8 13 16 16 19 20 19 19 18 17 16 15 13 12 12 10 9
8 8 8 11 13 6 5 8 7 5 13 13 15 17 9 9 10 13 5 11 12 7 10 5 3 8 8 10 12 8 13 10 6 6 6 14 12 12 14 15 16 17 17 15 14 15 15 15 12 11 12 11 12 11
9 15 13 12 11 5 4 5 7 7 6 7 14 14 14 14 13 14 15 12 16 14 10 6 7 13 12 11 14 13 8 5 8 18 16 18 18 14 15 16 19 22 28 26 28 24 15 13 12 12 13 14 14 12
10 13 18 14 9 6 4 4 8 8 8 9 11 15 12 12 16 14 15 16 17 18 14 18 22 20 16 22 13 9 11 14 16 19 22 24 24 19 14 15 20 23 24 29 33 33 25 18 15 14 15 15 13 11
7 13 13 16 6 4 7 9 7 5 7 8 10 11 10 13 13 16 17 19 20 19 20 22 21 18 17 14 8 9 13 16 19 20 21 21 20 20 18 18 21 24 27 30 36 35 28 19 18 16 16 15 14 12
13 16 5 6 6 9 8 9 7 8 4 5 12 7 8 12 13 8 11 16 18 19 21 22 19 9 10 14 13 13 14 15 17 18 17 15 16 16 15 14 17 21 24 23 28 26 25 22 17 16 16 16 14 13
11 10 7 7 9 6 7 7 6 5 7 12 4 6 6 3 7 5 8 17 17 14 16 9 11 13 15 16 17 14 10 10 10 10 10 9 10 9 7 14 20 27 29 31 30 30 28 21 17 18 17 17 15 13
5 8 6 6 8 6 5 5 10 6 6 10 9 4 2 3 3 4 6 4 6 6 6 9 10 14 15 14 12 7 5 7 10 12 11 7 6 6 4 9 18 26 35 34 32 30 28 20 20 18 19 18 16 14
4 7 7 10 5 5 3 2 4 6 2 2 1 4 2 3 5 1 4 4 3 4 5 3 6 9 8 9 11 12 6 6 9 12 12 8 9 9 10 15 19 26 28 32 35 32 24 22 21 19 19 18 16 13
3 4 6 6 3 5 5 7 9 3 4 3 1 2 3 4 2 2 6 6 1 2 3 4 6 8 10 11 11 10 10 7 7 7 5 3 6 8 8 12 18 22 28 28 32 27 23 23 21 19 17 17 15 16
4 4 7 9 11 8 2 4 3 3 4 4 4 2 2 2 2 8 4 5 4 3 4 4 5 3 4 4 4 2 1 2 1 3 2 4 9 6 7 7 14 25 27 28 25 24 21 20 19 18 17 16 16 16
8 9 10 7 6 3 5 6 4 2 4 3 3 2 2 2 3 4 4 4 2 3 4 3 1 1 3 4 4 3 3 5 6 3 1 3 5 6 8 13 20 22 24 21 20 19 16 19 19 19 18 16 15 15
8 8 8 8 9 6 10 6 6 4 5 1 3 6 5 6 4 4 3 0 2 3 3 2 3 3 2 2 3 2 1 1 3 2 4 5 3 6 12 13 15 16 15 18 19 19 17 15 14 17 17 17 16 15
2 6 10 12 9 12 9 7 8 7 10 10 8 4 8 4 2 1 1 1 1 1 2 2 4 4 4 3 1 2 3 1 2 1 1 0 2 9 14 13 13 12 13 16 17 17 19 19 19 20 20 19 16 16
7 8 6 7 13 13 12 11 11 10 9 8 7 8 5 1 5 4 1 0 0 1 3 1 1 1 3 3 3 4 4 0 2 2 3 4 3 6 11 13 13 11 12 15 15 15 16 18 20 20 19 20 19 19
9 9 9 9 7 5 10 9 8 8 9 3 2 5 8 6 3 4 3 3 3 4 4 3 2 1 2 3 4 5 7 7 9 11 11 9 9 10 10 11 11 12 12 13 14 15 16 17 19 20 21 21 20 20

GFSWCAN_850_spd_108.txt.gz
Wind_Speed
27 24 22 23 24 24 24 22 21 19 15 14 12 10 9 8 7 6 4 6 6 13 10 1 0 4 4 5 8 9 9 3 8 7 7 3 4 6 7 10 10 9 3 3 4 5 10 6 7 7 2 2 10 10
28 25 24 24 24 24 24 24 22 19 17 14 13 11 10 9 8 7 2 4 8 8 7 2 0 1 2 3 8 10 10 7 7 6 7 5 7 3 3 5 11 2 5 2 2 1 9 9 15 4 3 5 12 11
28 26 24 24 24 25 24 25 22 18 15 15 14 13 11 10 10 11 8 2 6 11 16 12 11 5 3 3 4 8 9 7 4 5 11 7 2 2 5 5 8 9 19 3 10 6 15 13 8 7 10 16 14 14
21 22 23 23 24 24 24 23 21 19 15 14 15 14 12 11 11 12 13 4 6 9 13 6 11 7 5 1 2 4 6 5 7 8 10 7 7 1 4 4 4 3 1 1 4 21 20 5 6 7 11 13 16 14
19 20 21 23 23 22 22 21 21 21 14 14 15 15 12 11 11 12 15 8 8 8 11 6 9 9 4 4 1 2 4 6 10 10 7 5 8 4 4 5 6 5 6 1 2 4 5 8 4 6 13 12 10 12
18 19 19 19 19 18 19 21 20 19 12 13 15 14 12 10 9 7 4 10 9 9 8 7 6 12 10 6 5 4 5 6 8 11 8 3 7 2 4 2 6 10 7 8 9 11 12 8 5 6 6 11 11 11
16 17 17 17 17 17 19 19 15 9 11 13 15 12 11 10 12 10 2 4 14 9 6 5 5 11 11 9 10 10 9 3 6 13 2 8 4 2 4 6 5 2 3 2 6 7 6 6 7 6 5 6 11 15
12 13 14 14 15 17 18 15 10 10 9 14 13 10 9 9 11 17 8 4 7 7 12 5 3 8 14 12 13 5 11 11 7 7 1 6 6 1 2 8 10 5 5 6 6 8 5 9 6 5 6 5 6 14
10 10 11 12 13 15 15 8 8 8 13 13 10 7 6 7 5 9 11 7 10 6 6 12 11 3 6 10 8 7 4 7 4 6 9 4 3 2 7 8 9 8 8 9 8 7 6 5 5 6 6 7 7 13
10 11 11 12 12 11 12 7 6 10 13 12 12 5 6 8 7 6 4 5 8 10 9 11 17 6 10 12 8 5 5 4 2 1 6 4 7 17 13 11 8 9 11 11 12 9 6 6 5 5 7 8 8 6
11 10 11 11 10 10 7 7 10 15 15 12 6 4 2 12 7 6 8 9 10 7 14 23 20 1 4 3 1 5 2 3 2 4 2 4 4 10 18 13 10 11 13 12 9 8 9 7 7 6 5 3 3 4
11 10 11 11 10 9 5 9 16 18 6 8 4 5 7 6 7 7 5 7 6 11 8 19 21 15 11 3 6 6 3 4 4 7 3 3 4 15 15 14 12 13 14 13 11 10 9 8 8 8 7 6 5 5
11 11 10 13 11 9 10 12 19 12 9 5 6 6 5 7 1 6 10 8 8 6 14 14 15 12 5 6 5 2 3 5 1 3 3 5 13 12 11 13 12 13 14 14 12 10 10 10 10 10 10 9 8 7
10 8 9 12 9 8 11 14 15 14 7 5 6 4 5 6 7 9 11 10 14 18 12 16 19 6 6 7 5 5 5 2 4 5 7 7 19 17 15 13 13 15 15 15 14 12 12 12 12 11 10 9 9 10
9 7 6 7 8 9 13 12 14 15 4 6 5 4 8 14 12 14 20 21 14 17 17 14 9 12 9 4 4 3 5 4 4 5 2 21 21 19 17 14 14 14 15 15 15 15 14 13 13 12 12 10 9 10
7 7 6 4 4 6 12 11 11 12 4 5 6 7 14 13 14 12 15 9 11 14 14 18 9 6 5 5 8 8 4 5 5 5 17 19 19 17 15 14 14 15 16 16 16 17 16 15 15 12 10 9 8 9
8 8 5 5 6 10 14 13 7 6 4 5 8 16 17 9 13 16 16 16 14 15 8 7 5 7 5 8 12 7 11 9 4 6 14 18 19 15 14 14 16 17 18 18 19 18 18 17 14 12 11 11 9 10
10 8 6 3 5 13 12 12 6 6 9 13 15 14 14 12 14 16 10 13 10 16 18 9 12 6 7 9 9 5 8 6 2 7 12 14 11 9 9 13 17 19 19 21 20 20 19 18 17 14 13 14 12 10
8 9 10 9 13 9 7 7 6 6 12 13 15 19 17 16 18 11 7 11 15 8 5 3 3 6 8 8 10 11 9 9 7 3 3 3 8 14 16 16 19 21 21 22 23 23 23 25 22 18 15 14 15 12
11 13 13 16 13 4 4 7 10 7 8 9 20 18 19 21 18 15 14 23 18 5 4 4 6 16 11 13 3 2 6 12 10 14 10 11 10 24 23 18 15 17 19 19 22 27 25 22 21 19 15 14 13 15
11 15 16 14 13 11 5 5 8 7 11 15 12 18 19 19 18 18 16 15 13 14 14 14 21 17 14 11 3 8 11 21 24 13 13 13 13 15 18 13 15 16 19 22 24 23 23 22 23 22 20 15 15 16
7 5 14 17 7 5 7 8 8 7 6 12 15 12 13 11 15 18 19 18 18 18 19 21 20 19 18 13 9 9 2 14 14 15 20 18 15 12 13 17 15 12 10 18 24 25 21 23 24 19 20 19 17 13
8 11 5 6 5 6 8 11 5 7 4 7 14 9 6 14 16 9 9 20 20 19 18 18 17 15 12 8 6 9 11 17 20 17 14 12 13 13 12 10 11 12 17 19 27 30 31 27 16 11 19 18 17 15
13 5 5 7 9 5 6 6 7 7 7 11 5 6 8 7 10 10 7 14 14 15 17 18 16 15 15 14 17 18 4 7 11 13 10 10 14 14 3 1 2 9 17 19 23 27 31 23 16 21 20 19 16 16
4 7 6 6 9 7 6 5 9 7 7 8 13 4 4 2 4 5 9 7 14 15 17 14 14 15 17 15 15 3 10 15 19 14 7 6 6 3 1 2 2 8 15 19 22 26 23 22 22 21 18 17 18 18
6 10 8 10 8 7 4 3 5 8 5 4 9 7 10 3 5 3 1 6 7 17 14 6 4 8 9 8 11 15 2 1 2 5 7 6 7 7 8 12 9 12 14 22 22 24 27 29 26 19 19 19 20 16
4 7 10 9 4 3 4 5 4 3 4 4 2 2 3 5 2 2 2 4 2 4 7 7 6 6 6 4 5 5 6 5 3 2 2 2 2 3 4 8 9 8 11 17 26 26 33 28 21 20 19 19 18 17
9 4 5 7 10 9 4 2 2 2 2 4 3 4 3 4 1 7 4 9 4 4 3 1 2 4 5 4 4 5 6 6 6 4 4 5 4 2 4 4 9 8 13 19 25 26 31 23 22 20 20 18 19 17
7 8 9 6 5 4 3 3 3 4 5 3 1 1 2 6 19 10 7 4 3 3 4 4 1 1 3 5 6 5 3 4 3 2 1 1 0 0 2 3 7 12 16 19 25 25 22 20 18 18 19 19 17 18
10 12 9 7 7 6 9 8 5 7 1 6 3 6 8 5 6 6 3 1 2 4 4 4 2 5 6 4 3 2 3 4 5 2 1 1 3 4 7 5 8 14 18 17 18 18 20 18 14 18 15 13 15 17
8 6 8 10 9 11 8 8 9 7 9 4 7 12 7 2 6 6 3 1 3 4 4 4 5 3 6 5 4 2 4 2 0 2 4 2 5 9 9 11 14 15 17 18 19 21 23 18 17 16 19 19 20 17
4 7 7 7 10 10 8 9 9 10 10 10 5 5 4 8 4 4 2 2 3 5 1 2 4 3 2 5 4 3 7 3 3 0 1 2 3 6 8 14 17 19 17 21 25 23 19 21 18 19 19 20 19 19
9 6 10 11 7 7 9 9 4 5 0 3 2 7 4 6 2 6 2 0 3 4 3 2 2 2 4 1 4 4 4 5 8 9 13 11 9 9 9 10 12 14 17 15 16 17 18 20 18 19 20 19 20 19

GFSWCAN_850_spd_111.txt.gz
Wind_Speed
30 28 29 25 23 23 22 23 24 23 22 20 18 14 12 11 9 8 6 2 4 5 16 11 5 8 8 6 3 10 7 7 5 3 1 2 4 4 1 5 1 3 3 1 1 3 4 15 7 4 6 8 9 16
28 29 28 25 23 23 23 23 24 24 23 20 18 15 13 12 10 9 8 5 4 10 12 10 7 3 4 4 8 7 8 9 2 2 4 4 1 5 9 3 1 2 4 4 3 3 4 10 9 3 11 17 13 14
27 27 23 21 22 23 22 23 23 24 21 19 17 15 13 12 11 11 11 4 3 6 13 19 18 9 7 5 3 4 4 6 6 7 4 2 2 4 1 2 6 1 1 1 3 4 13 21 7 9 6 10 14 13
24 22 18 18 19 20 21 21 22 21 20 19 17 15 14 12 11 12 12 5 5 6 4 7 4 14 5 2 2 4 6 4 6 5 5 3 2 3 1 2 2 7 8 7 1 6 8 9 11 15 12 12 13 11
19 17 15 17 17 19 20 21 20 21 22 21 16 14 13 12 11 11 13 13 4 3 4 12 16 14 10 8 5 2 4 5 9 7 3 3 3 3 6 3 2 5 3 3 2 21 13 14 8 15 14 10 7 8
15 15 15 17 17 18 18 18 19 22 22 18 12 12 13 11 9 6 2 9 13 7 4 3 8 18 11 13 7 5 5 5 7 6 11 2 4 1 2 2 4 13 16 12 8 19 22 14 8 10 14 15 10 9
13 13 14 15 16 15 16 17 19 18 16 9 10 12 12 10 11 10 4 6 14 10 3 4 4 15 16 12 8 12 11 8 5 5 6 1 4 5 1 3 6 7 13 13 16 17 14 13 12 11 13 14 12 9
9 10 10 11 12 13 14 16 18 11 11 8 9 10 9 9 9 15 9 2 4 8 4 3 4 7 15 7 13 12 2 9 9 4 2 2 6 2 1 5 7 0 13 10 11 9 12 12 15 12 10 14 13 14
8 8 9 10 11 13 13 13 11 7 9 10 10 7 6 6 4 7 8 5 4 8 4 5 2 3 8 11 6 5 6 2 5 5 7 5 2 2 7 6 7 4 12 12 10 10 5 16 11 9 10 12 18 18
9 9 10 11 11 11 9 11 6 6 9 11 11 4 3 5 5 6 7 4 4 6 7 5 11 4 14 13 10 7 3 3 2 4 6 3 4 17 15 12 11 7 14 13 14 13 9 4 10 11 7 4 5 14
10 10 10 10 11 10 10 9 6 9 12 10 4 3 2 11 9 4 6 6 9 5 9 14 15 2 5 3 2 6 3 3 2 4 4 3 3 11 22 15 14 9 13 15 8 16 15 12 8 7 8 7 5 6
10 9 10 10 11 11 8 6 8 15 7 5 5 2 8 6 6 5 4 5 5 6 6 19 21 17 10 6 5 4 2 2 4 6 2 2 1 13 23 20 17 13 14 16 8 13 13 14 10 11 9 7 6 6
10 9 10 11 12 10 7 10 12 15 5 2 3 3 4 7 0 6 9 4 4 8 13 14 7 13 7 7 3 3 2 3 3 2 2 4 15 20 20 19 15 14 14 16 12 13 12 10 9 10 12 9 9 12
7 7 7 8 12 7 7 11 15 15 4 3 4 3 5 4 5 5 7 7 12 20 16 16 17 6 9 5 3 3 4 3 3 4 6 5 27 24 21 19 18 17 16 16 16 13 13 12 14 11 10 10 11 8
7 8 8 6 7 5 7 11 16 15 4 5 4 4 6 12 14 11 21 19 20 19 17 14 9 4 4 4 4 2 4 4 4 5 3 22 29 24 23 22 20 19 19 19 18 18 16 17 15 15 16 16 15 13
7 6 6 6 5 2 7 13 11 12 4 5 7 8 10 10 14 18 9 10 17 14 13 7 5 4 6 3 5 6 4 4 4 4 20 29 27 23 23 23 22 20 21 21 20 21 21 21 20 20 20 20 19 17
7 7 7 7 6 3 7 12 8 5 6 6 6 14 16 15 13 14 15 6 10 8 3 7 6 5 3 3 7 7 8 6 15 22 29 29 27 25 22 24 23 23 23 24 24 24 25 24 21 20 23 25 22 17
7 6 7 6 2 6 10 7 9 7 7 10 11 17 18 17 16 15 14 6 3 2 7 6 4 3 4 6 4 7 10 6 17 23 24 24 22 20 20 21 23 24 24 24 27 27 28 28 28 25 25 24 22 18
6 8 9 9 11 7 6 8 7 5 11 12 14 21 23 20 19 17 15 11 8 3 6 3 4 3 2 4 11 8 9 8 13 15 17 20 18 19 18 14 18 21 23 25 26 29 31 33 34 32 30 28 24 20
8 9 10 12 14 5 4 6 8 6 6 10 22 21 21 19 21 24 14 10 6 5 2 3 4 9 6 10 4 2 5 8 4 10 8 3 11 17 15 20 21 20 20 25 27 25 26 27 31 31 29 26 22 18
8 11 10 12 8 6 5 3 7 8 9 10 12 15 18 17 21 22 20 17 4 9 7 15 19 18 21 12 3 5 7 7 7 6 6 6 21 30 27 22 15 22 21 21 25 22 30 30 28 24 24 24 26 17
5 5 10 13 6 5 7 8 8 13 7 10 16 7 5 8 14 18 19 16 14 12 22 21 23 26 20 21 24 15 10 7 4 5 13 8 19 26 25 16 14 15 16 20 18 17 22 26 27 31 28 27 9 10
8 9 4 6 4 4 8 7 5 5 3 4 4 7 5 6 14 13 5 7 13 20 19 21 25 21 23 19 10 5 5 8 9 8 10 14 9 9 10 10 7 14 16 16 16 18 25 27 30 32 31 18 14 17
9 6 5 6 9 4 5 5 6 5 5 7 3 5 5 5 12 10 4 13 17 16 15 21 16 14 13 14 10 5 9 9 12 11 12 11 7 15 15 15 10 11 18 16 16 21 25 31 30 30 18 15 26 16
3 5 4 6 7 5 5 4 6 5 5 6 8 4 0 3 2 2 2 4 11 10 6 10 11 11 12 8 4 3 5 6 9 12 13 12 2 8 8 10 11 10 11 14 17 22 27 28 24 15 22 29 17 21
5 8 8 7 6 7 5 3 4 7 2 2 2 1 4 1 2 7 1 6 4 4 11 11 9 12 10 5 11 9 4 1 2 6 9 3 4 8 11 14 12 12 11 11 19 23 26 24 18 25 27 17 17 21
5 7 12 13 9 9 5 6 7 2 2 3 3 6 6 6 3 3 4 3 2 5 11 10 7 12 8 1 5 5 4 2 4 4 5 6 2 2 3 7 10 12 11 12 19 21 25 23 29 27 17 17 20 21
8 6 9 15 11 4 2 3 3 1 2 8 7 3 3 4 2 5 3 2 4 3 4 5 5 5 5 5 1 2 4 3 6 3 4 5 4 4 6 8 10 9 7 13 21 26 21 25 29 23 20 19 19 20
9 6 5 3 4 5 5 3 1 4 2 3 2 0 3 3 10 7 4 6 9 6 7 7 12 8 5 3 4 5 7 8 8 6 3 1 1 3 2 6 5 6 6 16 23 21 18 24 27 18 14 16 15 22
15 12 12 10 8 4 6 7 4 6 12 3 3 12 10 6 6 4 3 3 9 3 2 4 3 6 12 11 10 9 7 9 6 3 3 3 4 4 4 5 2 6 9 9 17 19 22 25 19 13 12 14 17 5
11 14 13 11 8 12 11 9 11 9 6 1 4 15 11 7 5 9 8 1 3 4 6 8 7 3 5 4 6 3 9 6 1 3 3 4 6 7 4 2 2 5 13 11 19 21 18 15 15 14 13 14 18 18
6 4 4 4 9 9 8 3 7 5 4 2 4 9 6 3 3 3 2 3 4 5 2 1 8 8 6 8 8 4 2 2 2 6 7 4 4 5 6 2 9 9 8 11 17 17 18 17 17 19 19 18 21 19
9 7 9 9 4 6 9 8 3 3 6 3 1 2 6 4 4 7 1 1 5 9 6 4 5 7 8 4 6 7 3 4 6 8 10 10 8 5 12 9 11 15 17 16 17 17 19 23 22 25 24 23 18 25

GFSWCAN_850_spd_114.txt.gz
Wind_Speed
27 26 25 24 23 25 24 21 20 21 21 21 21 17 14 13 13 10 4 4 1 5 17 7 11 7 6 6 3 4 4 6 4 4 3 1 3 3 1 2 5 5 3 2 1 4 6 2 6 5 4 3 8 10
24 23 24 24 23 24 21 20 20 21 21 21 19 17 14 13 13 11 6 6 6 11 10 7 8 5 10 4 3 1 2 0 1 4 1 3 2 2 3 2 1 2 5 5 5 5 3 5 3 9 13 17 12 11
25 24 23 23 21 17 17 19 18 19 20 19 18 17 14 13 13 12 11 6 4 8 15 13 11 9 8 8 7 3 3 2 1 1 7 3 2 5 4 5 4 4 5 3 2 3 5 5 3 7 11 14 13 11
23 21 19 18 14 14 15 16 16 18 19 18 19 17 13 13 14 13 11 7 4 4 4 7 6 12 12 6 5 4 3 3 1 3 4 3 2 7 4 3 4 4 7 4 1 3 2 5 5 19 19 15 14 12
19 17 15 13 12 13 14 15 17 17 18 19 20 17 13 13 14 13 12 10 8 4 3 10 13 9 5 10 6 5 4 2 5 2 1 3 4 3 4 3 3 3 5 5 5 16 9 14 17 18 15 13 9 9
13 11 11 12 13 13 14 16 15 16 17 20 17 11 11 12 12 8 4 11 14 11 4 3 3 8 11 15 11 6 6 6 5 3 3 2 1 3 3 1 8 2 11 3 7 23 12 13 20 15 8 9 6 7
9 9 10 11 11 12 13 14 14 16 17 17 11 8 10 11 11 10 3 8 13 11 4 5 6 5 22 18 11 6 9 10 7 3 2 4 4 4 3 3 10 9 14 4 18 22 15 18 19 16 11 8 7 8
8 8 8 8 9 10 11 13 14 16 13 14 7 7 9 8 9 13 9 5 7 11 4 2 4 1 23 8 7 9 16 17 11 8 4 4 6 2 1 7 18 13 14 12 24 22 19 18 20 19 11 11 13 13
9 9 9 9 9 11 11 10 13 11 9 6 8 8 6 6 6 5 10 7 6 8 4 4 3 3 11 10 8 8 8 0 4 5 6 7 0 3 8 14 11 24 19 21 22 18 15 23 25 22 17 17 16 17
9 9 10 9 9 10 9 8 11 10 7 9 10 5 4 5 5 6 7 5 4 7 7 4 4 3 8 6 4 4 3 3 1 5 5 3 4 17 14 17 16 23 22 24 21 15 18 28 24 23 23 20 16 17
9 10 11 10 10 10 9 9 10 4 8 8 4 2 2 7 7 4 4 4 6 3 7 8 12 4 2 3 3 5 3 1 0 5 4 2 3 9 15 20 15 13 24 22 19 20 16 17 17 17 14 10 11 14
9 9 10 10 10 10 12 9 4 10 8 3 2 2 7 5 4 3 4 4 5 5 6 13 18 16 7 5 3 2 1 2 5 3 3 3 4 9 10 23 21 17 23 21 21 15 24 21 18 17 16 13 12 11
9 9 9 9 10 11 10 6 7 13 6 1 2 3 3 2 0 5 6 4 3 5 9 9 4 18 7 8 4 4 5 5 1 1 4 5 10 10 13 19 19 17 17 16 17 16 22 19 16 18 18 15 12 14
9 8 8 7 8 9 6 5 8 15 5 2 3 1 4 4 5 5 3 4 10 9 4 12 10 6 8 4 4 4 5 3 3 3 5 3 18 19 20 20 21 20 19 17 16 20 21 20 17 16 15 16 17 17
9 8 8 8 8 7 6 7 10 16 5 3 3 4 6 14 10 11 13 19 23 20 14 2 5 8 1 3 3 2 2 5 5 5 4 12 23 25 23 24 22 20 21 19 19 20 19 17 16 17 16 18 18 16
8 8 6 6 4 4 3 7 10 13 3 4 6 4 11 10 5 7 10 12 5 6 1 8 3 1 2 2 1 6 3 5 5 4 13 11 25 26 23 23 23 22 21 22 22 21 20 19 20 20 20 21 21 20
7 6 5 4 4 3 1 9 9 6 6 5 7 13 18 17 10 9 3 5 5 4 2 5 4 6 2 3 2 5 5 6 19 14 10 20 29 26 21 21 22 23 22 21 24 24 25 24 22 23 24 24 25 25
8 5 5 6 4 3 6 6 5 4 5 8 7 13 13 13 14 15 12 3 2 4 6 3 2 2 4 5 4 6 17 23 27 18 19 25 24 20 20 14 18 22 24 24 24 25 27 28 29 30 28 25 27 29
8 6 7 7 7 5 4 6 5 4 11 13 17 20 23 23 23 19 14 10 4 6 14 7 2 2 4 4 2 6 8 16 17 13 19 22 22 21 18 16 16 18 24 27 28 30 33 34 34 35 34 31 34 36
9 8 8 11 13 4 4 4 7 6 5 6 14 24 25 21 20 19 14 9 9 5 4 4 4 11 21 20 10 10 14 8 16 17 14 10 13 16 18 19 18 18 24 25 27 28 28 33 37 39 38 37 41 38
6 7 5 9 10 6 4 3 7 7 7 7 12 10 10 16 19 21 21 13 13 7 6 10 17 25 26 21 9 3 3 2 5 5 14 17 15 20 17 15 15 14 16 19 22 22 22 27 29 26 29 37 39 33
4 5 9 9 5 4 6 8 6 8 6 9 14 12 6 3 8 17 14 13 7 15 20 21 24 24 29 22 23 25 16 14 22 13 15 13 16 19 18 13 17 13 12 12 14 19 21 22 24 19 34 34 35 33
7 7 4 5 5 4 7 6 5 5 3 4 3 3 2 3 7 12 4 9 14 17 21 23 25 29 24 26 24 23 20 18 10 15 20 15 17 19 12 9 9 12 14 15 14 14 17 20 25 25 34 38 34 26
9 5 3 6 8 4 4 4 6 5 5 3 2 3 3 7 4 6 3 7 8 6 6 7 11 15 23 20 14 11 12 15 12 17 17 18 16 15 13 11 11 14 15 14 13 12 14 20 23 28 38 35 27 18
3 5 4 5 6 4 4 4 5 3 4 5 4 3 2 5 2 0 3 6 7 7 4 4 8 2 8 9 7 7 11 13 11 14 12 10 13 12 15 18 14 13 13 11 14 15 17 26 33 38 36 29 15 24
3 7 8 6 7 5 5 3 4 3 1 0 2 3 4 1 1 3 3 1 4 4 5 3 8 13 12 8 5 3 2 3 4 5 6 3 4 7 9 12 10 12 15 13 12 13 19 30 32 32 26 20 26 24
4 6 9 10 7 6 4 12 11 3 3 2 3 2 2 3 3 3 3 2 2 2 7 12 8 6 1 2 2 2 1 3 5 3 2 3 6 6 5 9 11 12 13 12 13 12 17 25 26 23 19 31 23 22
7 5 6 9 9 11 5 3 2 2 2 5 5 2 2 2 4 3 1 2 1 0 7 6 11 8 2 4 5 6 4 4 3 2 5 7 7 4 6 8 9 10 11 9 9 15 16 19 21 21 30 19 18 19
8 10 10 10 13 7 5 3 2 4 3 3 1 1 1 3 4 4 4 2 3 6 6 2 11 9 8 5 5 7 4 7 4 3 3 2 3 5 9 8 8 8 9 8 11 17 21 19 22 29 23 13 11 13
9 11 5 3 3 3 4 7 4 10 7 6 4 1 3 3 4 5 4 3 1 7 5 2 2 8 13 10 7 7 10 10 10 6 7 9 6 3 7 8 8 5 3 7 16 24 22 18 27 26 18 10 8 10
5 2 3 3 4 14 16 14 12 10 8 9 5 3 1 1 1 3 3 3 2 1 4 6 7 1 3 8 8 13 11 14 12 10 7 3 4 6 3 4 4 4 1 6 17 23 22 23 25 24 17 12 9 11
2 4 6 4 5 6 6 10 10 13 8 11 5 6 3 1 1 2 4 3 3 5 3 11 9 11 9 9 11 8 6 9 9 6 4 8 4 5 8 5 4 4 4 8 13 16 20 25 23 22 20 19 21 19
5 7 6 4 3 3 3 3 1 5 2 3 4 5 4 3 2 6 2 4 9 13 7 5 10 12 8 6 6 4 2 2 4 6 9 9 6 5 6 10 7 10 11 14 17 19 21 21 20 17 18 19 20 19

GFSWCAN_850_spd_117.txt.gz
Wind_Speed
27 26 25 23 23 21 22 23 24 20 17 17 18 18 15 13 11 8 5 8 7 5 15 12 4 6 2 3 3 0 3 4 4 4 3 3 3 4 1 3 3 4 4 3 1 3 5 1 2 6 4 16 13 6
25 24 24 23 22 21 21 22 20 18 18 16 17 17 15 13 11 9 6 11 6 11 9 8 11 10 7 3 4 3 3 3 4 4 1 3 2 2 3 2 2 2 5 3 7 5 4 3 2 3 6 14 14 9
23 23 23 22 20 18 17 15 14 16 15 16 16 15 15 13 12 13 11 10 10 10 18 18 14 7 8 8 7 4 3 3 3 2 7 3 2 4 4 5 4 4 5 2 2 3 3 2 1 3 9 9 10 8
21 21 20 17 16 14 11 12 13 14 16 16 16 16 17 15 13 14 12 8 8 4 3 7 8 7 12 12 10 8 6 8 6 4 3 3 2 9 4 3 4 4 7 4 3 4 3 5 4 9 10 8 11 10
18 17 14 13 12 11 9 13 14 15 15 15 17 17 17 15 13 13 13 11 10 7 3 9 14 5 13 13 10 6 5 5 5 3 2 3 3 4 1 2 2 8 6 5 6 15 9 11 11 14 14 12 11 11
13 11 11 11 11 11 12 12 13 15 14 15 18 16 13 9 10 8 4 12 15 12 3 3 5 7 12 15 12 8 3 3 2 3 4 4 3 2 3 2 5 11 8 13 4 15 13 17 17 17 15 14 13 11
10 9 9 10 10 11 11 12 13 13 14 16 17 15 8 8 12 9 1 5 19 14 3 5 6 4 12 20 15 8 8 4 3 2 4 3 4 3 3 3 7 16 10 9 9 17 11 19 22 18 15 14 14 15
9 9 9 8 8 9 10 11 12 13 16 14 14 8 7 8 10 12 7 9 10 9 3 1 4 3 13 8 7 9 6 6 5 4 3 3 4 2 2 12 10 13 11 11 15 27 23 22 20 19 19 16 16 16
11 11 9 9 9 10 10 10 9 11 11 12 5 6 6 6 5 3 12 12 10 10 3 3 2 3 10 6 6 6 4 1 3 3 4 7 1 3 9 12 15 16 13 15 21 21 16 25 25 23 20 17 15 15
11 11 10 9 9 9 10 9 9 10 11 5 6 4 4 4 6 7 7 8 8 8 6 4 3 3 4 5 3 4 2 2 1 4 6 3 4 23 22 17 17 15 19 14 20 18 15 25 28 25 20 14 12 13
10 11 11 10 10 10 10 10 10 9 4 5 4 3 0 7 7 4 4 4 6 3 7 9 14 4 5 3 3 5 3 2 1 4 3 2 4 8 17 19 19 16 20 20 23 22 24 20 26 26 22 19 13 14
10 10 11 10 10 10 10 11 8 5 5 3 4 3 6 4 3 2 3 2 4 5 6 10 17 22 5 5 4 3 2 2 4 3 2 3 4 9 10 14 22 21 21 23 24 20 15 16 24 21 18 20 18 13
10 11 11 11 9 9 11 10 6 8 8 4 3 3 3 3 1 5 6 3 3 4 7 9 3 13 10 7 4 3 3 4 3 1 4 5 8 8 6 14 21 20 19 24 22 15 20 21 21 20 19 16 12 12
12 10 10 10 8 7 10 7 7 12 7 3 3 2 4 4 4 4 4 2 6 1 5 13 8 6 5 4 4 5 5 3 2 2 5 4 10 11 11 17 20 22 20 23 19 17 18 21 20 15 14 15 14 12
11 10 9 8 9 8 7 6 8 16 5 4 3 4 5 9 6 9 11 9 11 16 10 3 3 5 1 4 3 3 3 4 6 5 4 11 12 17 17 20 20 21 22 23 18 19 20 22 20 20 20 18 17 13
11 10 8 8 6 5 5 5 6 13 3 4 6 3 7 2 4 7 6 11 10 4 8 4 3 1 4 2 4 7 5 6 5 4 15 11 12 16 22 19 19 21 20 23 21 21 22 24 25 21 20 22 21 20
8 7 7 5 5 4 3 5 5 6 5 4 7 11 15 12 9 7 7 13 11 4 2 4 3 3 1 2 3 4 5 4 13 14 15 16 11 20 22 17 17 21 20 21 22 22 24 23 21 20 21 22 23 22
9 6 6 6 4 3 4 6 3 4 5 8 7 9 6 6 6 8 5 12 11 3 4 4 6 2 3 2 2 5 16 19 21 21 25 19 12 21 18 16 17 19 20 20 20 22 25 26 27 27 25 24 24 26
10 9 8 6 7 4 3 4 4 4 9 10 13 18 18 18 19 13 11 12 9 7 5 4 3 4 4 5 3 19 18 13 16 17 18 13 17 23 20 18 15 17 18 19 21 23 26 29 31 32 31 31 33 32
10 9 7 9 9 3 3 3 6 5 5 4 9 15 17 21 23 18 13 13 12 5 4 3 4 8 10 18 15 5 10 10 3 9 8 10 17 19 19 19 19 18 19 20 23 28 32 34 36 38 39 39 40 40
8 7 6 7 9 8 3 3 6 6 6 7 9 9 8 10 16 24 24 20 15 7 5 11 15 19 17 19 18 17 14 9 2 8 6 4 4 8 15 19 20 21 21 21 23 23 24 29 29 28 30 33 38 39
6 7 6 7 4 5 6 8 6 6 5 10 11 10 6 4 6 11 13 14 8 17 17 19 21 22 20 20 23 20 17 22 18 18 10 10 14 20 23 22 22 23 24 24 21 19 19 21 24 24 21 21 26 26
6 7 3 5 5 4 5 5 5 4 3 4 3 3 3 4 6 7 7 10 15 20 18 18 17 18 19 20 18 26 27 21 18 14 13 18 15 19 27 22 21 20 16 13 14 15 14 14 14 14 17 22 22 25
6 4 3 5 6 4 4 4 5 4 4 3 2 3 3 4 2 4 4 9 12 12 14 15 16 16 14 13 18 18 22 25 20 7 17 24 28 27 21 18 18 18 16 13 16 14 10 10 13 15 19 21 23 35
5 4 4 4 5 4 3 3 4 3 4 4 3 4 2 2 3 4 3 3 7 13 13 12 10 11 15 8 10 16 18 16 16 12 12 18 20 19 19 21 22 23 20 14 12 8 9 12 14 17 20 22 28 37
3 6 7 5 4 4 4 3 4 4 3 2 2 3 3 1 2 3 2 3 1 4 4 7 11 10 12 14 18 16 12 10 10 10 9 11 12 12 12 12 14 14 12 12 10 10 11 13 15 18 22 25 30 25
3 5 9 9 5 4 5 11 13 4 3 1 2 2 1 2 3 2 2 3 4 1 5 8 8 6 6 8 9 10 9 7 4 2 2 3 5 7 9 10 11 12 12 12 13 13 11 13 15 18 22 29 27 16
7 5 6 7 7 7 4 4 3 4 4 6 2 3 2 2 2 2 2 1 3 2 7 3 3 6 6 5 3 4 7 7 5 6 5 3 3 4 4 5 8 10 12 11 11 9 9 12 16 19 22 28 23 24
5 8 5 6 7 8 10 5 3 1 4 4 2 2 1 2 1 2 4 5 2 1 2 8 7 7 7 8 5 3 6 9 8 6 5 5 4 3 6 8 9 7 6 8 8 8 11 14 16 18 18 20 22 15
8 13 8 6 5 5 4 6 3 10 11 9 3 1 3 2 5 6 4 2 2 6 6 3 6 9 8 7 8 7 8 10 8 7 6 8 7 6 7 8 9 8 6 4 6 12 15 16 18 17 23 20 14 14
6 2 5 4 3 4 11 14 10 8 8 5 5 3 2 3 3 4 4 4 2 5 6 4 2 4 7 11 13 13 12 12 13 11 10 10 6 8 8 9 9 8 5 3 9 16 18 18 19 24 25 17 14 16
4 3 2 1 3 7 8 2 4 3 7 5 4 2 1 2 2 4 6 5 3 4 8 8 6 6 5 3 3 5 8 9 11 12 7 5 6 5 5 6 8 8 5 2 6 16 20 19 20 27 27 21 18 17
2 1 1 2 3 3 3 3 1 2 1 2 1 2 2 2 2 4 6 10 10 8 6 9 10 10 7 7 6 4 4 4 4 6 8 10 10 9 5 6 9 10 8 5 6 10 15 20 22 23 29 26 22 21